[[{"header":{"parameterUnit":"m.s-1","parameterCategory":1,"la1":30.6,"la2":29.2853,"lo1":-89.7004,"lo2":-87.6739,"dy":0.0162,"dx":0.0183,"nx":112,"ny":82,"refTime":"2024-10-16T12:00:00:Z","depth":0,"parameterNumber":2,"parameterNumberName":"U-component_of_WINDS"},"data":[0.0,0.0,0.0,0.0,0.0,0.0,0.0,0.0,0.0,0.0,0.0,0.0,0.0,0.0,0.0,0.0,0.0,0.0,0.0,0.0,0.0,0.0,0.0,0.0,0.0,0.0,0.0,0.0,0.0,0.0,0.0,0.0,0.0,0.0,0.0,0.0,0.0,0.0,0.0,0.0,0.0,0.0,0.0,0.0,0.0,0.0,0.0,0.0,0.0,0.0,0.0,0.0,0.0,0.0,0.0,0.0,0.0,0.0,0.0,0.0,0.0,0.0,0.0,0.0,0.0,0.0,0.0,0.0,0.0,0.0,0.0,0.0,0.0,0.0,0.0,0.0,0.0,0.0,0.0,0.0,0.0,0.0,0.0,0.0,0.0,0.0,0.0,0.0,0.0,0.0,3.0487,3.086,3.3083,3.5092,3.6367,3.4805,3.2936,3.1094,0.0,0.0,0.0,0.0,0.0,0.0,0.0,0.0,0.0,0.0,0.0,0.0,0.0,0.0,0.0,0.0,0.0,0.0,0.0,0.0,0.0,0.0,0.0,0.0,0.0,0.0,0.0,0.0,0.0,0.0,0.0,0.0,0.0,0.0,0.0,0.0,0.0,0.0,0.0,0.0,0.0,0.0,0.0,0.0,0.0,0.0,0.0,0.0,0.0,0.0,0.0,0.0,0.0,0.0,0.0,0.0,0.0,0.0,0.0,0.0,0.0,0.0,0.0,0.0,0.0,0.0,0.0,0.0,0.0,0.0,0.0,0.0,0.0,0.0,0.0,0.0,0.0,0.0,0.0,0.0,0.0,0.0,0.0,0.0,0.0,0.0,0.0,0.0,0.0,0.0,0.0,0.0,0.0,0.0,0.0,0.0,0.0,0.0,0.0,0.0,0.0,0.0,0.0,0.0,3.0635,3.4503,3.5069,3.5258,3.5477,3.3694,3.1583,2.9347,0.0,0.0,0.0,0.0,0.0,0.0,0.0,0.0,0.0,0.0,0.0,0.0,0.0,0.0,0.0,0.0,0.0,0.0,0.0,0.0,0.0,0.0,0.0,0.0,0.0,0.0,0.0,0.0,0.0,0.0,0.0,0.0,0.0,0.0,0.0,0.0,0.0,0.0,0.0,0.0,0.0,0.0,0.0,0.0,0.0,0.0,0.0,0.0,0.0,0.0,0.0,0.0,0.0,0.0,0.0,0.0,0.0,0.0,0.0,0.0,0.0,0.0,0.0,0.0,0.0,0.0,0.0,0.0,0.0,0.0,0.0,0.0,0.0,0.0,0.0,0.0,0.0,0.0,0.0,0.0,0.0,0.0,0.0,0.0,0.0,0.0,0.0,0.0,0.0,0.0,0.0,0.0,0.0,0.0,0.0,0.0,0.0,0.0,0.0,0.0,0.0,0.0,0.0,2.8991,3.056,3.3986,3.3497,3.3219,3.4041,3.1672,2.9746,2.888,2.4724,0.0,0.0,0.0,0.0,0.0,0.0,0.0,0.0,0.0,0.0,0.0,0.0,0.0,0.0,0.0,0.0,0.0,0.0,0.0,0.0,0.0,0.0,0.0,0.0,0.0,0.0,0.0,0.0,0.0,0.0,0.0,0.0,0.0,0.0,0.0,0.0,0.0,0.0,0.0,0.0,0.0,0.0,0.0,0.0,0.0,0.0,0.0,0.0,0.0,0.0,0.0,0.0,0.0,0.0,0.0,0.0,0.0,0.0,0.0,0.0,0.0,0.0,0.0,0.0,0.0,0.0,0.0,0.0,0.0,0.0,0.0,0.0,0.0,0.0,0.0,0.0,0.0,0.0,0.0,0.0,0.0,0.0,0.0,0.0,0.0,0.0,0.0,0.0,0.0,0.0,0.0,0.0,0.0,0.0,0.0,0.0,0.0,0.0,0.0,0.0,0.0,0.0,3.0924,3.0661,3.2868,3.1767,3.1354,3.2473,2.9666,2.7834,2.7779,2.2427,0.0,0.0,0.0,0.0,0.0,0.0,0.0,0.0,0.0,0.0,0.0,0.0,0.0,0.0,0.0,0.0,0.0,0.0,0.0,0.0,0.0,0.0,0.0,0.0,0.0,0.0,0.0,0.0,0.0,0.0,0.0,0.0,0.0,0.0,0.0,0.0,0.0,0.0,0.0,0.0,0.0,0.0,0.0,0.0,0.0,0.0,0.0,0.0,0.0,0.0,0.0,0.0,0.0,0.0,0.0,0.0,0.0,0.0,0.0,0.0,0.0,0.0,0.0,0.0,0.0,0.0,0.0,0.0,0.0,0.0,0.0,0.0,0.0,0.0,0.0,0.0,0.0,0.0,0.0,0.0,0.0,0.0,0.0,0.0,0.0,0.0,0.0,0.0,0.0,0.0,0.0,0.0,0.0,0.0,0.0,0.0,0.0,0.0,0.0,0.0,0.0,0.0,3.0502,3.1318,3.2938,3.1767,3.0937,3.1054,2.8283,2.5991,2.4786,2.0231,0.0,0.0,0.0,0.0,0.0,0.0,0.0,0.0,0.0,0.0,0.0,0.0,0.0,0.0,0.0,0.0,0.0,0.0,0.0,0.0,0.0,0.0,0.0,0.0,0.0,0.0,0.0,0.0,0.0,0.0,0.0,0.0,0.0,0.0,0.0,0.0,0.0,0.0,0.0,0.0,0.0,0.0,0.0,0.0,0.0,0.0,0.0,0.0,0.0,0.0,0.0,0.0,0.0,0.0,0.0,0.0,0.0,0.0,0.0,0.0,0.0,0.0,0.0,0.0,0.0,0.0,0.0,0.0,0.0,0.0,0.0,0.0,0.0,0.0,0.0,0.0,0.0,0.0,0.0,0.0,0.0,0.0,0.0,0.0,0.0,0.0,0.0,0.0,0.0,0.0,0.0,0.0,0.0,0.0,0.0,0.0,0.0,0.0,0.0,0.0,0.0,0.0,2.9366,3.058,3.1615,3.1228,3.0898,3.0898,2.8848,2.668,2.4528,0.0,0.0,0.0,0.0,0.0,0.0,0.0,0.0,0.0,0.0,0.0,0.0,0.0,0.0,0.0,0.0,0.0,0.0,0.0,0.0,0.0,0.0,0.0,0.0,0.0,0.0,0.0,0.0,0.0,0.0,0.0,0.0,0.0,0.0,0.0,0.0,0.0,0.0,0.0,0.0,0.0,0.0,0.0,0.0,0.0,0.0,0.0,0.0,0.0,0.0,0.0,0.0,0.0,0.0,0.0,0.0,0.0,0.0,0.0,0.0,0.0,0.0,0.0,0.0,0.0,0.0,0.0,0.0,0.0,0.0,0.0,0.0,0.0,0.0,0.0,0.0,0.0,0.0,0.0,0.0,0.0,0.0,0.0,0.0,0.0,0.0,0.0,0.0,0.0,0.0,0.0,0.0,0.0,0.0,0.0,0.0,0.0,0.0,0.0,0.0,0.0,0.0,2.6794,2.8804,3.0196,3.0829,3.0898,3.0898,3.0898,2.8926,2.6699,2.4375,0.0,0.0,0.0,0.0,0.0,0.0,0.0,0.0,0.0,0.0,0.0,0.0,0.0,0.0,0.0,0.0,0.0,0.0,0.0,0.0,0.0,0.0,0.0,0.0,0.0,0.0,0.0,0.0,0.0,0.0,0.0,0.0,0.0,0.0,0.0,0.0,0.0,0.0,0.0,0.0,0.0,0.0,0.0,0.0,0.0,0.0,0.0,0.0,0.0,0.0,0.0,0.0,0.0,0.0,0.0,0.0,0.0,0.0,0.0,0.0,0.0,0.0,0.0,0.0,0.0,0.0,0.0,0.0,0.0,0.0,0.0,0.0,0.0,0.0,0.0,0.0,0.0,0.0,0.0,0.0,0.0,0.0,0.0,0.0,0.0,0.0,0.0,0.0,0.0,0.0,0.0,0.0,0.0,0.0,0.0,0.0,0.0,0.0,0.0,0.0,0.0,0.0,2.6886,2.896,3.0391,3.084,3.0898,3.0898,3.0898,2.8144,2.5664,0.0,0.0,0.0,0.0,0.0,0.0,0.0,0.0,0.0,0.0,0.0,0.0,0.0,0.0,0.0,0.0,0.0,0.0,0.0,0.0,0.0,0.0,0.0,0.0,0.0,0.0,0.0,0.0,0.0,0.0,0.0,0.0,0.0,0.0,0.0,0.0,0.0,0.0,0.0,0.0,0.0,0.0,0.0,0.0,0.0,0.0,0.0,0.0,0.0,0.0,0.0,0.0,0.0,0.0,0.0,0.0,0.0,0.0,0.0,0.0,0.0,0.0,0.0,0.0,0.0,0.0,0.0,0.0,0.0,0.0,0.0,0.0,0.0,0.0,0.0,0.0,0.0,0.0,0.0,0.0,0.0,0.0,0.0,0.0,0.0,0.0,0.0,0.0,0.0,0.0,0.0,0.0,0.0,0.0,0.0,0.0,0.0,0.0,0.0,0.0,0.0,0.0,0.0,2.6362,2.8999,3.0742,3.0879,3.0898,3.0898,3.0898,2.8945,2.6738,2.4375,0.0,0.0,0.0,0.0,0.0,0.0,0.0,0.0,0.0,0.0,0.0,0.0,0.0,0.0,0.0,0.0,0.0,0.0,0.0,0.0,0.0,0.0,0.0,0.0,0.0,0.0,0.0,0.0,0.0,0.0,0.0,0.0,0.0,0.0,0.0,0.0,0.0,0.0,0.0,0.0,0.0,0.0,0.0,0.0,0.0,0.0,0.0,0.0,0.0,0.0,0.0,0.0,0.0,0.0,0.0,0.0,0.0,0.0,0.0,0.0,0.0,0.0,0.0,0.0,0.0,0.0,0.0,0.0,0.0,0.0,0.0,0.0,0.0,0.0,0.0,0.0,0.0,0.0,0.0,0.0,0.0,0.0,0.0,0.0,0.0,0.0,0.0,0.0,0.0,0.0,0.0,0.0,0.0,0.0,0.0,0.0,0.0,0.0,0.0,0.0,0.0,0.0,2.6348,2.9277,3.1133,3.1133,3.1133,3.1074,3.0898,2.9453,2.7441,2.4844,0.0,0.0,0.0,0.0,0.0,0.0,0.0,0.0,0.0,0.0,0.0,0.0,0.0,0.0,0.0,0.0,0.0,0.0,0.0,0.0,0.0,0.0,0.0,0.0,0.0,0.0,0.0,0.0,0.0,0.0,0.0,0.0,0.0,0.0,0.0,0.0,0.0,0.0,0.0,0.0,0.0,0.0,0.0,0.0,0.0,0.0,0.0,0.0,0.0,0.0,0.0,0.0,0.0,0.0,0.0,0.0,0.0,0.0,0.0,0.0,0.0,0.0,0.0,0.0,0.0,0.0,0.0,0.0,0.0,0.0,0.0,0.0,0.0,0.0,0.0,0.0,0.0,0.0,0.0,0.0,0.0,0.0,0.0,0.0,0.0,0.0,0.0,0.0,0.0,0.0,0.0,0.0,0.0,0.0,0.0,0.0,0.0,0.0,0.0,0.0,0.0,0.0,2.6738,2.964,3.1513,3.1562,3.1543,3.1367,3.0976,2.9746,2.791,2.5434,0.0,0.0,0.0,0.0,0.0,0.0,0.0,0.0,0.0,0.0,0.0,0.0,0.0,0.0,0.0,0.0,0.0,0.0,0.0,0.0,0.0,0.0,0.0,0.0,0.0,0.0,0.0,0.0,0.0,0.0,0.0,0.0,0.0,0.0,0.0,0.0,0.0,0.0,0.0,0.0,0.0,0.0,0.0,0.0,0.0,0.0,0.0,0.0,0.0,0.0,0.0,0.0,0.0,0.0,0.0,0.0,0.0,0.0,0.0,0.0,2.8982,2.6992,0.0,0.0,0.0,0.0,0.0,0.0,0.0,0.0,0.0,0.0,0.0,0.0,0.0,0.0,0.0,0.0,0.0,0.0,0.0,0.0,0.0,0.0,0.0,0.0,0.0,0.0,0.0,0.0,0.0,0.0,0.0,0.0,0.0,0.0,0.0,0.0,0.0,0.0,0.0,0.0,2.7213,2.9863,3.1641,3.2022,3.1719,3.1484,3.1387,3.0176,2.8613,2.6719,2.4059,0.0,0.0,0.0,0.0,0.0,0.0,0.0,0.0,0.0,0.0,0.0,0.0,0.0,0.0,0.0,0.0,0.0,0.0,0.0,0.0,0.0,0.0,0.0,0.0,0.0,0.0,0.0,0.0,0.0,0.0,0.0,0.0,0.0,0.0,0.0,0.0,0.0,0.0,0.0,0.0,0.0,0.0,0.0,0.0,0.0,0.0,0.0,0.0,0.0,0.0,0.0,0.0,0.0,0.0,0.0,0.0,0.0,0.0,0.0,3.395,3.1813,0.0,0.0,0.0,0.0,0.0,0.0,0.0,0.0,0.0,0.0,0.0,0.0,0.0,0.0,0.0,0.0,0.0,0.0,0.0,0.0,0.0,0.0,0.0,0.0,0.0,0.0,0.0,0.0,0.0,0.0,0.0,0.0,0.0,0.0,0.0,0.0,0.0,0.0,0.0,0.0,2.793,3.0527,3.2226,3.2441,3.2266,3.1973,3.1562,3.0703,2.9551,2.8001,2.5874,0.0,0.0,0.0,0.0,0.0,0.0,0.0,0.0,0.0,0.0,0.0,0.0,0.0,0.0,0.0,0.0,0.0,0.0,0.0,0.0,0.0,0.0,0.0,0.0,0.0,0.0,0.0,0.0,0.0,0.0,0.0,0.0,0.0,0.0,0.0,0.0,0.0,0.0,0.0,0.0,0.0,0.0,0.0,0.0,0.0,0.0,0.0,0.0,0.0,0.0,0.0,0.0,0.0,4.0551,4.1656,4.2304,4.2406,4.3009,4.3793,3.9621,3.784,3.7663,3.4625,0.0,0.0,0.0,0.0,0.0,0.0,0.0,0.0,0.0,0.0,0.0,0.0,0.0,0.0,0.0,0.0,0.0,0.0,0.0,0.0,0.0,0.0,2.9984,3.0342,3.0909,3.0322,2.6382,0.0,0.0,0.0,0.0,0.0,0.0,0.0,0.0,0.0,0.0,0.0,2.8926,3.1328,3.2851,3.3008,3.2891,3.2519,3.1797,3.1348,3.0586,2.9336,2.7793,2.6074,0.0,0.0,0.0,0.0,0.0,0.0,0.0,0.0,0.0,0.0,0.0,0.0,0.0,0.0,0.0,0.0,0.0,0.0,0.0,0.0,0.0,0.0,0.0,0.0,0.0,0.0,0.0,0.0,0.0,0.0,0.0,0.0,3.0036,3.119,0.0,0.0,0.0,0.0,0.0,0.0,0.0,0.0,0.0,0.0,0.0,0.0,0.0,3.8642,4.0198,4.2861,4.379,4.3062,4.6155,4.7154,4.6346,4.6798,4.7405,4.8014,4.7336,0.0,4.0625,3.8793,0.0,0.0,0.0,0.0,0.0,0.0,0.0,0.0,0.0,0.0,0.0,0.0,0.0,0.0,0.0,0.0,0.0,0.0,0.0,0.0,0.0,0.0,3.2355,3.2414,3.2736,3.2734,0.0,2.8551,2.5503,2.3054,2.1701,2.0703,0.0,0.0,0.0,0.0,0.0,0.0,3.0254,3.1894,3.3086,3.386,3.3242,3.2754,3.2637,3.2276,3.1631,3.0684,2.9735,2.8718,2.7656,2.5367,0.0,0.0,0.0,0.0,0.0,0.0,0.0,0.0,0.0,0.0,0.0,0.0,0.0,0.0,0.0,0.0,0.0,0.0,0.0,0.0,0.0,0.0,0.0,0.0,0.0,0.0,0.0,0.0,0.0,3.0136,3.2846,3.2717,3.3043,3.2344,0.0,0.0,0.0,0.0,0.0,0.0,0.0,0.0,0.0,3.9685,4.188,4.3449,4.4213,4.7252,4.7651,4.5478,4.8425,4.9112,4.7759,4.7781,4.7945,4.8133,4.7579,4.5935,4.3529,4.2536,4.0877,3.8793,0.0,0.0,0.0,0.0,3.6505,3.5955,3.7867,3.7421,3.5809,3.4938,0.0,0.0,0.0,0.0,0.0,0.0,0.0,3.1354,0.0,0.0,3.4859,3.4655,3.4941,3.5078,3.4473,3.2817,3.0417,2.6736,2.5562,2.4453,2.207,2.2305,0.0,0.0,0.0,2.9277,3.1377,3.293,3.3926,3.4095,3.3762,3.332,3.2832,3.2617,3.2296,3.167,3.1279,3.0673,2.9785,2.8184,2.6367,0.0,0.0,0.0,0.0,0.0,0.0,0.0,0.0,0.0,0.0,0.0,0.0,0.0,0.0,0.0,0.0,0.0,0.0,0.0,0.0,0.0,0.0,0.0,0.0,0.0,0.0,0.0,0.0,3.3222,3.5429,3.4472,3.5805,3.5444,0.0,0.0,0.0,0.0,0.0,0.0,3.7512,3.9651,4.1433,4.2719,4.5127,4.6588,4.6981,4.9328,4.9393,4.7114,4.9062,4.9416,4.8296,4.7976,4.7858,4.7813,4.7075,4.6502,4.6056,4.4705,4.3527,4.2307,3.9992,3.9334,3.9819,4.1064,4.0492,3.9478,4.2017,4.1416,3.9242,3.7835,3.6443,3.4594,3.1114,0.0,0.0,0.0,0.0,3.3546,3.4686,3.5791,3.6567,3.6357,3.6601,3.6773,3.6426,3.6016,3.4512,3.0391,2.9512,2.8418,2.5215,2.5649,0.0,2.625,2.8789,3.1211,3.2667,3.3926,3.4629,3.4466,3.4329,3.3984,3.334,3.3184,3.2949,3.2519,3.2413,3.2022,3.125,3.0469,2.9023,2.6732,0.0,0.0,0.0,0.0,0.0,0.0,0.0,0.0,0.0,0.0,0.0,0.0,0.0,0.0,0.0,0.0,0.0,0.0,0.0,0.0,0.0,0.0,0.0,0.0,0.0,0.0,0.0,0.0,0.0,3.7839,4.0601,0.0,0.0,0.0,0.0,3.6829,3.8601,4.0429,4.1911,4.1882,4.2981,4.5506,4.6324,4.7157,4.8186,4.8366,4.8373,4.8229,4.8327,4.8372,4.8318,4.8274,4.8274,4.8274,4.8229,4.8184,4.7894,4.4413,4.2304,4.1184,4.0024,3.9585,3.9607,3.9705,4.0302,4.1065,4.1253,4.1187,4.1331,4.2825,4.1584,3.8956,3.6175,3.5336,0.0,0.0,3.5655,3.6494,3.6556,3.6627,3.6784,3.7164,3.7246,3.7266,3.7246,3.6894,3.5952,3.3613,3.2851,3.2129,3.0703,0.0,3.0215,3.1006,3.168,3.2707,3.4355,3.4648,3.4863,3.5293,3.4941,3.4648,3.4609,3.4238,3.386,3.3347,3.2988,3.2559,3.2159,3.166,3.0781,2.9422,2.685,0.0,0.0,0.0,0.0,0.0,0.0,0.0,0.0,0.0,0.0,0.0,0.0,0.0,0.0,0.0,0.0,0.0,0.0,0.0,0.0,0.0,0.0,0.0,0.0,0.0,0.0,0.0,0.0,4.084,4.3929,0.0,3.7574,3.9972,4.1424,4.0104,4.1906,4.3238,4.3629,4.534,4.6486,4.6869,4.8349,4.8669,4.778,4.9099,4.8453,4.5819,4.7124,4.7213,4.6168,4.5614,4.5347,4.5306,4.4731,4.4524,4.4403,4.3101,4.3452,4.4715,4.3703,4.3325,4.337,4.3715,4.3316,4.2557,4.2629,4.1827,4.0723,4.0494,3.9599,3.8356,3.7109,3.6924,3.7186,3.73,3.7828,3.8374,3.8681,3.8535,3.8418,3.8867,3.873,3.8613,3.8906,3.8613,3.7988,3.6934,3.5508,3.4043,3.2754,3.2832,3.3008,3.2742,3.3594,3.457,3.543,3.5547,3.5508,3.541,3.5234,3.5019,3.4726,3.4349,3.4036,3.3848,3.3437,3.3125,3.2988,3.2305,3.1582,3.084,2.8828,2.625,0.0,0.0,0.0,0.0,0.0,0.0,0.0,0.0,0.0,0.0,0.0,0.0,0.0,0.0,0.0,0.0,0.0,0.0,0.0,0.0,0.0,0.0,0.0,0.0,0.0,4.2034,4.4699,4.3982,4.6955,4.6786,4.0978,4.3094,4.438,4.3227,4.4552,4.5415,4.5357,4.6617,4.7113,4.666,4.7892,4.7973,4.668,4.8014,4.7319,4.4609,4.5995,4.6073,4.4957,4.4414,4.416,4.4121,4.3555,4.3182,4.3045,4.291,4.3914,4.5446,4.4678,4.4379,4.4422,4.4795,4.4012,4.2791,4.2724,4.1831,4.0605,3.9726,3.916,3.8713,3.8476,3.8476,3.8672,3.9121,3.9336,3.9531,4.0,3.9766,3.9512,3.9824,3.9668,3.9512,3.9824,3.9648,3.9355,3.9082,3.7519,3.5918,3.4902,3.5195,3.5391,3.4824,3.5469,3.6133,3.6406,3.6445,3.6289,3.5859,3.582,3.5586,3.498,3.4394,3.4036,3.3867,3.3184,3.2742,3.2742,3.1953,3.1367,3.1074,2.9375,2.7168,2.4434,0.0,0.0,0.0,0.0,0.0,0.0,0.0,0.0,0.0,0.0,0.0,0.0,0.0,0.0,0.0,0.0,0.0,0.0,0.0,0.0,0.0,0.0,0.0,4.1526,4.5739,4.8409,4.7339,4.9652,4.9504,4.4892,4.6625,4.7486,4.61,4.6439,4.6898,4.7296,4.55,4.4668,4.5035,4.5035,4.5016,4.4996,4.4996,4.4996,4.4996,4.4996,4.5016,4.5016,4.5058,4.4996,4.4996,4.4996,4.4785,4.4375,4.3926,4.3496,4.3086,4.2617,4.2382,4.2382,4.2382,4.2168,4.1758,4.1387,4.123,4.123,4.1211,4.0879,4.0508,4.0508,4.0254,4.0019,4.043,4.0254,4.0019,4.043,4.0234,3.9922,3.9941,3.9922,3.9922,3.9941,3.9922,3.9922,3.9922,3.8867,3.7851,3.7441,3.7363,3.7363,3.7363,3.7324,0.0,3.7324,3.7305,3.7148,3.6773,3.6714,3.6362,3.5488,3.4622,3.3887,3.3406,3.2177,3.1523,3.1513,3.0703,3.0234,3.0234,2.8621,2.7109,2.5815,0.0,0.0,0.0,0.0,0.0,0.0,0.0,0.0,0.0,0.0,0.0,0.0,0.0,0.0,0.0,0.0,0.0,0.0,0.0,0.0,0.0,4.0604,4.3735,4.6356,4.8264,4.945,4.9614,5.0878,5.0069,4.578,4.7546,4.8254,4.6353,4.66,4.6879,4.6998,4.6516,4.6245,4.6362,4.6113,4.5801,4.5508,4.5508,4.5508,4.5508,4.5508,4.5664,4.5937,4.5644,4.5508,4.5488,4.5156,4.4961,4.4844,4.4707,4.459,4.4355,4.2928,4.2382,4.2382,4.2382,4.2304,4.2187,4.1777,4.1621,4.1582,4.1308,4.1094,4.0996,4.0996,4.0918,4.0878,4.0957,4.0918,4.0878,4.0957,4.0664,4.043,4.0742,4.0586,4.043,4.0762,4.0586,4.0351,4.0351,3.9805,3.9316,3.9199,3.8906,3.8672,3.8672,3.8144,0.0,3.7754,3.748,3.7246,3.7148,3.689,3.648,3.5898,3.4746,3.3782,3.3008,3.202,3.166,3.1973,3.1445,3.1152,3.1152,2.9766,2.8738,0.0,0.0,0.0,0.0,0.0,0.0,0.0,0.0,0.0,0.0,0.0,0.0,0.0,0.0,0.0,0.0,0.0,0.0,0.0,0.0,0.0,0.0,4.3431,4.6469,4.9866,5.0493,5.0841,5.1693,5.16,5.0528,4.8105,4.8328,4.814,4.6924,4.707,4.7207,4.7207,4.7207,4.7207,4.7207,4.6973,4.6719,4.6484,4.6289,4.6191,4.6191,4.6016,4.6074,4.6289,4.6055,4.5937,4.5918,4.5664,4.5469,4.5293,4.5293,4.5195,0.0,0.0,0.0,0.0,0.0,4.2695,4.2637,4.2207,4.207,4.1992,4.1562,4.1426,4.1406,4.1269,4.1211,4.1211,4.1211,4.1211,4.1211,4.1211,4.0976,4.0859,4.1152,4.0976,4.0859,4.1152,4.0976,4.0801,4.0801,4.0586,0.0,4.043,3.9902,3.9492,3.9492,3.8906,3.8457,3.8457,3.8086,3.7754,3.7578,3.7344,3.6875,3.606,3.5156,0.0,0.0,0.0,3.166,3.1377,3.1445,0.0,0.0,0.0,0.0,0.0,0.0,0.0,0.0,2.8906,2.9082,0.0,0.0,0.0,0.0,0.0,0.0,0.0,0.0,0.0,0.0,0.0,0.0,0.0,0.0,0.0,0.0,4.6102,4.8733,5.1586,5.1691,5.19,5.301,5.1637,5.0603,5.0603,4.8846,4.7779,4.7779,4.7779,4.7779,4.7779,4.7676,0.0,0.0,0.0,4.7578,4.7578,4.7187,4.6992,4.6948,4.6621,4.6426,4.6367,4.6367,4.6348,4.6308,4.6308,4.6094,4.5785,4.5785,4.5488,4.5058,4.4629,4.4433,4.4297,4.3516,4.3183,4.3086,4.2656,0.0,0.0,4.2012,4.1875,4.1797,4.1367,4.1289,4.1269,4.123,4.1211,4.1211,4.1211,4.1211,4.1211,4.1211,4.1211,4.1211,4.1211,4.1211,4.1211,4.1211,4.1211,4.1211,4.1211,4.0508,3.9961,3.9961,3.957,3.9277,3.9277,3.8906,3.8496,3.8069,0.0,0.0,3.6269,3.5742,3.4922,3.362,3.2871,3.1964,3.0762,3.1601,3.2266,3.2628,3.3437,3.4577,3.6172,3.6177,3.6504,3.6968,3.2531,3.207,0.0,0.0,0.0,0.0,0.0,0.0,0.0,0.0,0.0,0.0,0.0,0.0,0.0,0.0,0.0,4.3964,4.5698,4.7161,4.8811,4.8951,4.9521,5.118,4.9793,4.8726,4.8726,4.8672,4.8659,4.8659,4.8659,4.8659,4.8659,4.8281,4.8086,4.8086,4.7754,4.7578,4.7578,4.75,4.7461,4.7461,4.7363,0.0,4.6772,4.6772,4.6621,4.6308,4.6308,4.625,4.6191,4.6191,4.5937,4.5508,4.5078,4.4687,4.4375,4.4199,4.3906,4.3516,4.3105,4.2949,4.2891,4.2441,4.2265,4.2226,4.1816,4.168,0.0,4.1308,4.1211,4.1211,4.1211,4.1211,4.1211,4.1211,4.1211,4.1211,4.1211,4.1211,4.1211,4.1211,4.1211,4.1211,4.1211,4.0742,4.0372,4.0372,4.0039,3.9766,3.9766,3.9375,3.9043,3.8965,3.834,3.766,3.7109,3.6348,3.5488,3.4512,3.4297,3.4101,3.3848,3.5019,3.5547,3.5273,3.6113,3.6719,3.7051,3.7347,3.8144,3.9219,3.6875,3.6152,0.0,0.0,0.0,0.0,0.0,0.0,0.0,0.0,0.0,0.0,0.0,4.0808,4.143,0.0,4.3396,4.5404,4.6414,4.7305,4.8379,4.8535,4.8894,4.9813,4.9108,4.8535,4.8535,4.8776,4.8913,4.8913,4.8913,4.8913,4.8913,4.8698,4.8535,4.8535,4.8366,4.8268,4.8268,4.8008,4.7891,4.7891,4.7676,4.7461,4.7246,4.7246,4.7012,4.6621,4.6621,4.6504,4.6308,4.6308,4.6172,4.5976,4.5742,4.5273,4.4707,4.4707,4.457,4.4297,4.3887,4.373,4.3633,4.2969,4.2754,4.2676,4.2246,4.2109,4.2031,4.1601,4.1484,4.1445,4.1269,4.1211,4.1211,4.1211,4.1211,4.1211,4.1211,4.1211,4.1211,4.1211,4.1211,4.1211,4.1211,4.0996,4.084,4.084,4.0488,4.0215,4.0215,3.9824,3.9551,3.9551,3.916,3.873,3.8281,3.7461,3.6777,3.6348,3.6113,3.5996,3.5996,3.6836,3.7305,3.7305,3.793,3.8476,3.8906,3.9336,4.0,4.084,4.0176,3.9746,0.0,0.0,0.0,0.0,0.0,0.0,0.0,3.9744,4.0769,4.1847,4.3356,4.4378,4.4148,4.494,4.5893,4.6875,4.75,4.8112,4.8796,4.8913,4.8913,4.8913,4.8913,4.8913,4.8913,4.8913,4.8913,4.8913,4.8913,4.8913,4.8913,4.8913,4.8913,4.8913,4.8913,4.8913,4.8913,4.8516,4.834,4.832,4.7988,4.7773,4.7695,4.7695,4.7461,4.7051,4.7051,4.6855,4.6543,4.6543,4.6543,4.6543,4.6465,4.5996,4.5328,4.5215,4.5098,4.4938,4.4629,4.4473,4.4277,4.3574,4.3281,4.3125,4.2676,4.2558,4.2461,4.2031,4.1914,4.1836,4.1504,4.1426,4.1387,4.1348,4.1328,4.1308,4.123,4.1211,4.1211,4.1211,4.1211,4.1211,4.1211,4.1211,4.1211,4.1211,4.0879,4.0644,4.0644,4.0273,4.0019,4.0019,3.9941,3.9746,3.9375,3.8711,3.8301,3.8301,3.7988,3.7793,3.7793,3.8203,3.8594,3.8945,3.9375,3.998,4.0723,4.1113,4.1504,4.1933,4.2266,4.2246,3.5656,3.6282,3.7437,3.9947,4.0299,4.1464,0.0,4.7015,4.6338,4.744,4.7592,4.7471,4.7297,4.6979,4.6895,4.7447,4.8229,4.8796,4.8894,4.8913,4.8913,4.8913,4.8913,4.8913,4.8913,4.8913,4.8913,4.8913,4.8913,4.8913,4.8913,4.8913,4.8913,4.8913,4.8913,4.8913,4.8913,4.8855,4.8835,4.8835,4.8776,4.8561,4.8144,4.8144,4.791,4.75,4.75,4.748,4.7441,4.7441,4.7441,4.7402,4.7012,4.6753,4.6577,4.5879,4.5351,4.4977,4.4938,4.4707,4.4375,4.4277,4.3965,4.3555,4.3125,4.3008,4.291,4.248,4.2323,4.2304,4.2265,4.2285,4.2187,4.1816,4.1738,4.1621,4.1289,4.1211,4.1211,4.1211,4.1211,4.1211,4.1211,4.1211,4.1211,4.1211,4.1172,4.1094,4.1094,4.0723,4.0411,4.0411,4.0117,3.9883,3.9824,3.9726,3.9668,3.9668,3.9629,3.9609,3.9609,4.0,4.0216,4.0312,4.0723,4.1191,4.166,4.1699,4.1953,4.2323,4.2362,4.2362,4.0575,4.158,4.2534,4.4614,4.6195,4.7742,4.9533,5.0111,5.0021,4.9124,4.9301,4.9245,4.8208,4.8037,4.8105,4.8346,4.8679,4.8913,4.8913,4.8633,4.8398,4.819,4.8151,4.8366,4.8855,4.8913,4.8913,4.8913,4.8913,4.8913,4.8913,4.8913,4.8913,4.8913,4.8913,4.8913,4.8913,4.8913,4.8913,4.8913,4.8913,4.8815,4.864,4.864,4.8359,4.793,4.7695,4.7578,4.7578,4.7578,4.7578,4.7558,4.7383,4.7305,4.7207,4.6348,4.5937,4.5742,4.5488,4.5293,4.5058,4.4551,4.4258,4.4023,4.3574,4.3437,4.3359,4.293,4.2812,4.2754,4.246,4.2382,4.2343,4.2207,4.2168,4.2051,4.1621,4.1543,4.1465,4.1269,4.1211,4.1211,4.1211,4.1211,4.1211,4.1211,4.1211,4.1211,4.1211,4.1016,4.0898,4.0898,4.0742,4.0683,4.0683,4.0683,4.0683,4.0683,4.0683,4.0683,4.0683,4.1035,4.1269,4.1269,4.168,4.1992,4.2168,4.2422,4.2637,4.2812,4.3047,4.332,4.3589,4.5146,4.6632,4.8385,5.0555,5.1983,5.0932,5.1439,5.1519,4.9355,4.9609,4.9819,4.8639,4.8698,4.8913,4.8913,4.8913,4.8913,4.8913,4.8379,4.793,4.7617,4.7363,4.7519,4.8307,4.8581,4.8776,4.8894,4.8913,4.8913,4.8913,4.8913,4.8913,4.8913,4.8913,4.8913,4.8913,4.8913,4.8913,4.8913,4.8913,4.8913,4.8913,4.8913,4.8737,4.8359,4.8112,4.7975,4.7975,4.7975,4.7975,4.7975,4.7793,4.7754,4.7656,4.6797,4.6484,4.6426,4.5996,4.5781,4.5609,4.4941,4.459,4.4336,4.4004,4.3808,4.3633,4.334,4.3242,4.3183,4.2871,4.2733,4.2713,4.2637,4.2598,4.248,4.207,4.1973,4.1894,4.1582,4.1523,4.1484,4.1367,4.1387,4.1348,4.123,4.1211,4.1211,4.1211,4.1211,4.1211,4.1211,4.1211,4.1211,4.1211,4.1211,4.1211,4.1211,4.1289,4.1387,4.1387,4.1758,4.1973,4.1973,4.2226,4.2499,4.2733,4.3086,4.3379,4.3633,4.3241,4.3254,4.3288,4.5426,4.8441,5.0652,5.195,5.2538,5.1993,5.1268,5.0257,4.8571,4.8633,4.8966,4.8874,4.8894,4.8913,4.8913,4.8913,4.8913,4.8913,4.817,4.7598,4.7578,4.6855,4.6504,4.6909,4.7734,4.8398,4.8874,4.8913,4.8913,4.8913,4.8913,4.8913,4.8913,4.8913,4.8913,4.8913,4.8913,4.8913,4.8913,4.8913,4.8913,4.8913,4.8913,4.8894,4.8894,4.8874,4.8855,4.8855,4.8855,4.8855,4.8815,4.8359,4.8183,4.8086,4.7182,4.687,4.6811,4.6426,4.6016,4.5707,4.5688,4.5078,4.4394,4.4375,4.4062,4.3711,4.3691,4.3691,4.3691,4.3672,4.3672,4.3555,4.3164,4.3066,4.293,4.246,4.2362,4.2362,4.2362,4.2343,4.2226,4.1855,4.1777,4.1641,4.1269,4.1211,4.1211,4.1211,4.1211,4.1211,4.1211,4.1211,4.1211,4.1211,4.1211,4.1211,4.1211,4.1562,4.1777,4.1777,4.2187,4.2362,4.2362,4.2382,4.2832,4.3672,4.3672,4.4121,4.4876,4.2531,4.1492,4.6356,4.8987,5.1512,5.2574,5.4152,5.4817,5.2214,5.1732,5.1126,4.8723,4.7871,4.75,4.7207,4.7168,4.7246,4.7539,4.8047,4.8418,4.8418,4.8183,4.7578,4.6445,4.6562,4.6562,4.6133,4.6855,4.7656,4.8379,4.8418,4.8555,4.8894,4.8913,4.8913,4.8913,4.8913,4.8913,4.8913,4.8913,4.8913,4.8913,4.8913,4.8913,4.8913,4.8913,4.8913,4.8913,4.8913,4.8913,4.8913,4.8913,4.8913,4.8894,4.8737,4.8633,4.8581,4.7676,4.7363,4.7266,4.6543,4.6211,4.6055,4.5805,4.5293,4.4824,4.4824,4.4297,4.3769,4.4082,4.3945,4.3711,4.3711,4.3711,4.3672,4.3535,4.3496,4.3379,4.2949,4.2851,4.2773,4.244,4.2382,4.2343,4.2246,4.2207,4.2168,4.2031,4.1523,4.1211,4.1211,4.1211,4.1211,4.1211,4.1211,4.1211,4.1211,4.1211,4.1289,4.1562,4.1719,4.1933,4.2207,4.2637,4.2988,4.3262,4.3574,4.4004,4.4548,4.2947,4.2309,4.2543,4.0097,3.9117,4.8353,5.0734,5.2695,5.3374,5.426,5.4333,5.2033,5.1087,5.0103,4.8148,4.6836,4.5937,4.5664,4.5488,4.5664,4.6562,4.7285,4.791,4.8379,4.8183,4.7578,4.6528,4.6562,4.6562,4.6152,4.6621,4.724,4.8144,4.8359,4.8555,4.8894,4.8913,4.8913,4.8913,4.8913,4.8913,4.8913,4.8913,4.8913,4.8913,4.8913,4.8913,4.8913,4.8913,4.8913,4.8913,4.8913,4.8913,4.8913,4.8913,4.8913,4.8913,4.8913,4.8913,4.8815,4.8066,4.7793,4.7656,4.6641,4.6308,4.625,4.5996,4.5605,4.5254,4.5254,4.4648,4.4023,4.4316,4.4062,4.3711,4.3711,4.3711,4.3711,4.3711,4.3711,4.3633,4.3359,4.3301,4.3223,4.293,4.285,4.2832,4.2676,4.2519,4.2382,4.2382,4.1973,4.1621,4.1621,4.1484,4.1387,4.1387,4.1308,4.1269,4.1387,4.1387,4.1582,4.1992,4.2168,4.2383,4.2656,4.2365,4.2371,4.2637,4.2231,4.2211,4.2598,4.1053,4.0359,4.0498,3.7986,3.6972,4.9272,5.0744,5.22,5.3093,5.2391,5.1475,5.1321,4.9324,4.7324,4.6753,4.5371,4.416,4.4062,4.3808,4.416,4.584,4.6582,4.7402,4.8698,4.819,4.7617,4.7558,4.6855,4.6543,4.685,4.6928,4.7344,4.8183,4.8659,4.8913,4.8913,4.8933,4.8933,4.8913,4.8913,4.8913,4.8913,4.8913,4.8913,4.8913,4.8913,4.8913,4.8913,4.8913,4.8913,4.8913,4.8913,4.8913,4.8913,4.8913,4.8913,4.8913,4.8913,4.8913,4.8855,4.8359,4.8203,4.8027,4.6777,4.6328,4.6328,4.6308,4.6016,4.5683,4.5703,4.5117,4.4433,4.4453,4.4141,4.3769,4.375,4.375,4.3769,4.375,4.375,4.3769,4.3769,4.3769,4.3769,4.375,4.373,4.3574,4.3183,4.2754,4.2381,4.232,4.236,4.2421,4.2382,4.207,4.1836,4.1836,4.1484,4.1406,4.1797,4.1836,4.2012,4.2401,4.2851,4.3045,4.2962,4.1508,4.0676,4.0583,3.8697,3.794,3.833,3.8195,3.8375,3.8748,3.6298,3.5106,5.0845,5.251,5.2981,5.2197,5.1836,5.1102,4.9056,4.7337,4.5664,4.3926,4.244,4.1016,3.9394,4.084,4.2539,4.3281,4.5664,4.7637,4.8281,4.8503,4.8229,4.7207,4.7461,4.7519,4.6928,4.75,4.8105,4.8698,4.8835,4.8913,4.8913,4.918,4.9199,4.8913,4.8913,4.8913,4.8913,4.8913,4.8913,4.8913,4.8913,4.8913,4.8913,4.8913,4.8913,4.8913,4.8913,4.8913,4.8913,4.8913,4.8913,4.8913,4.8913,4.8913,4.8855,4.8359,4.8203,4.8066,4.7065,4.6777,4.6719,4.6406,4.6016,4.5785,4.6055,4.5547,4.4922,4.5254,4.5039,4.4609,4.4297,4.4453,4.4609,4.4297,4.4453,4.4687,4.4687,4.4687,4.459,4.4277,4.3945,4.3672,4.3555,4.3203,4.2459,4.1059,4.2045,4.2793,4.2421,4.2304,4.2266,4.2266,4.2168,4.2148,4.2266,4.2266,4.2441,4.2891,4.3008,4.256,4.1371,4.0934,4.013,3.8925,3.8401,3.8346,3.8799,3.6972,3.6113,3.619,3.3732,3.263,5.1588,5.2637,5.2261,5.0504,4.9969,4.9195,4.6477,4.4883,4.3262,4.0703,3.916,3.7773,3.6172,3.8359,4.0703,4.1719,4.4766,4.7363,4.8359,4.8757,4.8718,4.8125,4.845,4.8672,4.8379,4.8789,4.918,4.9461,4.9258,4.9238,4.948,4.9492,4.9414,4.916,4.9011,4.8913,4.8913,4.8913,4.8913,4.8913,4.8913,4.8913,4.8913,4.8913,4.8913,4.8913,4.8913,4.8913,4.8913,4.8913,4.8913,4.8913,4.8913,4.8913,4.8874,4.8574,4.8496,4.8398,4.7715,4.7363,4.7109,4.6504,4.6152,4.5996,4.623,4.584,4.5371,4.5648,4.5371,4.4961,4.4726,4.4041,4.3367,4.314,4.242,4.1814,4.1814,4.1814,4.1705,4.1348,4.1075,4.1152,4.2053,4.1184,4.0317,4.0307,4.033,4.0237,3.9977,4.1555,4.2715,4.2715,4.1614,4.099,4.1178,4.0261,3.9923,4.0505,4.0541,4.022,3.9426,3.8565,3.7635,3.6731,3.5837,3.5514,3.5788,3.442,3.3732,3.3685,3.245,3.1864,5.1589,5.1702,5.0607,4.8604,4.7715,4.6641,4.4043,4.2324,4.043,3.7402,3.582,3.4687,3.3762,3.6147,3.8848,4.0741,4.3887,4.6777,4.864,4.8952,4.9101,4.9492,4.9523,4.9766,5.0137,5.0176,5.0195,5.0254,4.9902,4.9844,5.0156,4.9863,4.9601,4.9484,4.9141,4.8972,4.8913,4.8913,4.8913,4.8913,4.8913,4.8913,4.8913,4.8913,4.8913,4.8913,4.8913,4.8913,4.8913,4.8913,4.8913,4.8913,4.8913,4.8913,4.8913,4.8913,4.8913,4.8835,4.8359,4.7969,4.7519,4.666,4.6348,4.6308,4.6308,4.5817,4.5309,4.5309,4.476,4.4195,4.4138,4.2611,4.107,4.0972,3.9392,3.7874,3.7874,3.7841,3.771,3.7485,3.7403,3.7909,3.9649,3.8254,3.7481,3.9238,3.7997,3.6806,3.6503,3.9856,4.2267,4.2267,4.0125,3.8879,3.9271,3.7479,3.6629,3.7321,3.737,3.7342,3.7302,3.5637,3.4553,3.4321,3.2628,3.173,3.173,3.173,3.1791,3.1831,3.1998,3.2118,5.0287,4.9998,4.8604,4.7864,4.6836,4.5332,4.2734,4.0293,3.7699,3.4707,3.3359,3.2374,3.1094,3.3926,3.7266,3.9726,4.3008,4.6094,4.8561,4.918,4.9433,4.9465,4.9844,5.0098,5.0176,5.0176,5.0312,5.0664,5.0625,5.0469,5.0195,5.043,5.0254,4.9504,4.9453,4.9238,4.8913,4.8913,4.8913,4.8913,4.8913,4.8913,4.8913,4.8913,4.8913,4.8913,4.8913,4.8913,4.8913,4.8913,4.8913,4.8913,4.8913,4.8913,4.8913,4.8913,4.8913,4.8835,4.8359,4.8164,4.7949,4.709,4.6582,4.6308,4.6308,4.4832,4.3128,4.3128,4.1612,3.9948,3.9552,3.9436,3.9317,3.8909,3.8806,3.875,3.875,3.8474,3.8198,3.8132,3.7841,3.7744,3.8091,3.781,3.7015,3.5502,3.6571,3.6837,3.4891,3.6535,3.7887,3.7887,3.7452,3.7296,3.7681,3.7324,3.7244,3.7611,3.7644,3.6916,3.5289,3.4907,3.3932,3.2231,3.2116,3.2024,3.2024,3.2024,3.2158,3.2433,3.2198,3.2238,5.0295,4.9563,4.8047,4.7402,4.5937,4.373,4.0254,3.7617,3.4941,3.1465,3.0605,3.0156,2.9109,3.2246,3.5566,3.7266,4.0449,4.375,4.6821,4.7578,4.8359,4.9707,5.0234,5.0586,5.0801,5.082,5.0918,5.1113,5.1133,5.1035,5.084,5.082,5.041,4.9504,4.9484,4.9316,4.8913,4.8913,4.8913,4.8913,4.8913,4.8913,4.8913,4.8913,4.8913,4.8913,4.8913,4.8913,4.8913,4.8913,4.8913,4.8913,4.8913,4.8913,4.8913,4.8913,4.8913,4.8874,4.8613,4.8398,4.8144,4.7734,4.7305,4.6914,4.6699,4.4926,4.2892,4.2694,4.0853,3.8944,3.8717,3.7842,3.702,3.6818,3.5944,3.5199,3.5199,3.5033,3.4823,3.4645,3.4451,3.4652,3.572,3.4894,3.414,3.4171,3.414,3.3687,3.2577,3.3153,3.4586,3.6998,3.6163,3.5535,3.5647,3.4606,3.4036,3.4317,3.4347,3.3945,3.3177,3.3253,3.2902,3.1938,3.2233,3.238,3.238,3.238,3.246,3.2594,3.2607,3.2639,4.9942,4.9226,4.7988,4.7031,4.5098,4.2324,3.8125,3.5385,3.2667,2.907,2.8476,2.8476,2.7936,3.081,3.375,3.5273,3.8105,4.1406,4.5156,4.6269,4.7578,4.9902,5.0625,5.1074,5.1358,5.1377,5.1377,5.1377,5.1377,5.1377,5.1377,5.1113,5.0586,4.9824,4.966,4.9453,4.905,4.8952,4.8913,4.8913,4.8913,4.8913,4.8913,4.8913,4.8913,4.8913,4.8913,4.8913,4.8913,4.8913,4.8913,4.8913,4.8913,4.8913,4.8801,4.8273,4.8088,4.7976,4.7446,4.6987,4.6722,4.6676,4.6721,4.6716,4.6325,4.4076,4.1628,4.1242,3.9362,3.7436,3.7436,3.5974,3.4546,3.4546,3.3088,3.1711,3.1711,3.1711,3.1597,3.137,3.1316,3.1797,3.3401,3.2191,3.1604,3.3403,3.2144,3.0982,3.0982,3.0982,3.2375,3.6042,3.4668,3.3489,3.3561,3.1909,3.1009,3.1303,3.1383,3.1517,3.1757,3.2038,3.2198,3.2198,3.2541,3.2688,3.2688,3.2688,3.2728,3.2781,3.2955,3.3013,4.7637,4.8052,4.791,4.666,4.4433,4.1523,3.7653,3.4486,3.1612,2.8848,2.8054,2.7897,2.8184,2.9503,3.1747,3.5338,3.7539,4.0409,4.5062,4.7031,4.8574,5.0,5.0879,5.1338,5.1377,5.1377,5.1377,5.1377,5.1377,5.1377,5.1377,5.1338,5.1172,5.0703,5.0312,4.9902,4.9473,4.9062,4.8913,4.8913,4.8913,4.8913,4.8913,4.8913,4.8913,4.8913,4.8913,4.8913,4.8913,4.8913,4.8913,4.8913,4.8913,4.8913,4.8617,4.6242,4.5361,4.5031,4.272,4.1891,4.1809,4.1778,4.2818,4.4041,4.4005,4.0482,3.6461,3.643,3.4465,3.2361,3.2361,3.2219,3.2043,3.2043,3.1853,3.1711,3.1711,3.1711,3.1711,3.1684,3.1623,3.1705,3.1914,3.1773,3.1678,3.1914,3.1725,3.1631,3.1631,3.1631,3.1773,3.2184,3.1568,3.1212,3.1482,3.1276,3.1316,3.161,3.1877,3.2038,3.2064,3.2393,3.2554,3.2554,3.2835,3.2933,3.2933,3.2933,3.308,3.332,3.3093,3.312,4.7062,4.7109,4.7129,4.5859,4.3594,4.0664,3.6777,3.3574,3.0771,2.8425,2.7604,2.7402,2.7858,2.875,3.0264,3.2859,3.4101,3.6226,4.041,4.25,4.4648,4.75,4.9043,5.0293,5.128,5.1377,5.1377,5.1377,5.1377,5.1377,5.1377,5.1377,5.123,5.082,5.0644,5.0215,4.9484,4.9355,4.9121,4.8913,4.8913,4.8913,4.8913,4.8913,4.8913,4.8913,4.8913,4.8913,4.8913,4.8913,4.7976,4.6523,4.6523,4.5614,4.4134,4.3119,4.272,4.2577,4.1572,4.1187,4.1187,4.1139,4.0558,4.0089,4.139,3.9289,3.6373,3.5936,3.3927,3.1891,3.1764,3.1711,3.1711,3.1711,3.1711,3.1711,3.1711,3.1711,3.1711,3.1711,3.1711,3.1711,3.1711,3.1711,3.1711,3.1711,3.1711,3.1711,3.1711,3.1711,3.1744,3.1904,3.157,3.137,3.149,3.165,3.1797,3.1917,3.2211,3.242,3.242,3.2701,3.2848,3.2848,3.3093,3.324,3.324,3.324,3.3293,3.3414,3.3293,3.3293,4.6089,4.6133,4.6289,4.5117,4.2793,3.9844,3.6211,3.3066,3.0302,2.8132,2.7448,2.7305,2.7643,2.8359,2.9425,3.1074,3.2012,3.3887,3.7718,3.9805,4.2207,4.5703,4.7402,4.8926,5.0508,5.1133,5.1377,5.1377,5.1377,5.1377,5.1377,5.1377,5.124,5.0996,5.0859,5.0449,4.9726,4.959,4.9297,4.8913,4.8913,4.8913,4.8913,4.8913,4.8459,4.7744,4.7744,4.7307,4.6635,4.6635,4.552,4.3879,4.3879,4.2768,4.1091,4.0319,4.0029,3.9932,3.9156,3.888,3.888,3.888,3.7674,3.6416,3.7921,3.7154,3.5662,3.5116,3.3663,3.2185,3.2032,3.1979,3.1979,3.1979,3.1912,3.1845,3.1845,3.1778,3.1711,3.1711,3.1711,3.1711,3.1711,3.1711,3.1711,3.1711,3.1711,3.1711,3.1711,3.1711,3.1784,3.2064,3.1917,3.1885,3.1965,3.2038,3.2144,3.2225,3.2554,3.2728,3.2728,3.3009,3.3106,3.3106,3.3307,3.3414,3.3414,3.3414,3.3414,3.3414,3.3414,3.3414,4.4263,4.5039,4.5488,4.4629,4.2148,3.9121,3.6094,3.3066,3.0302,2.8132,2.7682,2.7682,2.7702,2.8359,2.9355,3.0684,3.2305,3.4766,3.8633,4.0684,4.2754,4.5371,4.6426,4.7461,4.8796,5.043,5.1377,5.1377,5.1377,5.1377,5.1377,5.1377,5.1377,5.1377,5.1016,5.0605,5.0176,4.9746,4.9297,4.8913,4.8913,4.8913,4.8913,4.8913,4.7493,4.5031,4.5031,4.3594,4.1283,4.1283,4.1235,4.1235,4.1235,4.1235,4.0898,3.8295,3.7331,3.6987,3.4386,3.3464,3.3464,3.3464,3.3464,3.3464,3.345,3.325,3.3022,3.3022,3.2808,3.2594,3.2581,3.2581,3.2581,3.2581,3.2367,3.2104,3.2104,3.1877,3.1711,3.1711,3.1711,3.1711,3.1711,3.1711,3.1711,3.1711,3.1711,3.1711,3.1711,3.1711,3.1784,3.2064,3.2104,3.2211,3.2567,3.2265,3.2225,3.2567,3.2862,3.2973,3.2973,3.3253,3.3414,3.3414,3.3414,3.3414,3.3414,3.3414,3.3414,3.3414,3.3414,3.3414,4.1218,4.1388,4.1308,3.9551,3.8184,3.6543,3.384,3.1788,2.998,2.8445,2.7897,2.778,2.8073,2.832,2.9492,3.2609,3.3516,3.5019,3.832,4.0762,4.2871,4.459,4.7891,5.0128,5.0586,5.1113,5.1377,5.1377,5.1377,5.1377,5.1377,5.1377,5.1377,5.1377,5.1308,5.1035,5.0605,5.0176,4.9746,4.9316,4.7206,4.6242,4.6195,4.4418,4.3214,4.2386,4.2386,4.1955,4.1187,4.1156,4.0094,3.8539,3.8505,3.7444,3.5783,3.4969,3.4621,3.4521,3.37,3.3414,3.3414,3.3414,3.3414,3.3414,3.3414,3.3347,3.324,3.3026,3.2822,3.2594,3.2594,3.2594,3.2594,3.2594,3.2527,3.246,3.246,3.2219,3.1971,3.1971,3.181,3.1711,3.1711,3.1711,3.1711,3.1711,3.1711,3.1791,3.1944,3.1971,3.2158,3.2652,3.2567,3.2487,3.2581,3.2688,3.2746,3.2888,3.312,3.328,3.328,3.336,3.3414,3.3414,3.3414,3.3414,3.3414,3.3414,3.3414,3.3414,3.3414,3.3414,3.8387,3.8567,3.8359,3.7047,3.5976,3.4746,3.2667,3.1045,2.9676,2.8516,2.8112,2.8015,2.8242,2.8418,2.9375,3.1983,3.3098,3.4648,3.7711,4.0312,4.2793,4.5078,4.8379,5.0586,5.0918,5.125,5.1455,5.166,5.1475,5.1377,5.1377,5.1377,5.1377,5.1377,5.1377,5.123,5.0801,5.0547,4.9624,4.8064,4.6169,4.4655,4.3499,4.1907,4.0657,3.9739,3.9739,3.9172,0.0,3.8212,3.7247,3.5833,3.5847,3.4834,3.3414,3.3414,3.3414,3.3414,3.3414,3.3414,3.3414,3.3414,3.3414,3.3414,3.3414,3.3414,3.3374,3.3187,3.3013,3.2929,3.2929,3.2929,3.2929,3.2929,3.2835,3.2755,3.2755,3.2527,3.2265,3.2265,3.2166,3.2045,3.2045,3.2045,3.2045,3.2045,3.2045,3.2112,3.2251,3.2265,3.2452,3.2933,3.2862,3.2808,3.2915,3.2933,3.3026,3.3133,3.3307,3.3414,3.3414,3.3414,3.3414,3.3414,3.3414,3.3414,3.3414,3.3414,3.3414,3.3414,3.3414,3.3414,0.0,3.6219,3.6269,3.6089,3.4877,3.3371,3.2159,3.0634,0.0,2.8379,2.8223,2.8281,2.8398,2.8691,2.916,2.9931,3.1768,3.4121,3.7109,3.9863,4.2969,4.6674,4.8301,4.9461,5.0234,5.1016,5.1641,5.2051,5.168,5.1377,5.1377,5.1377,5.1377,5.1377,5.1231,5.1037,5.0859,5.082,4.911,4.5754,4.5526,4.384,4.0868,4.0755,3.9333,3.7036,3.7036,3.5635,3.3414,3.3414,3.3414,3.3414,3.3414,3.3414,3.3414,3.3414,3.3414,3.3414,3.3414,3.3414,3.3414,3.3414,3.3414,3.3414,3.3414,3.3414,3.3414,3.3414,3.3414,3.3414,3.3414,3.3414,3.3414,3.3414,3.32,3.3013,3.3013,3.2835,3.2621,3.2621,3.2607,3.2594,3.2594,3.2594,3.2594,3.2594,3.2594,3.2607,3.2621,3.2621,3.2741,3.2973,3.3013,3.312,3.3387,3.316,3.312,3.3387,3.3414,3.3414,3.3414,3.3414,3.3414,3.3414,3.3414,3.3414,3.3414,3.3414,3.3414,3.3414,3.3414,3.3414,3.1387,0.0,3.2186,3.0303,2.9755,2.9492,0.0,2.8425,2.7995,2.7422,2.7578,2.823,2.9512,2.9297,3.0108,3.3887,3.5215,3.6699,3.9394,4.3125,4.6523,4.9121,5.0547,5.1406,5.1621,5.1816,5.1973,5.207,5.168,5.1377,5.1377,5.1377,5.1377,5.1377,4.9414,4.9309,5.124,5.0957,4.9347,4.6451,4.4131,4.144,3.8413,3.652,3.5157,3.4336,3.4336,3.4,3.3414,3.3414,3.3414,3.3414,3.3414,3.3414,3.3414,3.3414,3.3414,3.3414,3.3414,3.3414,3.3414,3.3414,3.3414,3.3414,3.3414,3.3414,3.3414,3.3414,3.3414,3.3414,3.3414,3.3414,3.3414,3.3414,3.336,3.3307,3.3307,3.308,3.2929,3.2929,3.2741,3.2594,3.2594,3.2594,3.2594,3.2594,3.2594,3.2674,3.2902,3.2929,3.2986,3.328,3.3307,3.3334,3.34,3.3347,3.3334,3.3414,3.3414,3.3414,3.3414,3.3414,3.3414,3.3414,3.3414,3.3414,3.3414,3.3414,3.3414,3.3414,3.3414,3.3414,2.8427,2.9698,3.0949,2.953,2.9188,2.9101,2.8906,2.8086,2.7305,2.707,2.7363,2.8034,2.9121,2.959,3.0859,3.4023,3.5898,3.8418,4.2598,4.6035,4.8723,5.0547,5.1367,5.1855,5.207,5.1894,5.1875,5.207,5.168,5.0871,4.961,4.9561,4.9002,4.773,4.6252,4.6818,4.9561,4.8122,4.5914,4.3073,4.1443,3.9008,3.5898,3.4527,3.3708,3.3414,3.3414,3.3414,3.3414,3.3414,3.3414,3.3414,3.3414,3.3414,3.3414,3.3414,3.3414,3.3414,3.3414,3.3414,3.3414,3.3414,3.3414,3.3414,3.3414,3.3414,3.3414,3.3414,3.3414,3.3414,3.3414,3.3414,3.3414,3.3414,3.3414,3.3414,3.3414,3.3293,3.3173,3.3173,3.3053,3.2995,3.2995,3.2995,3.2995,3.2995,3.2995,3.3,3.316,3.3173,3.324,3.3387,3.3414,3.3414,3.3414,3.3414,3.3414,3.3414,3.3414,3.3414,3.3414,3.3414,3.3414,3.3414,3.3414,3.3414,3.3414,3.3414,3.3414,3.3414,3.3414,3.3494,2.6985,2.8952,3.1208,3.0401,3.0098,2.9961,2.9757,2.8293,2.7006,2.709,2.7461,2.8073,2.9004,3.0391,3.1934,3.3613,3.6289,4.0117,4.5723,4.8183,4.9902,5.1143,5.1445,5.168,5.2051,5.1738,5.168,5.2051,5.168,5.0217,4.7532,4.7383,4.6153,4.3369,4.2863,4.3741,4.6065,4.4245,4.1802,3.8902,3.8902,3.7163,3.3948,3.3948,3.3761,3.3414,3.3414,0.0,3.3414,3.3414,3.3414,3.3414,3.3414,3.3414,3.3414,3.3414,3.3414,3.3414,3.3414,3.3414,3.3414,3.3414,3.3414,3.3414,3.3414,3.3414,3.3414,3.3414,3.3414,3.3414,3.3414,3.3414,3.3414,3.3414,3.3414,3.3414,3.3414,3.3414,3.3414,3.3414,3.3414,3.3414,3.3414,3.3414,3.3414,3.3414,3.3414,3.3414,3.3414,3.3414,3.3414,3.3414,3.3414,3.3414,3.3414,3.3414,3.3414,3.3414,3.3414,3.3414,3.3414,3.3414,3.3414,3.3414,3.3414,3.3414,3.3414,3.3414,3.3414,3.3414,3.3467,3.3627,2.87,3.0512,3.1454,2.7963,2.8105,2.8801,2.7728,2.7246,2.7129,2.7506,2.7936,2.9219,3.2609,3.343,3.4759,3.8242,4.0703,4.3398,4.6894,4.8346,4.9453,5.0742,5.1543,5.2012,5.207,5.2031,5.2012,5.207,5.168,5.0217,4.7532,4.7383,4.6153,4.3369,4.0811,3.9704,4.0111,4.2259,4.193,3.9195,3.9195,3.7495,3.4255,3.4255,3.3948,3.3414,0.0,3.3414,3.3414,3.3414,3.3414,3.3414,3.3414,3.3414,3.3414,3.3414,3.3414,3.3414,3.3414,3.3414,3.3414,3.3414,3.3414,3.3414,3.3414,3.3414,3.3414,3.3414,3.3414,3.3414,3.3414,3.3414,3.3414,3.3414,3.3414,3.3414,3.3414,3.3414,3.3414,3.3414,3.3414,3.3414,3.3414,3.3414,3.3414,3.3414,3.3414,3.3414,3.3414,3.3414,3.3414,3.3414,3.3414,3.3414,3.3414,3.3414,3.3414,3.3414,3.3414,3.3414,3.3414,3.3414,3.3414,3.3414,3.3414,3.3414,3.3414,3.3414,3.3414,3.3414,3.3694,3.3841,2.6754,2.8402,2.9939,2.8741,3.0449,3.2148,3.1074,3.0293,2.9863,3.0087,3.0458,3.1406,3.3684,3.5444,3.7887,4.1992,4.4258,4.6196,4.8053,4.9265,5.0215,5.1035,5.1484,5.1738,5.1738,5.1738,5.1112,4.9696,4.936,4.7415,4.3233,4.3014,4.1757,3.9011,3.7441,3.6627,3.6627,3.7841,3.7929,3.689,3.6669,3.5789,3.4322,3.4162,3.3841,3.3414,0.0,3.3414,3.3414,3.3414,3.3414,3.3414,3.3414,3.3414,3.3414,3.3414,3.3414,3.3414,3.3414,3.3414,3.3414,3.3414,3.3414,3.3414,3.3414,3.3414,3.3414,3.3414,3.3414,3.3414,3.3414,3.3414,3.3414,3.3414,3.3414,3.3414,3.3414,3.3414,3.3414,3.3414,3.3414,3.3414,3.3414,3.3414,3.3414,3.3414,3.3414,3.3414,3.3414,3.3414,3.3414,3.3414,3.3414,3.3414,3.3414,3.3414,3.3414,3.3414,3.3414,3.3414,3.3414,3.3414,3.3414,3.3414,3.3414,3.3414,3.3414,3.3414,3.3494,3.3668,3.3814,3.4055,2.5715,2.6992,2.8965,3.044,3.2645,3.4473,3.4427,3.341,3.2628,3.3156,3.3555,3.4141,3.5131,3.7946,4.1269,4.484,4.6914,4.8301,4.9109,5.0117,5.0957,5.1338,5.1377,5.1377,5.1377,5.1377,5.0266,4.7582,4.7383,4.5051,3.958,3.9247,3.7939,3.5202,3.475,3.4614,3.4614,3.4255,3.4295,3.4656,3.4429,3.4282,3.4215,3.3988,3.3708,3.3414,3.3414,3.3414,3.3414,3.3414,3.3414,3.3414,3.3414,3.3414,3.3414,3.3414,3.3414,3.3414,3.3414,3.3414,3.3414,3.3414,3.3414,3.3414,3.3414,3.3414,3.3414,3.3414,3.3414,3.3414,3.3414,3.3414,3.3414,3.3414,3.3414,3.3414,3.3414,3.3414,3.3414,3.3414,3.3414,3.3414,3.3414,3.3414,3.3414,3.3414,3.3414,3.3414,3.3414,3.3414,3.3414,3.3414,3.3414,3.3414,3.3414,3.3414,3.3414,3.3414,3.3414,3.3414,3.3414,3.3414,3.3414,3.3414,3.3414,3.3414,3.3414,3.3414,3.3574,3.3881,3.3961,3.4269,2.8473,2.9023,3.0009,3.209,3.2207,3.2402,3.4766,3.4277,3.3906,3.5971,3.668,3.7363,3.8594,4.1973,4.5058,4.6499,4.8216,4.9551,5.0019,5.0508,5.0957,5.1338,5.1377,5.1377,5.1377,5.1377,5.0266,4.7582,4.7383,4.5051,3.958,3.9037,3.7606,3.4894,3.4242,3.3948,3.3948,3.3627,3.3774,3.4349,3.4336,3.4175,3.3921,3.3895,3.3708,3.3414,3.3414,3.3414,3.3414,3.3414,3.3414,3.3414,3.3414,3.3414,3.3414,3.3414,3.3414,3.3414,3.3414,3.3414,3.3414,3.3414,3.3414,3.3414,3.3414,3.3414,3.3414,3.3414,3.3414,3.3414,3.3414,3.3414,3.3414,3.3414,3.3414,3.3414,3.3414,3.3414,3.3414,3.3414,3.3414,3.3414,3.3414,3.3414,3.3414,3.3414,3.3414,3.3414,3.3414,3.3414,3.3414,3.3414,3.3414,3.3414,3.3414,3.3414,3.3414,3.3414,3.3414,3.3414,3.3414,3.3414,3.3414,3.3414,3.3414,3.3414,3.3414,3.3414,3.3574,3.3895,3.4162,3.4456,2.6721,2.8034,3.0048,3.1964,3.3379,3.4752,3.6562,3.7386,3.8379,4.0273,4.082,4.1113,4.1855,4.3887,4.5762,4.6714,4.8613,5.0,5.0156,5.0762,5.06,4.9082,4.8903,4.8225,4.6502,4.6352,4.5234,4.2573,4.2369,4.0656,3.6706,3.6335,3.5731,3.4548,3.4095,3.3881,3.3881,3.3574,3.3521,3.3761,3.3761,3.3801,3.3881,3.3681,3.3521,3.3414,3.3414,3.3414,3.3414,3.3414,3.3414,3.3414,3.3414,3.3414,3.3414,3.3414,3.3414,3.3414,3.3414,3.3414,3.3414,3.3414,3.3414,3.3414,3.3414,3.3414,3.3414,3.3414,3.3414,3.3414,3.3414,3.3414,3.3414,3.3414,3.3414,3.3414,3.3414,3.3414,3.3414,3.3414,3.3414,3.3414,3.3414,3.3414,3.3414,3.3414,3.3414,3.3414,3.3414,3.3414,3.3414,3.3414,3.3414,3.3414,3.3414,3.3414,3.3414,3.3414,3.3414,3.3414,3.3414,3.3414,3.3414,3.3414,3.3414,3.3507,3.3708,3.3708,3.3961,3.4429,3.4549,3.475,2.6508,2.7917,3.0243,3.212,3.4199,3.6406,3.8633,4.0059,4.1484,4.3476,4.3574,4.3535,4.4375,4.5039,4.584,4.6953,4.8848,5.0176,5.0176,5.0898,5.0413,4.773,4.7325,4.6176,4.3456,4.3088,4.1929,3.9212,3.9007,3.7767,3.4785,3.4536,3.4337,3.4189,3.3895,3.3734,3.3734,3.3521,3.3414,3.3414,3.3414,3.3521,3.3734,3.3507,3.3414,3.3414,3.3414,3.3414,3.3414,3.3414,3.3414,3.3414,3.3414,3.3414,3.3414,3.3414,3.3414,3.3414,3.3414,3.3414,3.3414,3.3414,3.3414,3.3414,3.3414,3.3414,3.3414,3.3414,3.3414,3.3414,3.3414,3.3414,3.3414,3.3414,3.3414,3.3414,3.3414,3.3414,3.3414,3.3414,3.3414,3.3414,3.3414,3.3414,3.3414,3.3414,3.3414,3.3414,3.3414,3.3414,3.3414,3.3414,3.3414,3.3414,3.3414,3.3414,3.3414,3.3414,3.3414,3.3414,3.3414,3.3414,3.3414,3.3414,3.3414,3.3574,3.3881,3.3881,3.4189,3.4815,3.4815,3.4923,2.8661,2.9219,3.0723,3.2859,3.4453,3.6562,4.084,4.1816,4.2558,4.5156,4.4648,4.4258,4.5976,4.5625,4.5605,4.7305,4.9043,5.0176,5.0176,5.085,5.0364,4.7663,4.7072,4.577,4.3073,4.2493,4.1205,3.8535,3.8349,3.715,3.4463,3.4042,3.3881,3.3881,3.3574,3.3414,3.3414,3.3414,3.3414,3.3414,3.3414,3.3414,3.3414,3.3414,3.3414,3.3414,3.3414,3.3414,3.3414,3.3414,3.3414,3.3414,3.3414,3.3414,3.3414,3.3414,3.3414,3.3414,3.3414,3.3414,3.3414,3.3414,3.3414,3.3414,3.3414,3.3414,3.3414,3.3414,3.3414,3.3414,3.3414,3.3414,3.3414,3.3414,3.3414,3.3414,3.3414,3.3414,3.3414,3.3414,3.3414,3.3414,3.3414,3.3414,3.3414,3.3414,3.3414,3.3414,3.3414,3.3414,3.3414,3.3414,3.3414,3.3414,3.3414,3.3414,3.3414,3.3414,3.3414,3.3414,3.3414,3.3414,3.3414,3.3414,3.3414,3.3574,3.3895,3.3895,3.4202,3.4815,3.4815,3.4976,2.7473,2.9004,3.1562,3.3418,3.6914,4.0469,4.2637,4.3398,4.4355,4.6933,4.6914,4.6406,4.6328,4.6582,4.6894,4.709,4.8848,5.0078,4.9766,4.886,4.7105,4.4081,4.2078,3.983,3.7142,3.675,3.6351,3.5563,3.5512,3.5072,3.4079,3.3935,3.3788,3.3561,3.3454,3.3414,3.3414,3.3414,3.3414,3.3414,3.3414,3.3414,3.3414,3.3414,3.3414,3.3414,3.3414,3.3414,3.3414,3.3414,3.3414,3.3414,3.3414,3.3414,3.3414,3.3414,3.3414,3.3414,3.3414,3.3414,3.3414,3.3414,3.3414,3.3414,3.3414,3.3414,3.3414,3.3414,3.3414,3.3414,3.3414,3.3414,3.3414,3.3414,3.3414,3.3414,3.3414,3.3414,3.3414,3.3414,3.3414,3.3414,3.3414,3.3414,3.3414,3.3414,3.3414,3.3414,3.3414,3.3414,3.3414,3.3414,3.3414,3.3414,3.3414,3.3414,3.3414,3.3414,3.3414,3.3414,3.3414,3.3414,3.3414,3.3414,3.3627,3.3895,3.4189,3.4402,3.4696,3.507,3.507,3.511,2.9459,3.1328,3.3887,3.6323,3.9375,4.2402,4.4726,4.5586,4.6406,4.8105,4.7851,4.7324,4.7324,4.7324,4.7069,4.6288,4.8258,4.9494,4.8196,4.7236,4.5567,4.2558,3.985,3.7113,3.4391,3.4028,3.3961,3.3961,3.3961,3.3881,3.3708,3.3694,3.3614,3.3414,3.3414,3.3414,3.3414,3.3414,3.3414,3.3414,3.3414,3.3414,3.3414,3.3414,3.3414,3.3414,3.3414,3.3414,3.3414,3.3414,3.3414,3.3414,3.3414,3.3414,3.3414,3.3414,3.3414,3.3414,3.3414,3.3414,3.3414,3.3414,3.3414,3.3414,3.3414,3.3414,3.3414,3.3414,3.3414,3.3414,3.3414,3.3414,3.3414,3.3414,3.3414,3.3414,3.3414,3.3414,3.3414,3.3414,3.3414,3.3414,3.3414,3.3414,3.3414,3.3414,3.3414,3.3414,3.3414,3.3414,3.3414,3.3414,3.3414,3.3414,3.3414,3.3414,3.3414,3.3414,3.3414,3.3414,3.3414,3.3414,3.3414,3.3414,3.3721,3.4028,3.4322,3.4616,3.4962,3.5191,3.5191,3.5191,3.3058,3.4883,3.6836,4.0273,4.1699,4.3223,4.6875,4.7988,4.8379,4.8815,4.793,4.7461,4.8698,4.7709,4.6362,4.5197,4.7319,4.8233,4.5675,4.5646,4.4842,4.2097,3.9203,3.6528,3.4095,3.3574,3.3414,3.3414,3.3414,3.3414,3.3414,3.3414,3.3414,3.3414,3.3414,3.3414,3.3414,3.3414,3.3414,3.3414,3.3414,3.3414,3.3414,3.3414,3.3414,3.3414,3.3414,3.3414,3.3414,3.3414,3.3414,3.3414,3.3414,3.3414,3.3414,3.3414,3.3414,3.3414,3.3414,3.3414,3.3414,3.3414,3.3414,3.3414,3.3414,3.3414,3.3414,3.3414,3.3414,3.3414,3.3414,3.3414,3.3414,3.3414,3.3414,3.3414,3.3414,3.3414,3.3414,3.3414,3.3414,3.3414,3.3414,3.3414,3.3414,3.3414,3.3414,3.3414,3.3414,3.3414,3.3414,3.3414,3.3414,3.3414,3.3414,3.3414,3.3414,3.3414,3.3414,3.3414,3.3414,3.3414,3.3414,3.3414,3.3748,3.4055,3.4322,3.4643,3.4937,3.5191,3.5191,3.5191,3.1309,3.375,3.6758,3.9883,4.3262,4.6308,4.8209,4.8698,4.8796,4.8894,4.8679,4.8581,4.8855,4.6987,4.5303,4.5042,4.5819,4.5507,4.2556,4.2507,4.1668,3.8688,3.5976,3.4145,3.3557,3.3454,3.3414,3.3414,3.3414,3.3414,3.3414,3.3414,3.3414,3.3414,3.3414,3.3414,3.3414,3.3414,3.3414,3.3414,3.3414,3.3414,3.3414,3.3414,3.3414,3.3414,3.3414,3.3414,3.3414,3.3414,3.3414,3.3414,3.3414,3.3414,3.3414,3.3414,3.3414,3.3414,3.3414,3.3414,3.3414,3.3414,3.3414,3.3414,3.3414,3.3414,3.3414,3.3414,3.3414,3.3414,3.3414,3.3414,3.3414,3.3414,3.3414,3.3414,3.3414,3.3414,3.3414,3.3414,3.3414,3.3414,3.3414,3.3414,3.3414,3.3414,3.3414,3.3414,3.3414,3.3414,3.3414,3.3414,3.3414,3.3414,3.3414,3.3414,3.3414,3.3414,3.3414,3.3414,3.3414,3.3414,3.3414,3.3414,3.3948,3.4255,3.4322,3.4843,3.5137,3.5191,3.5191,3.5191,3.2031,3.4785,3.7874,4.1973,4.5137,4.7461,4.834,4.8757,4.8913,4.8913,4.7883,4.7008,4.7008,4.4937,4.2768,4.1524,4.2556,4.2576,3.9722,3.9524,3.9034,3.7493,3.5018,3.3414,3.3414,3.3414,3.3414,3.3414,3.3414,3.3414,3.3414,3.3414,3.3414,3.3414,3.3414,3.3414,3.3414,3.3414,3.3414,3.3414,3.3414,3.3414,3.3414,3.3414,3.3414,3.3414,3.3414,3.3414,3.3414,3.3414,3.3414,3.3414,3.3414,3.3414,3.3414,3.3414,3.3414,3.3414,3.3414,3.3414,3.3414,3.3414,3.3414,3.3414,3.3414,3.3414,3.3414,3.3414,3.3414,3.3414,3.3414,3.3414,3.3414,3.3414,3.3414,3.3414,3.3414,3.3414,3.3414,3.3414,3.3414,3.3414,3.3414,3.3414,3.3414,3.3414,3.3414,3.3414,3.3414,3.3414,3.3414,3.3414,3.3414,3.3414,3.3414,3.3414,3.3414,3.3414,3.3414,3.3414,3.3414,3.3414,3.3414,3.3414,3.4015,3.4322,3.4322,3.491,3.5191,3.5191,3.5191,3.5191,3.2578,3.582,3.9277,4.4394,4.6523,4.75,4.7988,4.8379,4.8679,4.8679,4.6728,4.4984,4.4984,4.2529,3.9836,3.7674,3.9123,3.9593,3.6987,3.7036,3.7134,3.6657,3.472,3.3414,3.3414,3.3414,3.3414,3.3414,3.3414,3.3414,3.3414,3.3414,3.3414,3.3414,3.3414,3.3414,3.3414,3.3414,3.3414,3.3414,3.3414,3.3414,3.3414,3.3414,3.3414,3.3414,3.3414,3.3414,3.3414,3.3414,3.3414,3.3414,3.3414,3.3414,3.3414,3.3414,3.3414,3.3414,3.3414,3.3414,3.3414,3.3414,3.3414,3.3414,3.3414,3.3414,3.3414,3.3414,3.3414,3.3414,3.3414,3.3414,3.3414,3.3414,3.3414,3.3414,3.3414,3.3414,3.3414,3.3414,3.3414,3.3414,3.3414,3.3414,3.3414,3.3414,3.3414,3.3414,3.3414,3.3414,3.3414,3.3414,3.3414,3.3414,3.3414,3.3414,3.3414,3.3414,3.3414,3.3414,3.3414,3.3414,3.3414,3.3414,3.4015,3.4322,3.4322,3.491,3.5191,3.5191,3.5191,3.5191,2.9191,3.4004,3.9648,4.4515,4.6074,4.668,4.748,4.7715,4.7754,4.7754,4.6269,4.4984,4.4984,4.1091,3.7723,3.738,3.7576,3.6889,3.4286,3.5882,3.646,3.4186,3.36,3.3414,3.3414,3.3414,3.3414,3.3414,3.3414,3.3414,3.3414,3.3414,3.3414,3.3414,3.3414,3.3414,3.3414,3.3414,3.3414,3.3414,3.3414,3.3414,3.3414,3.3414,3.3414,3.3414,3.3414,3.3414,3.3414,3.3414,3.3414,3.3414,3.3414,3.3414,3.3414,3.3414,3.3414,3.3414,3.3414,3.3414,3.3414,3.3414,3.3414,3.3414,3.3414,3.3414,3.3414,3.3414,3.3414,3.3414,3.3414,3.3414,3.3414,3.3414,3.3414,3.3414,3.3414,3.3414,3.3414,3.3414,3.3414,3.3414,3.3414,3.3414,3.3414,3.3414,3.3414,3.3414,3.3414,3.3414,3.3414,3.3414,3.3414,3.3414,3.3414,3.3414,3.3414,3.3414,3.3414,3.3414,3.3414,3.3414,3.3414,3.3414,3.4015,3.4322,3.4322,3.491,3.5191,3.5191,3.5191,3.5191,3.0957,3.5117,3.9238,4.3496,4.5273,4.6113,4.6719,4.6158,4.5539,4.5539,4.2674,4.0642,4.2171,3.8448,3.5104,3.5104,3.5104,3.472,3.3564,3.4386,3.467,3.3564,3.3414,3.3414,3.3414,3.3414,3.3414,3.3414,3.3253,3.3173,3.3173,3.3173,3.3173,3.3173,3.332,3.3414,3.3414,3.3253,3.3093,3.2933,3.2933,3.2933,3.2933,3.2933,3.3106,3.3414,3.3414,3.3414,3.3414,3.3414,3.3414,3.3414,3.3414,3.3414,3.3414,3.3414,3.3414,3.3414,3.3414,3.3414,3.3414,3.3414,3.3414,3.3414,3.3414,3.3414,3.3414,3.3414,3.3414,3.3414,3.3414,3.3414,3.3414,3.3414,3.3414,3.3414,3.3414,3.3414,3.3414,3.3414,3.3414,3.3414,3.3414,3.3414,3.3414,3.3414,3.3414,3.3414,3.3414,3.3414,3.3414,3.3414,3.3414,3.3414,3.3414,3.3414,3.3414,3.3414,3.3414,3.3414,3.3414,3.3414,3.3414,3.3414,3.4015,3.4322,3.4322,3.491,3.5191,3.5191,3.5191,3.5191,3.1543,3.4648,3.7148,4.1348,4.3476,4.4808,4.5625,4.4503,4.328,4.3388,3.9599,3.687,3.8957,3.6017,3.332,3.34,3.3347,3.3334,3.34,3.328,3.3213,3.3293,3.324,3.3187,3.3187,3.3187,3.3187,3.3187,3.2986,3.2915,3.2915,3.2915,3.2915,3.2915,3.308,3.3187,3.3187,3.2973,3.2808,3.2594,3.2594,3.2594,3.2594,3.2594,3.2835,3.3187,3.3187,3.3187,3.32,3.3267,3.3307,3.3307,3.3387,3.3414,3.3414,3.3414,3.3414,3.3414,3.3414,3.3414,3.3414,3.3414,3.3414,3.3414,3.3414,3.3414,3.3414,3.3414,3.3414,3.3414,3.3414,3.3414,3.3414,3.3414,3.3414,3.3414,3.3414,3.3414,3.3414,3.3414,3.3414,3.3414,3.3414,3.3414,3.3414,3.3414,3.3414,3.3414,3.3414,3.3414,3.3414,3.3414,3.3414,3.3414,3.3414,3.3414,3.3414,3.3414,3.3414,3.3414,3.3414,3.3414,3.3414,3.3414,3.4015,3.4322,3.4322,3.491,3.5191,3.5191,3.5191,3.5191,2.8001,3.0215,3.248,3.7614,4.0175,4.1953,4.4023,4.2978,4.1658,4.2018,3.8755,3.5847,3.6003,3.442,3.3093,3.3374,3.3187,3.3093,3.3374,3.2933,3.2741,3.2973,3.2808,3.2634,3.2634,3.2634,3.2634,3.2634,3.2621,3.2621,3.2621,3.2621,3.2621,3.2621,3.2634,3.2634,3.2634,3.2621,3.2607,3.2594,3.2594,3.2594,3.2594,3.2594,3.2607,3.2634,3.2634,3.2634,3.2661,3.2942,3.3,3.3026,3.3307,3.3414,3.3414,3.3414,3.3414,3.3414,3.3414,3.3414,3.3414,3.3414,3.3414,3.3414,3.3414,3.3414,3.3414,3.3414,3.3414,3.3414,3.3414,3.3414,3.3414,3.3414,3.3414,3.3414,3.3414,3.3414,3.3414,3.3414,3.3414,3.3414,3.3414,3.3414,3.3414,3.3414,3.3414,3.3414,3.3414,3.3414,3.3414,3.3414,3.3414,3.3414,3.3414,3.3414,3.3414,3.3414,3.3414,3.3414,3.3414,3.3414,3.3414,3.3414,3.4015,3.4322,3.4322,3.491,3.5191,3.5191,3.5191,3.5191,2.6836,2.8633,3.0664,3.5,3.6751,3.8214,4.1209,3.9168,3.7078,3.8663,3.5729,3.2924,3.3133,3.292,3.2781,3.2888,3.2822,3.2781,3.2888,3.2728,3.2634,3.2741,3.2661,3.2594,3.2594,3.2594,3.2594,3.2594,3.242,3.2265,3.2265,3.2265,3.2265,3.2265,3.25,3.25,3.2265,3.2265,3.2171,3.2032,3.2032,3.2032,3.2032,3.2032,3.2032,3.2032,3.2032,3.2246,3.2621,3.2915,3.2973,3.3013,3.3293,3.3414,3.3414,3.3414,3.3414,3.3414,3.3414,3.3414,3.3414,3.3414,3.3414,3.3414,3.3414,3.3414,3.3414,3.3414,3.3414,3.3414,3.3414,3.3414,3.3414,3.3414,3.3414,3.3414,3.3414,3.3414,3.3414,3.3414,3.3414,3.3414,3.3414,3.3414,3.3414,3.3414,3.3414,3.3414,3.3414,3.3414,3.3414,3.3414,3.3414,3.3414,3.3414,3.3414,3.3414,3.3414,3.3414,3.3414,3.3414,3.3414,3.3507,3.3708,3.4108,3.4322,3.4322,3.491,3.5191,3.5191,3.5191,3.5191,2.5176,2.6758,2.8781,3.2851,3.3951,3.4978,3.8671,3.6354,3.3882,3.5478,3.3228,3.1022,3.1316,3.1738,3.2139,3.2527,3.2514,3.2474,3.2581,3.242,3.234,3.2433,3.2353,3.23,3.23,3.23,3.23,3.23,3.2064,3.1957,3.1957,3.1957,3.1957,3.1957,3.2193,3.2206,3.1957,3.1957,3.1864,3.1711,3.1711,3.1711,3.1711,3.1711,3.1764,3.181,3.1764,3.1938,3.2326,3.2607,3.2746,3.2915,3.3146,3.332,3.3414,3.3414,3.3414,3.3414,3.3414,3.3414,3.3414,3.3414,3.3414,3.3414,3.3414,3.3414,3.3414,3.3414,3.3414,3.3414,3.3414,3.3414,3.3414,3.3414,3.3414,3.3414,3.3414,3.3414,3.3414,3.3414,3.3414,3.3414,3.3414,3.3414,3.3414,3.3414,3.3414,3.3414,3.3414,3.3414,3.3414,3.3414,3.3414,3.3414,3.3414,3.3414,3.3414,3.3414,3.3414,3.3414,3.3414,3.3414,3.3561,3.3881,3.4175,3.4362,3.4469,3.4963,3.5191,3.5191,3.5191,3.5191,0.0,0.0,0.0,3.0947,3.165,3.2356,3.6402,3.4603,3.2245,3.2762,3.1511,3.0413,3.0702,3.0768,3.1156,3.2353,3.2251,3.2185,3.2527,3.2072,3.1818,3.2051,3.1837,3.1711,3.1711,3.1711,3.1711,3.1711,3.1711,3.1711,3.1711,3.1711,3.1711,3.1711,3.1711,3.1711,3.1711,3.1711,3.1711,3.1711,3.1711,3.1711,3.1711,3.1711,3.1824,3.2078,3.1797,3.1711,3.1738,3.1984,3.2291,3.2621,3.2929,3.316,3.3414,3.3414,3.3414,3.3414,3.3414,3.3414,3.3414,3.3414,3.3414,3.3414,3.3414,3.3414,3.3414,3.3414,3.3414,3.3414,3.3414,3.3414,3.3414,3.3414,3.3414,3.3414,3.3414,3.3414,3.3414,3.3414,3.3414,3.3414,3.3414,3.3414,3.3414,3.3414,3.3414,3.3414,3.3414,3.3414,3.3414,3.3414,3.3414,3.3414,3.3414,3.3414,3.3414,3.3414,3.3414,3.3414,3.3414,3.3414,3.3574,3.3895,3.4189,3.4482,3.4829,3.5057,3.5191,3.5191,3.5191,3.5191,2.2715,0.0,0.0,0.0,0.0,0.0,3.2182,3.0003,2.8155,3.185,3.0246,2.858,2.99,3.0341,3.0694,3.1196,3.1383,3.157,3.1912,3.1818,3.1751,3.1784,3.1764,3.1711,3.1711,3.1711,3.1711,3.1711,3.1711,3.1711,3.1711,3.1711,3.1711,3.1711,3.1711,3.1711,3.1711,3.1711,3.1711,3.1711,3.1711,3.1711,3.1711,3.1711,3.1764,3.1831,3.1751,3.1711,3.1751,3.226,3.2527,3.2648,3.3093,3.3334,3.3414,3.3414,3.3414,3.3414,3.3414,3.3414,3.3414,3.3414,3.3414,3.3414,3.3414,3.3414,3.3414,3.3414,3.3414,3.3414,3.3414,3.3414,3.3414,3.3414,3.3414,3.3414,3.3414,3.3414,3.3414,3.3414,3.3414,3.3414,3.3414,3.3414,3.3414,3.3414,3.3414,3.3414,3.3414,3.3414,3.3414,3.3414,3.3414,3.3414,3.3414,3.3414,3.3414,3.3414,3.3414,3.3414,3.3414,3.3627,3.3895,3.4189,3.4496,3.479,3.5084,3.5151,3.5191,3.5191,3.5191,3.5191,0.0,0.0,2.5269,2.6646,0.0,0.0,2.944,2.7683,2.6147,2.9154,2.8344,2.7468,2.8751,2.9339,2.9726,3.002,3.0408,3.0822,3.1249,3.1303,3.1303,3.1303,3.1303,3.1303,3.1303,3.1303,3.1303,3.1303,3.1303,3.1356,3.1476,3.1597,3.1711,3.1711,3.1711,3.1711,3.1711,3.1711,3.1711,3.1711,3.1711,3.1711,3.1711,3.1711,3.1778,3.1837,3.1764,3.1744,3.1877,3.2273,3.2487,3.2621,3.2919,3.32,3.3414,3.3414,3.3414,3.3414,3.3414,3.3414,3.3414,3.3414,3.3414,3.3414,3.3414,3.3414,3.3414,3.3414,3.3414,3.3414,3.3414,3.3414,3.3414,3.3414,3.3414,3.3414,3.3414,3.3414,3.3414,3.3414,3.3414,3.3414,3.3414,3.3414,3.3414,3.3414,3.3414,3.3414,3.3414,3.3414,3.3414,3.3414,3.3414,3.3414,3.3414,3.3414,3.3414,3.3414,3.3414,3.3467,3.3601,3.3788,3.4082,3.4496,3.467,3.491,3.5191,3.5191,3.5191,3.5191,3.5191,3.5191,0.0,0.0,0.0,0.0,2.7715,0.0,2.788,2.6917,2.5797,2.6078,2.6235,2.6596,2.7351,2.7832,2.8257,2.8508,2.9161,2.9927,3.0648,3.0768,3.0795,3.0795,3.0795,3.0795,3.0795,3.0795,3.0795,3.0795,3.0795,3.0902,3.1122,3.1423,3.1617,3.1617,3.1617,3.1583,3.1623,3.1623,3.1684,3.1711,3.1711,3.1711,3.1711,3.1711,3.181,3.2038,3.1784,3.1824,3.2051,3.2051,3.2225,3.2554,3.2621,3.2955,3.3374,3.34,3.3414,3.3414,3.3414,3.3414,3.3414,3.3414,3.3414,3.3414,3.3414,3.3414,3.3414,3.3414,3.3414,3.3414,3.3414,3.3414,3.3414,3.3414,3.3414,3.3414,3.3414,3.3414,3.3414,3.3414,3.3414,3.3414,3.3414,3.3414,3.3414,3.3414,3.3414,3.3414,3.3414,3.3414,3.3414,3.3414,3.3414,3.3414,3.3414,3.3414,3.3414,3.3414,3.3414,3.3534,3.3828,3.3895,3.4189,3.471,3.4829,3.4937,3.5191,3.5191,3.5191,3.5191,3.5191,3.5191,2.6934,0.0,0.0,2.7226,2.8184,0.0,2.7187,2.6618,2.6551,2.6741,2.5056,2.4046,2.5848,2.5731,2.5504,2.5812,2.7134,2.8671,3.0279,3.0648,3.0795,3.0795,3.0795,3.0795,3.0795,3.0795,3.0795,3.0795,3.0795,3.0822,3.0875,3.0929,3.0969,3.0969,3.0969,3.1076,3.1316,3.1316,3.1436,3.1711,3.1711,3.1711,3.1711,3.1711,3.1751,3.1805,3.1738,3.1751,3.1805,3.1805,3.1931,3.2238,3.2706,3.3009,3.3093,3.332,3.3414,3.3414,3.3414,3.3414,3.3414,3.3414,3.3414,3.3414,3.3414,3.3414,3.3414,3.3414,3.3414,3.3414,3.3414,3.3414,3.3414,3.3414,3.3414,3.3414,3.3414,3.3414,3.3414,3.3414,3.3414,3.3414,3.3414,3.3414,3.3414,3.3414,3.3414,3.3414,3.3414,3.3414,3.3414,3.3414,3.3414,3.3414,3.3414,3.3414,3.3414,3.3414,3.3414,3.344,3.3507,3.3975,3.4282,3.4402,3.487,3.5137,3.5191,3.5191,3.5191,3.5191,3.5191,3.5191,2.875,2.875,2.9199,2.8984,2.8945,0.0,0.0,2.671,2.5849,2.586,2.4178,2.3037,2.4152,2.4034,2.3901,2.4392,2.5905,2.7255,2.7856,2.9085,2.9913,2.9913,2.9913,2.998,3.0127,3.014,3.0194,3.0341,3.0488,3.0627,3.0627,3.0715,3.0795,3.0795,3.0795,3.0862,3.1009,3.1156,3.1303,3.145,3.1597,3.1711,3.1711,3.1711,3.1711,3.1711,3.1711,3.1805,3.1891,3.1891,3.2064,3.2407,3.2701,3.2902,3.3013,3.3307,3.3414,3.3414,3.3414,3.3414,3.3414,3.3414,3.3414,3.3414,3.3414,3.3414,3.3414,3.3414,3.3414,3.3414,3.3414,3.3414,3.3414,3.3414,3.3414,3.3414,3.3414,3.3414,3.3414,3.3414,3.3414,3.3414,3.3414,3.3414,3.3414,3.3414,3.3414,3.3414,3.3414,3.3414,3.3414,3.3414,3.3414,3.3414,3.3414,3.3414,3.3414,3.3414,3.3414,3.348,3.3641,3.4082,3.4456,3.475,3.5044,3.5191,3.5191,3.5191,3.5191,3.5191,3.5191,3.5191,3.1123,3.0771,3.1064,3.1426,3.0391,2.9157,0.0,0.0,0.0,2.4766,2.3566,2.2671,2.2544,2.237,2.2385,2.288,2.4449,2.5438,2.4903,2.668,2.8094,2.8374,2.8601,2.8871,2.9112,2.9045,2.9192,2.9713,2.97,2.9878,3.0226,3.0408,3.0568,3.0621,3.0621,3.0648,3.0715,3.0942,3.1116,3.1176,3.1463,3.1657,3.1711,3.1711,3.1711,3.1711,3.1711,3.1797,3.2024,3.2024,3.2198,3.2527,3.2634,3.2822,3.3013,3.3307,3.3414,3.3414,3.3414,3.3414,3.3414,3.3414,3.3414,3.3414,3.3414,3.3414,3.3414,3.3414,3.3414,3.3414,3.3414,3.3414,3.3414,3.3414,3.3414,3.3414,3.3414,3.3414,3.3414,3.3414,3.3414,3.3414,3.3414,3.3414,3.3414,3.3414,3.3414,3.3414,3.3414,3.3414,3.3414,3.3414,3.3414,3.3414,3.3414,3.3414,3.3414,3.3414,3.3414,3.3534,3.3788,3.4135,3.4603,3.5191,3.5191,3.5191,3.5191,3.5191,3.5191,3.5191,3.5191,3.5191,3.4492,3.5013,3.5209,3.2246,3.3269,3.3686,2.8428,0.0,2.8584,2.4916,0.0,2.2366,2.1313,0.0,0.0,1.9883,2.155,2.2752,2.2432,2.3562,2.4887,2.6198,2.7215,2.7869,2.7896,2.7428,2.7641,2.8988,2.7949,2.7909,2.9499,2.9619,2.9753,3.0007,3.002,3.014,3.0453,3.0493,3.0715,3.1176,3.1263,3.141,3.1711,3.1711,3.1711,3.1711,3.1711,3.1738,3.1764,3.1764,3.1891,3.2211,3.2732,3.2946,3.3013,3.3307,3.3414,3.3414,3.3414,3.3414,3.3414,3.3414,3.3414,3.3414,3.3414,3.3414,3.3414,3.3414,3.3414,3.3414,3.3414,3.3414,3.3414,3.3414,3.3414,3.3414,3.3414,3.3414,3.3414,3.3414,3.3414,3.3414,3.3414,3.3414,3.3414,3.3414,3.3414,3.3414,3.3414,3.3414,3.3414,3.3414,3.3414,3.3414,3.3414,3.3414,3.3414,3.3414,3.3414,3.3427,3.3467,3.4015,3.4603,3.5191,3.5191,3.5191,3.5191,3.5191,3.5191,3.5191,3.5191,3.5191,3.5137,3.4351,3.3876,3.3191,3.2441,3.1425,2.9658,2.8984,2.818,2.6145,0.0,0.0,0.0,0.0,0.0,0.0,2.0521,2.1189,2.0592,2.1515,2.2966,2.4957,2.5331,2.5812,2.6841,2.672,2.7108,2.8417,2.7468,2.7455,2.8898,2.9299,2.9539,2.9659,2.9833,2.998,3.01,3.0319,3.0614,3.0982,3.1142,3.1383,3.1711,3.1711,3.1711,3.1711,3.1711,3.1805,3.1917,3.1917,3.2198,3.2639,3.2879,3.2973,3.3013,3.3307,3.3414,3.3414,3.3414,3.3414,3.3414,3.3414,3.3414,3.3414,3.3414,3.3414,3.3414,3.3414,3.3414,3.3414,3.3414,3.3414,3.3414,3.3414,3.3414,3.3414,3.3414,3.3414,3.3414,3.3414,3.3414,3.3414,3.3414,3.3414,3.3414,3.3414,3.3414,3.3414,3.3414,3.3414,3.3414,3.3414,3.3414,3.3414,3.3414,3.3414,3.3414,3.3414,3.3414,3.3574,3.3921,3.4189,3.4603,3.5191,3.5191,3.5191,3.5191,3.5191,3.5191,3.5191,3.5191,3.5191,3.5309,3.4225,3.3419,3.3796,3.2086,3.0297,3.02,2.9442,2.8391,2.7115,2.552,0.0,0.0,0.0,0.0,0.0,0.0,2.007,1.9267,1.9853,2.1149,2.3158,2.3554,2.4209,2.5651,2.5424,2.5877,2.7469,2.6507,2.6627,2.839,2.8928,2.9232,2.9472,2.9686,2.9833,2.9913,3.0127,3.0421,3.0795,3.1009,3.1303,3.1711,3.1711,3.1711,3.1711,3.1711,3.1784,3.1984,3.1984,3.2332,3.2915,3.2915,3.2959,3.312,3.3334,3.3414,3.3414,3.3414,3.3414,3.3414,3.3414,3.3414,3.3414,3.3414,3.3414,3.3414,3.3414,3.3414,3.3414,3.3414,3.3414,3.3414,3.3414,3.3414,3.3414,3.3414,3.3414,3.3414,3.3414,3.3414,3.3414,3.3414,3.3414,3.3414,3.3414,3.3414,3.3414,3.3414,3.3414,3.3414,3.3414,3.3414,3.3414,3.3414,3.3414,3.3414,3.3414,3.3414,3.3681,3.4295,3.4322,3.4603,3.5191,3.5191,3.5191,3.5191,3.5191,3.5191,3.5191,3.5191,3.5191,0.0,0.0,0.0,3.3917,0.0,0.0,0.0,0.0,3.0479,0.0,0.0,2.8694,0.0,0.0,0.0,0.0,0.0,0.0,0.0,1.8557,1.9025,2.0197,2.2091,2.3581,2.4209,2.2966,2.3241,2.5864,2.4422,2.4823,2.8031,2.8219,2.8634,2.9459,2.9499,2.9633,2.9913,2.9927,3.0221,3.0795,3.0808,3.1116,3.1711,3.1711,3.1711,3.1711,3.1711,3.1724,3.1724,3.1724,3.2072,3.2607,3.2607,3.2955,3.34,3.3414,3.3414,3.3414,3.3414,3.3414,3.3414,3.3414,3.3414,3.3414,3.3414,3.3414,3.3414,3.3414,3.3414,3.3414,3.3414,3.3414,3.3414,3.3414,3.3414,3.3414,3.3414,3.3414,3.3414,3.3414,3.3414,3.3414,3.3414,3.3414,3.3414,3.3414,3.3414,3.3414,3.3414,3.3414,3.3414,3.3414,3.3414,3.3414,3.3414,3.3414,3.3414,3.3414,3.3414,3.3681,3.4295,3.4322,3.4603,3.5191,3.5191,3.5191,3.5191,3.5191,3.5191,3.5191,3.5191,3.5191,0.0,0.0,3.3132,3.3571,0.0,0.0,0.0,0.0,0.0,0.0,0.0,0.0,0.0,0.0,0.0,0.0,0.0,0.0,0.0,1.7635,1.7849,1.841,2.0686,2.2117,2.1884,2.1937,2.2766,2.4649,2.4062,2.469,2.7134,2.7871,2.8419,2.8885,2.9285,2.9619,2.9913,2.9913,3.0207,3.0795,3.0795,3.1102,3.1711,3.1711,3.1711,3.1711,3.1711,3.1711,3.1724,3.1877,3.2233,3.2607,3.2808,3.3066,3.3414,3.3414,3.3414,3.3414,3.3414,3.3414,3.3414,3.3414,3.3414,3.3414,3.3414,3.3414,3.3414,3.3414,3.3414,3.3414,3.3414,3.3414,3.3414,3.3414,3.3414,3.3414,3.3414,3.3414,3.3414,3.3414,3.3414,3.3414,3.3414,3.3414,3.3414,3.3414,3.3414,3.3414,3.3414,3.3414,3.3414,3.3414,3.3414,3.3414,3.3414,3.3414,3.3414,3.3414,3.3414,3.3681,3.4295,3.4322,3.4603,3.5191,3.5191,3.5191,3.5191,3.5191,3.5191,3.5191,3.5191,3.5191,3.2893,3.2191,0.0,3.276,3.1131,0.0,3.0185,0.0,3.0208,0.0,0.0,0.0,0.0,0.0,0.0,0.0,0.0,0.0,0.0,1.7113,1.7273,1.7434,1.9348,2.0619,2.0521,2.0655,2.1577,2.3581,2.3388,2.4128,2.6386,2.7389,2.8112,2.8591,2.9072,2.9513,2.9913,2.9913,3.0207,3.0795,3.0795,3.1102,3.1711,3.1711,3.1711,3.1711,3.1711,3.173,3.1837,3.2024,3.2332,3.2768,3.2906,3.316,3.3414,3.3414,3.3414,3.3414,3.3414,3.3414,3.3414,3.3414,3.3414,3.3414,3.3414,3.3414,3.3414,3.3414,3.3414,3.3414,3.3414,3.3414,3.3414,3.3414,3.3414,3.3414,3.3414,3.3414,3.3414,3.3414,3.3414,3.3414,3.3414,3.3414,3.3414,3.3414,3.3414,3.3414,3.3414,3.3414,3.3414,3.3414,3.3414,3.3414,3.3414,3.3414,3.3414,3.3414,3.3521,3.3801,3.4295,3.4416,3.471,3.5191,3.5191,3.5191,3.5191,3.5191,3.5191,3.5191,3.5191,3.5191]},{"header":{"parameterUnit":"m.s-1","parameterCategory":1,"la1":30.6,"la2":29.2853,"lo1":-89.7004,"lo2":-87.6739,"dy":0.0162,"dx":0.0183,"nx":112,"ny":82,"refTime":"2024-10-16T12:00:00:Z","depth":0,"parameterNumber":3,"parameterNumberName":"V-component_of_WINDS"},"data":[0.0,0.0,0.0,0.0,0.0,0.0,0.0,0.0,0.0,0.0,0.0,0.0,0.0,0.0,0.0,0.0,0.0,0.0,0.0,0.0,0.0,0.0,0.0,0.0,0.0,0.0,0.0,0.0,0.0,0.0,0.0,0.0,0.0,0.0,0.0,0.0,0.0,0.0,0.0,0.0,0.0,0.0,0.0,0.0,0.0,0.0,0.0,0.0,0.0,0.0,0.0,0.0,0.0,0.0,0.0,0.0,0.0,0.0,0.0,0.0,0.0,0.0,0.0,0.0,0.0,0.0,0.0,0.0,0.0,0.0,0.0,0.0,0.0,0.0,0.0,0.0,0.0,0.0,0.0,0.0,0.0,0.0,0.0,0.0,0.0,0.0,0.0,0.0,0.0,0.0,3.7438,4.0721,4.6167,4.9197,4.8261,4.7959,4.4971,3.8355,0.0,0.0,0.0,0.0,0.0,0.0,0.0,0.0,0.0,0.0,0.0,0.0,0.0,0.0,0.0,0.0,0.0,0.0,0.0,0.0,0.0,0.0,0.0,0.0,0.0,0.0,0.0,0.0,0.0,0.0,0.0,0.0,0.0,0.0,0.0,0.0,0.0,0.0,0.0,0.0,0.0,0.0,0.0,0.0,0.0,0.0,0.0,0.0,0.0,0.0,0.0,0.0,0.0,0.0,0.0,0.0,0.0,0.0,0.0,0.0,0.0,0.0,0.0,0.0,0.0,0.0,0.0,0.0,0.0,0.0,0.0,0.0,0.0,0.0,0.0,0.0,0.0,0.0,0.0,0.0,0.0,0.0,0.0,0.0,0.0,0.0,0.0,0.0,0.0,0.0,0.0,0.0,0.0,0.0,0.0,0.0,0.0,0.0,0.0,0.0,0.0,0.0,0.0,0.0,3.762,4.5067,4.8491,5.0179,5.0025,4.7841,4.4741,4.0626,0.0,0.0,0.0,0.0,0.0,0.0,0.0,0.0,0.0,0.0,0.0,0.0,0.0,0.0,0.0,0.0,0.0,0.0,0.0,0.0,0.0,0.0,0.0,0.0,0.0,0.0,0.0,0.0,0.0,0.0,0.0,0.0,0.0,0.0,0.0,0.0,0.0,0.0,0.0,0.0,0.0,0.0,0.0,0.0,0.0,0.0,0.0,0.0,0.0,0.0,0.0,0.0,0.0,0.0,0.0,0.0,0.0,0.0,0.0,0.0,0.0,0.0,0.0,0.0,0.0,0.0,0.0,0.0,0.0,0.0,0.0,0.0,0.0,0.0,0.0,0.0,0.0,0.0,0.0,0.0,0.0,0.0,0.0,0.0,0.0,0.0,0.0,0.0,0.0,0.0,0.0,0.0,0.0,0.0,0.0,0.0,0.0,0.0,0.0,0.0,0.0,0.0,0.0,3.8168,4.2014,4.8877,5.1092,5.1831,5.1248,4.9063,4.575,4.1198,3.7178,0.0,0.0,0.0,0.0,0.0,0.0,0.0,0.0,0.0,0.0,0.0,0.0,0.0,0.0,0.0,0.0,0.0,0.0,0.0,0.0,0.0,0.0,0.0,0.0,0.0,0.0,0.0,0.0,0.0,0.0,0.0,0.0,0.0,0.0,0.0,0.0,0.0,0.0,0.0,0.0,0.0,0.0,0.0,0.0,0.0,0.0,0.0,0.0,0.0,0.0,0.0,0.0,0.0,0.0,0.0,0.0,0.0,0.0,0.0,0.0,0.0,0.0,0.0,0.0,0.0,0.0,0.0,0.0,0.0,0.0,0.0,0.0,0.0,0.0,0.0,0.0,0.0,0.0,0.0,0.0,0.0,0.0,0.0,0.0,0.0,0.0,0.0,0.0,0.0,0.0,0.0,0.0,0.0,0.0,0.0,0.0,0.0,0.0,0.0,0.0,0.0,0.0,4.4011,4.6599,5.1406,5.287,5.3161,5.2348,4.9802,4.621,4.1526,3.633,0.0,0.0,0.0,0.0,0.0,0.0,0.0,0.0,0.0,0.0,0.0,0.0,0.0,0.0,0.0,0.0,0.0,0.0,0.0,0.0,0.0,0.0,0.0,0.0,0.0,0.0,0.0,0.0,0.0,0.0,0.0,0.0,0.0,0.0,0.0,0.0,0.0,0.0,0.0,0.0,0.0,0.0,0.0,0.0,0.0,0.0,0.0,0.0,0.0,0.0,0.0,0.0,0.0,0.0,0.0,0.0,0.0,0.0,0.0,0.0,0.0,0.0,0.0,0.0,0.0,0.0,0.0,0.0,0.0,0.0,0.0,0.0,0.0,0.0,0.0,0.0,0.0,0.0,0.0,0.0,0.0,0.0,0.0,0.0,0.0,0.0,0.0,0.0,0.0,0.0,0.0,0.0,0.0,0.0,0.0,0.0,0.0,0.0,0.0,0.0,0.0,0.0,4.5061,4.9337,5.164,5.287,5.345,5.3382,4.8803,4.4849,4.2341,3.4778,0.0,0.0,0.0,0.0,0.0,0.0,0.0,0.0,0.0,0.0,0.0,0.0,0.0,0.0,0.0,0.0,0.0,0.0,0.0,0.0,0.0,0.0,0.0,0.0,0.0,0.0,0.0,0.0,0.0,0.0,0.0,0.0,0.0,0.0,0.0,0.0,0.0,0.0,0.0,0.0,0.0,0.0,0.0,0.0,0.0,0.0,0.0,0.0,0.0,0.0,0.0,0.0,0.0,0.0,0.0,0.0,0.0,0.0,0.0,0.0,0.0,0.0,0.0,0.0,0.0,0.0,0.0,0.0,0.0,0.0,0.0,0.0,0.0,0.0,0.0,0.0,0.0,0.0,0.0,0.0,0.0,0.0,0.0,0.0,0.0,0.0,0.0,0.0,0.0,0.0,0.0,0.0,0.0,0.0,0.0,0.0,0.0,0.0,0.0,0.0,0.0,0.0,4.5763,4.9477,5.2551,5.328,5.3518,5.3518,4.9965,4.621,4.2536,0.0,0.0,0.0,0.0,0.0,0.0,0.0,0.0,0.0,0.0,0.0,0.0,0.0,0.0,0.0,0.0,0.0,0.0,0.0,0.0,0.0,0.0,0.0,0.0,0.0,0.0,0.0,0.0,0.0,0.0,0.0,0.0,0.0,0.0,0.0,0.0,0.0,0.0,0.0,0.0,0.0,0.0,0.0,0.0,0.0,0.0,0.0,0.0,0.0,0.0,0.0,0.0,0.0,0.0,0.0,0.0,0.0,0.0,0.0,0.0,0.0,0.0,0.0,0.0,0.0,0.0,0.0,0.0,0.0,0.0,0.0,0.0,0.0,0.0,0.0,0.0,0.0,0.0,0.0,0.0,0.0,0.0,0.0,0.0,0.0,0.0,0.0,0.0,0.0,0.0,0.0,0.0,0.0,0.0,0.0,0.0,0.0,0.0,0.0,0.0,0.0,0.0,4.2723,4.6946,5.0441,5.3197,5.3518,5.3518,5.3518,5.0101,4.6244,4.2219,0.0,0.0,0.0,0.0,0.0,0.0,0.0,0.0,0.0,0.0,0.0,0.0,0.0,0.0,0.0,0.0,0.0,0.0,0.0,0.0,0.0,0.0,0.0,0.0,0.0,0.0,0.0,0.0,0.0,0.0,0.0,0.0,0.0,0.0,0.0,0.0,0.0,0.0,0.0,0.0,0.0,0.0,0.0,0.0,0.0,0.0,0.0,0.0,0.0,0.0,0.0,0.0,0.0,0.0,0.0,0.0,0.0,0.0,0.0,0.0,0.0,0.0,0.0,0.0,0.0,0.0,0.0,0.0,0.0,0.0,0.0,0.0,0.0,0.0,0.0,0.0,0.0,0.0,0.0,0.0,0.0,0.0,0.0,0.0,0.0,0.0,0.0,0.0,0.0,0.0,0.0,0.0,0.0,0.0,0.0,0.0,0.0,0.0,0.0,0.0,0.0,0.0,4.308,4.8677,5.2638,5.3416,5.3518,5.3518,5.3518,4.8748,4.4451,0.0,0.0,0.0,0.0,0.0,0.0,0.0,0.0,0.0,0.0,0.0,0.0,0.0,0.0,0.0,0.0,0.0,0.0,0.0,0.0,0.0,0.0,0.0,0.0,0.0,0.0,0.0,0.0,0.0,0.0,0.0,0.0,0.0,0.0,0.0,0.0,0.0,0.0,0.0,0.0,0.0,0.0,0.0,0.0,0.0,0.0,0.0,0.0,0.0,0.0,0.0,0.0,0.0,0.0,0.0,0.0,0.0,0.0,0.0,0.0,0.0,0.0,0.0,0.0,0.0,0.0,0.0,0.0,0.0,0.0,0.0,0.0,0.0,0.0,0.0,0.0,0.0,0.0,0.0,0.0,0.0,0.0,0.0,0.0,0.0,0.0,0.0,0.0,0.0,0.0,0.0,0.0,0.0,0.0,0.0,0.0,0.0,0.0,0.0,0.0,0.0,0.0,0.0,4.4587,4.9787,5.3247,5.3484,5.3518,5.3518,5.3518,5.0135,4.6312,4.2219,0.0,0.0,0.0,0.0,0.0,0.0,0.0,0.0,0.0,0.0,0.0,0.0,0.0,0.0,0.0,0.0,0.0,0.0,0.0,0.0,0.0,0.0,0.0,0.0,0.0,0.0,0.0,0.0,0.0,0.0,0.0,0.0,0.0,0.0,0.0,0.0,0.0,0.0,0.0,0.0,0.0,0.0,0.0,0.0,0.0,0.0,0.0,0.0,0.0,0.0,0.0,0.0,0.0,0.0,0.0,0.0,0.0,0.0,0.0,0.0,0.0,0.0,0.0,0.0,0.0,0.0,0.0,0.0,0.0,0.0,0.0,0.0,0.0,0.0,0.0,0.0,0.0,0.0,0.0,0.0,0.0,0.0,0.0,0.0,0.0,0.0,0.0,0.0,0.0,0.0,0.0,0.0,0.0,0.0,0.0,0.0,0.0,0.0,0.0,0.0,0.0,0.0,4.5635,5.071,5.3923,5.3923,5.3923,5.3822,5.3518,5.1014,4.753,4.3031,0.0,0.0,0.0,0.0,0.0,0.0,0.0,0.0,0.0,0.0,0.0,0.0,0.0,0.0,0.0,0.0,0.0,0.0,0.0,0.0,0.0,0.0,0.0,0.0,0.0,0.0,0.0,0.0,0.0,0.0,0.0,0.0,0.0,0.0,0.0,0.0,0.0,0.0,0.0,0.0,0.0,0.0,0.0,0.0,0.0,0.0,0.0,0.0,0.0,0.0,0.0,0.0,0.0,0.0,0.0,0.0,0.0,0.0,0.0,0.0,0.0,0.0,0.0,0.0,0.0,0.0,0.0,0.0,0.0,0.0,0.0,0.0,0.0,0.0,0.0,0.0,0.0,0.0,0.0,0.0,0.0,0.0,0.0,0.0,0.0,0.0,0.0,0.0,0.0,0.0,0.0,0.0,0.0,0.0,0.0,0.0,0.0,0.0,0.0,0.0,0.0,0.0,4.6312,5.1402,5.4651,5.4668,5.4634,5.4329,5.3653,5.1522,4.8342,4.3998,0.0,0.0,0.0,0.0,0.0,0.0,0.0,0.0,0.0,0.0,0.0,0.0,0.0,0.0,0.0,0.0,0.0,0.0,0.0,0.0,0.0,0.0,0.0,0.0,0.0,0.0,0.0,0.0,0.0,0.0,0.0,0.0,0.0,0.0,0.0,0.0,0.0,0.0,0.0,0.0,0.0,0.0,0.0,0.0,0.0,0.0,0.0,0.0,0.0,0.0,0.0,0.0,0.0,0.0,0.0,0.0,0.0,0.0,0.0,0.0,3.4578,3.2168,0.0,0.0,0.0,0.0,0.0,0.0,0.0,0.0,0.0,0.0,0.0,0.0,0.0,0.0,0.0,0.0,0.0,0.0,0.0,0.0,0.0,0.0,0.0,0.0,0.0,0.0,0.0,0.0,0.0,0.0,0.0,0.0,0.0,0.0,0.0,0.0,0.0,0.0,0.0,0.0,4.7075,5.1725,5.4803,5.5395,5.4938,5.4532,5.4363,5.2266,4.956,4.6278,4.1724,0.0,0.0,0.0,0.0,0.0,0.0,0.0,0.0,0.0,0.0,0.0,0.0,0.0,0.0,0.0,0.0,0.0,0.0,0.0,0.0,0.0,0.0,0.0,0.0,0.0,0.0,0.0,0.0,0.0,0.0,0.0,0.0,0.0,0.0,0.0,0.0,0.0,0.0,0.0,0.0,0.0,0.0,0.0,0.0,0.0,0.0,0.0,0.0,0.0,0.0,0.0,0.0,0.0,0.0,0.0,0.0,0.0,0.0,0.0,4.0505,3.7913,0.0,0.0,0.0,0.0,0.0,0.0,0.0,0.0,0.0,0.0,0.0,0.0,0.0,0.0,0.0,0.0,0.0,0.0,0.0,0.0,0.0,0.0,0.0,0.0,0.0,0.0,0.0,0.0,0.0,0.0,0.0,0.0,0.0,0.0,0.0,0.0,0.0,0.0,0.0,0.0,4.8376,5.2875,5.5818,5.619,5.5886,5.5378,5.4668,5.3179,5.1183,4.856,4.4871,0.0,0.0,0.0,0.0,0.0,0.0,0.0,0.0,0.0,0.0,0.0,0.0,0.0,0.0,0.0,0.0,0.0,0.0,0.0,0.0,0.0,0.0,0.0,0.0,0.0,0.0,0.0,0.0,0.0,0.0,0.0,0.0,0.0,0.0,0.0,0.0,0.0,0.0,0.0,0.0,0.0,0.0,0.0,0.0,0.0,0.0,0.0,0.0,0.0,0.0,0.0,0.0,0.0,4.8327,4.9643,5.0527,5.0594,5.1312,5.2133,4.7271,4.5145,4.4885,4.1265,0.0,0.0,0.0,0.0,0.0,0.0,0.0,0.0,0.0,0.0,0.0,0.0,0.0,0.0,0.0,0.0,0.0,0.0,0.0,0.0,0.0,0.0,4.6061,4.6667,4.9225,4.936,4.1412,0.0,0.0,0.0,0.0,0.0,0.0,0.0,0.0,0.0,0.0,0.0,5.0101,5.4262,5.69,5.7171,5.6968,5.6325,5.5074,5.4296,5.2976,5.0811,4.8139,4.5162,0.0,0.0,0.0,0.0,0.0,0.0,0.0,0.0,0.0,0.0,0.0,0.0,0.0,0.0,0.0,0.0,0.0,0.0,0.0,0.0,0.0,0.0,0.0,0.0,0.0,0.0,0.0,0.0,0.0,0.0,0.0,0.0,3.5835,3.7212,0.0,0.0,0.0,0.0,0.0,0.0,0.0,0.0,0.0,0.0,0.0,0.0,0.0,4.6052,4.7959,5.1079,5.2187,5.1319,5.4944,5.6196,5.5294,5.5833,5.6496,5.7158,5.635,0.0,4.8468,4.6181,0.0,0.0,0.0,0.0,0.0,0.0,0.0,0.0,0.0,0.0,0.0,0.0,0.0,0.0,0.0,0.0,0.0,0.0,0.0,0.0,0.0,0.0,5.5065,5.5166,5.6064,5.6201,0.0,4.7283,4.1363,3.9236,3.7493,3.5904,0.0,0.0,0.0,0.0,0.0,0.0,5.2401,5.5243,5.7306,5.8573,5.7577,5.6731,5.6528,5.5834,5.4718,5.3145,5.1438,4.9679,4.7902,4.3992,0.0,0.0,0.0,0.0,0.0,0.0,0.0,0.0,0.0,0.0,0.0,0.0,0.0,0.0,0.0,0.0,0.0,0.0,0.0,0.0,0.0,0.0,0.0,0.0,0.0,0.0,0.0,0.0,0.0,3.5955,3.9188,3.899,3.9379,3.8589,0.0,0.0,0.0,0.0,0.0,0.0,0.0,0.0,0.0,5.034,5.1031,5.2825,5.6022,5.7385,5.8975,6.0764,6.2051,6.3002,6.3595,6.348,6.3553,6.3802,6.2997,6.0958,5.7831,5.2411,4.8716,4.6181,0.0,0.0,0.0,0.0,4.4829,4.5968,4.8142,4.8933,4.8726,4.7378,0.0,0.0,0.0,0.0,0.0,0.0,0.0,4.8804,0.0,0.0,5.8303,5.9648,6.052,6.0757,5.9708,5.6062,5.1446,4.6133,4.433,4.2354,3.8227,3.8633,0.0,0.0,0.0,5.071,5.4279,5.7036,5.8761,5.8979,5.8404,5.7712,5.6867,5.6494,5.5868,5.4786,5.4109,5.3061,5.1589,4.8815,4.5669,0.0,0.0,0.0,0.0,0.0,0.0,0.0,0.0,0.0,0.0,0.0,0.0,0.0,0.0,0.0,0.0,0.0,0.0,0.0,0.0,0.0,0.0,0.0,0.0,0.0,0.0,0.0,0.0,3.9637,4.2222,4.1036,4.2671,4.2617,0.0,0.0,0.0,0.0,0.0,0.0,5.0235,5.1209,5.3633,5.7996,5.8282,5.9967,6.3347,6.3279,6.4808,6.7914,6.7296,6.7859,6.9376,6.8837,6.8586,6.8522,6.7465,6.6722,6.5699,5.8459,5.4721,5.3246,5.0446,4.9671,5.0284,5.174,5.283,5.4027,5.6912,5.7929,5.7635,5.5569,5.3587,5.1348,4.7796,0.0,0.0,0.0,0.0,5.375,5.6811,5.8836,6.0558,6.2499,6.3396,6.3612,6.3091,6.2381,5.9776,5.2638,5.1116,4.9221,4.3673,4.437,0.0,4.5466,4.9864,5.4059,5.6511,5.8761,5.9979,5.9622,5.9385,5.8863,5.7746,5.7476,5.707,5.6325,5.6071,5.5395,5.4126,5.2773,5.027,4.636,0.0,0.0,0.0,0.0,0.0,0.0,0.0,0.0,0.0,0.0,0.0,0.0,0.0,0.0,0.0,0.0,0.0,0.0,0.0,0.0,0.0,0.0,0.0,0.0,0.0,0.0,0.0,0.0,0.0,4.5095,4.8386,0.0,0.0,0.0,0.0,4.8598,5.1225,5.3711,5.5871,5.8988,6.2319,6.5749,6.6465,6.7503,6.8976,6.8993,6.9084,6.928,6.9259,6.9323,6.9408,6.9344,6.9344,6.9344,6.928,6.9215,6.8799,6.3797,6.0981,5.9714,5.8236,5.7732,5.7764,5.7839,5.8709,5.989,6.0093,6.0138,6.0419,6.2093,6.0435,5.7687,5.7265,5.5067,0.0,0.0,5.7268,5.9046,6.2292,6.32,6.3471,6.4289,6.4512,6.4546,6.4512,6.3903,6.2192,5.822,5.69,5.5649,5.3179,0.0,5.2334,5.3771,5.4871,5.6578,5.9505,6.0013,6.0385,6.1129,6.052,6.0013,5.9945,5.9302,5.8573,5.7832,5.7137,5.6393,5.5631,5.4837,5.3315,5.0897,4.6563,0.0,0.0,0.0,0.0,0.0,0.0,0.0,0.0,0.0,0.0,0.0,0.0,0.0,0.0,0.0,0.0,0.0,0.0,0.0,0.0,0.0,0.0,0.0,0.0,0.0,0.0,0.0,0.0,5.2214,5.3947,0.0,5.3661,5.3712,5.4722,5.6943,5.964,6.2473,6.5372,6.6668,6.8676,7.1658,7.1094,7.1396,7.2789,7.1859,7.2343,7.4223,7.3262,7.3577,7.488,7.3891,7.3459,7.3392,7.2461,7.2038,7.193,7.0162,6.7635,6.4682,6.3292,6.2745,6.2809,6.3236,6.4218,6.5376,6.533,6.5892,6.6535,6.5758,6.4383,6.2899,6.2374,6.1756,6.1508,6.2851,6.39,6.4984,6.666,6.6745,6.6542,6.732,6.7083,6.688,6.7387,6.688,6.5797,6.3971,6.1501,5.8964,5.6731,5.6867,5.7171,5.6783,5.8186,5.9877,6.1366,6.1569,6.1501,6.1332,6.1028,6.0655,6.0148,5.9419,5.8878,5.8626,5.7915,5.7374,5.7137,5.5953,5.4702,5.3416,4.9932,4.5466,0.0,0.0,0.0,0.0,0.0,0.0,0.0,0.0,0.0,0.0,0.0,0.0,0.0,0.0,0.0,0.0,0.0,0.0,0.0,0.0,0.0,0.0,0.0,0.0,0.0,5.0039,5.4225,5.6105,5.8833,6.0357,5.9903,6.0905,6.2579,6.5077,6.7151,6.9435,7.1887,7.2474,7.3687,7.577,7.4904,7.4852,7.5803,7.4826,7.536,7.7266,7.6266,7.6584,7.7967,7.6927,7.6487,7.642,7.5439,7.4887,7.465,7.4322,7.2458,6.9648,6.847,6.8012,6.8078,6.8487,6.9085,6.9573,6.9294,6.9791,7.0331,6.8808,6.7827,6.7138,6.6643,6.6643,6.6981,6.776,6.8132,6.847,6.9282,6.8876,6.8436,6.8977,6.8707,6.8436,6.8977,6.8673,6.8166,6.7692,6.4986,6.2212,6.0452,6.096,6.1298,6.0317,6.1434,6.2584,6.3057,6.3125,6.2854,6.211,6.2042,6.1637,6.0588,5.9573,5.8878,5.866,5.7476,5.6783,5.6783,5.5344,5.4329,5.3822,5.0879,4.7056,4.232,0.0,0.0,0.0,0.0,0.0,0.0,0.0,0.0,0.0,0.0,0.0,0.0,0.0,0.0,0.0,0.0,0.0,0.0,0.0,0.0,0.0,0.0,0.0,4.9599,5.463,5.7948,5.6856,6.3125,6.6825,6.4939,6.7919,7.0734,7.2711,7.3513,7.424,7.4959,7.629,7.7367,7.8102,7.8102,7.8068,7.8034,7.8034,7.8034,7.8034,7.8034,7.8068,7.8068,7.8044,7.8034,7.8034,7.8034,7.757,7.686,7.6082,7.5337,7.4627,7.3815,7.35,7.35,7.35,7.3037,7.2326,7.1594,7.1323,7.1323,7.1289,7.0804,7.0251,7.0251,6.9722,6.9316,7.0026,6.9722,6.9316,7.0026,6.9688,6.9147,6.918,6.9147,6.9147,6.918,6.9147,6.9147,6.9147,6.732,6.5561,6.485,6.4715,6.4715,6.4715,6.4647,0.0,6.4647,6.4613,6.4343,6.3612,6.3511,6.2902,6.1467,5.9892,5.8693,5.7934,5.5802,5.46,5.4651,5.3179,5.2367,5.2367,4.951,4.6955,4.477,0.0,0.0,0.0,0.0,0.0,0.0,0.0,0.0,0.0,0.0,0.0,0.0,0.0,0.0,0.0,0.0,0.0,0.0,0.0,0.0,0.0,5.5188,5.8702,5.6048,6.0136,6.4518,6.7666,7.0755,7.3278,7.4889,7.5448,7.6386,7.801,7.8817,7.9287,7.9489,7.9862,8.02,8.0403,7.987,7.9329,7.8822,7.8822,7.8822,7.8822,7.8822,7.9092,7.9566,7.9058,7.8822,7.8788,7.8213,7.7874,7.7671,7.7435,7.7232,7.6826,7.4447,7.35,7.35,7.35,7.3364,7.3071,7.236,7.209,7.2022,7.1458,7.1176,7.1007,7.1007,7.0872,7.0714,7.0939,7.0872,7.0714,7.0939,7.0432,7.0026,7.0567,7.0297,7.0026,7.0601,7.0297,6.9891,6.9891,6.8944,6.8098,6.7895,6.7387,6.6981,6.6981,6.6068,0.0,6.5392,6.4918,6.4512,6.4343,6.3815,6.3105,6.2178,6.0182,5.8438,5.7171,5.5531,5.4837,5.5378,5.4465,5.3957,5.3957,5.1555,4.9713,0.0,0.0,0.0,0.0,0.0,0.0,0.0,0.0,0.0,0.0,0.0,0.0,0.0,0.0,0.0,0.0,0.0,0.0,0.0,0.0,0.0,0.0,6.2387,6.5981,6.5577,6.7696,7.0541,7.3912,7.5874,7.762,7.9373,7.974,8.0218,8.1071,8.1528,8.1765,8.1765,8.1765,8.1765,8.1765,8.1359,8.0919,8.0513,8.0175,8.0006,8.0006,7.9701,7.9803,8.0175,7.9769,7.9566,7.9532,7.9092,7.8754,7.845,7.845,7.828,0.0,0.0,0.0,0.0,0.0,7.395,7.3849,7.3105,7.2868,7.2732,7.1988,7.1751,7.1718,7.1391,7.1289,7.1289,7.1289,7.1289,7.1289,7.1289,7.0973,7.077,7.1188,7.0973,7.077,7.1188,7.0973,7.0669,7.0669,7.0297,0.0,7.0026,6.9113,6.8402,6.8402,6.7387,6.6609,6.6609,6.5967,6.5392,6.5087,6.4681,6.3869,6.2536,6.0892,0.0,0.0,0.0,5.4837,5.4279,5.4465,0.0,0.0,0.0,0.0,0.0,0.0,0.0,0.0,5.0067,5.0371,0.0,0.0,0.0,0.0,0.0,0.0,0.0,0.0,0.0,0.0,0.0,0.0,0.0,0.0,0.0,0.0,6.8511,7.2249,7.612,7.6096,7.6048,7.704,7.9135,8.0493,8.0493,8.1799,8.2652,8.2652,8.2652,8.2652,8.2652,8.2577,0.0,0.0,0.0,8.2408,8.2408,8.1731,8.1393,8.1418,8.075,8.0412,8.031,8.031,8.0276,8.0209,8.0209,7.9837,7.9203,7.9203,7.8788,7.8044,7.7299,7.6961,7.6724,7.5371,7.4796,7.4627,7.3883,0.0,0.0,7.2766,7.2529,7.2394,7.165,7.1424,7.1391,7.1323,7.1289,7.1289,7.1289,7.1289,7.1289,7.1289,7.1289,7.1289,7.1289,7.1289,7.1289,7.1289,7.1289,7.1289,7.1289,7.0161,6.9214,6.9214,6.8538,6.803,6.803,6.7387,6.6677,6.6021,0.0,0.0,6.2821,6.1907,6.0486,5.8306,5.6934,5.5293,5.3281,5.4735,5.5886,5.6443,5.7915,5.9964,6.2651,6.2739,6.3226,6.3951,5.6274,5.5547,0.0,0.0,0.0,0.0,0.0,0.0,0.0,0.0,0.0,0.0,0.0,0.0,0.0,0.0,0.0,6.9763,7.4847,7.9074,8.1638,8.1873,8.1209,7.9664,8.1455,8.2824,8.2824,8.367,8.4174,8.4174,8.4174,8.4174,8.4174,8.3625,8.3287,8.3287,8.2712,8.2408,8.2408,8.2272,8.2205,8.2205,8.2035,0.0,8.1114,8.1114,8.075,8.0209,8.0209,8.0107,8.0006,8.0006,7.9566,7.8822,7.8077,7.7401,7.686,7.6555,7.6048,7.5371,7.4661,7.439,7.4289,7.351,7.3297,7.3138,7.2428,7.2191,0.0,7.1458,7.1289,7.1289,7.1289,7.1289,7.1289,7.1289,7.1289,7.1289,7.1289,7.1289,7.1289,7.1289,7.1289,7.1289,7.1289,7.0567,7.0014,7.0014,6.935,6.8876,6.8876,6.8199,6.7624,6.7489,6.6406,6.5311,6.4275,6.2956,6.1467,5.9776,5.9404,5.9066,5.8626,6.0655,6.1569,6.1095,6.255,6.3599,6.4174,6.4769,6.6068,6.7929,6.3869,6.2618,0.0,0.0,0.0,0.0,0.0,0.0,0.0,0.0,0.0,0.0,0.0,5.591,6.0777,0.0,7.099,7.5846,7.9289,8.1934,8.3795,8.4065,8.3631,8.2494,8.3369,8.4065,8.4065,8.4377,8.4614,8.4614,8.4614,8.4614,8.4614,8.4242,8.4065,8.4065,8.3667,8.3498,8.3498,8.3152,8.2949,8.2949,8.2577,8.2205,8.1832,8.1832,8.1426,8.075,8.075,8.0547,8.0209,8.0209,7.9972,7.9634,7.9228,7.8416,7.7435,7.7435,7.7198,7.6724,7.6014,7.5743,7.5574,7.4424,7.4052,7.3916,7.3172,7.2935,7.28,7.2056,7.1853,7.1785,7.1391,7.1289,7.1289,7.1289,7.1289,7.1289,7.1289,7.1289,7.1289,7.1289,7.1289,7.1289,7.1289,7.1007,7.0737,7.0737,7.0128,6.9654,6.9654,6.8977,6.8504,6.8504,6.7827,6.7083,6.6305,6.4884,6.37,6.2956,6.255,6.2347,6.2347,6.3802,6.4613,6.4613,6.5696,6.6643,6.7387,6.8132,6.9282,7.0737,6.9586,6.8842,0.0,0.0,0.0,0.0,0.0,0.0,0.0,4.859,5.1025,5.6552,5.9949,6.3822,6.9971,7.3067,7.6191,8.0783,8.2272,8.3227,8.4411,8.4614,8.4614,8.4614,8.4614,8.4614,8.4614,8.4614,8.4614,8.4614,8.4614,8.4614,8.4614,8.4614,8.4614,8.4614,8.4614,8.4614,8.4614,8.4031,8.3727,8.3693,8.3118,8.2746,8.2611,8.2611,8.2205,8.1494,8.1494,8.1156,8.0615,8.0615,8.0615,8.0615,8.0479,7.9667,7.861,7.8314,7.8111,7.7933,7.7299,7.7029,7.669,7.5473,7.4965,7.4695,7.3916,7.3713,7.3544,7.28,7.2597,7.2462,7.1887,7.1751,7.1684,7.1526,7.1492,7.1458,7.1323,7.1289,7.1289,7.1289,7.1289,7.1289,7.1289,7.1289,7.1289,7.1289,7.0804,7.0398,7.0398,6.9755,6.9316,6.9316,6.918,6.8842,6.8199,6.7049,6.6339,6.6339,6.5797,6.5459,6.5459,6.617,6.6846,6.7455,6.8199,6.9248,7.0623,7.121,7.1887,7.2631,7.3206,7.3172,4.2541,4.324,4.4616,4.766,4.8079,5.0412,0.0,6.1758,6.2267,6.783,7.1649,7.4246,7.5143,7.809,8.0817,8.2077,8.343,8.4411,8.458,8.4614,8.4614,8.4614,8.4614,8.4614,8.4614,8.4614,8.4614,8.4614,8.4614,8.4614,8.4614,8.4614,8.4614,8.4614,8.4614,8.4614,8.4614,8.4512,8.4478,8.4478,8.4377,8.4005,8.3389,8.3389,8.2983,8.2272,8.2272,8.2238,8.2171,8.2171,8.2171,8.2103,8.1426,8.108,8.0775,7.9464,7.8551,7.8,7.7933,7.7435,7.686,7.669,7.6149,7.5439,7.4695,7.4492,7.4322,7.3578,7.3398,7.3364,7.3297,7.324,7.3071,7.2428,7.2293,7.209,7.1424,7.1289,7.1289,7.1289,7.1289,7.1289,7.1289,7.1289,7.1289,7.1289,7.1222,7.1176,7.1176,7.0534,7.0082,7.0082,6.9485,6.9079,6.8977,6.8808,6.8707,6.8707,6.8639,6.8605,6.8605,6.9282,6.9744,6.9823,7.0534,7.1345,7.2157,7.2225,7.2665,7.3398,7.3466,7.3466,4.8409,4.9553,5.069,5.3228,5.5114,5.8044,6.4553,6.6273,6.8142,7.3868,7.6831,7.8809,8.0132,8.196,8.3321,8.3633,8.4208,8.4614,8.4614,8.4234,8.3828,8.3362,8.3295,8.3667,8.4512,8.4614,8.4614,8.4614,8.4614,8.4614,8.4614,8.4614,8.4614,8.4614,8.4614,8.4614,8.4614,8.4614,8.4614,8.4614,8.4614,8.4444,8.414,8.414,8.3761,8.3016,8.2611,8.2408,8.2408,8.2408,8.2408,8.2374,8.2069,8.1934,8.1765,8.0276,7.9566,7.9228,7.8788,7.845,7.8044,7.7164,7.6657,7.6251,7.5473,7.5236,7.51,7.4356,7.4153,7.4052,7.3635,7.35,7.3432,7.3105,7.3037,7.2834,7.209,7.1954,7.1819,7.1391,7.1289,7.1289,7.1289,7.1289,7.1289,7.1289,7.1289,7.1289,7.1289,7.1041,7.0838,7.0838,7.0567,7.0376,7.0376,7.0376,7.0376,7.0376,7.0376,7.0376,7.0376,7.1075,7.1481,7.1481,7.2191,7.2732,7.3037,7.3477,7.3849,7.4153,7.4559,7.5033,5.1947,5.3803,5.5513,5.7663,6.1192,6.4915,6.8051,7.0638,7.3748,7.8602,8.056,8.1897,8.3508,8.4242,8.4614,8.4614,8.4614,8.4614,8.4614,8.3795,8.3016,8.2475,8.2035,8.2306,8.3565,8.4039,8.4377,8.458,8.4614,8.4614,8.4614,8.4614,8.4614,8.4614,8.4614,8.4614,8.4614,8.4614,8.4614,8.4614,8.4614,8.4614,8.4614,8.4614,8.4309,8.3761,8.3227,8.299,8.299,8.299,8.299,8.299,8.278,8.2712,8.2543,8.1054,8.0513,8.0412,7.9667,7.9295,7.8898,7.7841,7.7232,7.6792,7.6217,7.5879,7.5574,7.5067,7.4897,7.4796,7.4255,7.4109,7.4075,7.3849,7.3781,7.3578,7.2868,7.2699,7.2563,7.2022,7.1921,7.1853,7.165,7.1594,7.1526,7.1323,7.1289,7.1289,7.1289,7.1289,7.1289,7.1289,7.1289,7.1289,7.1289,7.1289,7.1289,7.1289,7.1515,7.1594,7.1594,7.2326,7.2699,7.2699,7.3229,7.3703,7.4109,7.4627,7.5134,7.5574,7.6428,7.7138,5.1588,5.4077,5.7666,6.0298,6.5092,7.0118,7.3654,7.7274,8.0526,8.2869,8.3918,8.4493,8.4546,8.458,8.4614,8.4614,8.4614,8.4614,8.4614,8.3328,8.2441,8.2408,8.1156,8.0547,8.1351,8.2678,8.3828,8.4546,8.4614,8.4614,8.4614,8.4614,8.4614,8.4614,8.4614,8.4614,8.4614,8.4614,8.4614,8.4614,8.4614,8.4614,8.4614,8.4614,8.458,8.458,8.4546,8.4512,8.4512,8.4512,8.4512,8.4444,8.3761,8.3456,8.3287,8.1824,8.1283,8.1181,8.0412,7.9701,7.9067,7.9034,7.8077,7.6893,7.686,7.6318,7.5709,7.5676,7.5676,7.5676,7.5642,7.5642,7.5439,7.4762,7.4593,7.4356,7.3635,7.3466,7.3466,7.3466,7.3432,7.3229,7.2496,7.236,7.2124,7.1391,7.1289,7.1289,7.1289,7.1289,7.1289,7.1289,7.1289,7.1289,7.1289,7.1289,7.1289,7.1289,7.1988,7.236,7.236,7.3071,7.3466,7.3466,7.35,7.4187,7.5642,7.5642,7.642,7.7923,7.905,7.96,5.5184,5.8381,6.2074,6.6243,7.0018,7.3827,7.8052,8.033,8.1917,8.3233,8.2915,8.2272,8.1765,8.1697,8.1832,8.234,8.3219,8.3862,8.3862,8.3456,8.2408,8.0445,8.0648,8.0648,7.9904,8.1156,8.2543,8.3795,8.3862,8.4099,8.458,8.4614,8.4614,8.4614,8.4614,8.4614,8.4614,8.4614,8.4614,8.4614,8.4614,8.4614,8.4614,8.4614,8.4614,8.4614,8.4614,8.4614,8.4614,8.4614,8.4614,8.458,8.4309,8.4234,8.4039,8.2577,8.2035,8.1866,8.0615,8.004,7.9769,7.9236,7.845,7.7638,7.7638,7.6724,7.5811,7.6352,7.6115,7.5709,7.5709,7.5709,7.5642,7.5405,7.5337,7.5134,7.439,7.4221,7.4086,7.3601,7.35,7.3432,7.3172,7.3105,7.3037,7.28,7.1921,7.1289,7.1289,7.1289,7.1289,7.1289,7.1289,7.1289,7.1289,7.1289,7.1515,7.1988,7.2259,7.2631,7.3105,7.3849,7.4458,7.4931,7.5473,7.6217,7.7256,7.7979,7.8638,7.9177,8.0312,8.1098,5.9512,6.2862,6.6246,7.1395,7.4769,7.7595,8.0508,8.1757,8.2364,8.2664,8.1122,7.9566,7.9092,7.8788,7.9092,8.0648,8.19,8.2983,8.3795,8.3456,8.2408,8.0488,8.0648,8.0648,7.9938,8.075,8.1926,8.3389,8.3761,8.4099,8.458,8.4614,8.4614,8.4614,8.4614,8.4614,8.4614,8.4614,8.4614,8.4614,8.4614,8.4614,8.4614,8.4614,8.4614,8.4614,8.4614,8.4614,8.4614,8.4614,8.4614,8.4614,8.4614,8.4614,8.4444,8.3253,8.278,8.2543,8.0784,8.0209,8.0107,7.9667,7.8991,7.8382,7.8382,7.7333,7.6251,7.6758,7.6318,7.5709,7.5709,7.5709,7.5709,7.5709,7.5709,7.5574,7.51,7.4999,7.4864,7.4356,7.4312,7.4187,7.3916,7.3646,7.35,7.35,7.2699,7.209,7.209,7.1853,7.1684,7.1684,7.1458,7.1391,7.1684,7.1684,7.2022,7.2732,7.3037,7.3409,7.3883,7.5263,7.6244,7.6722,7.7881,7.8867,7.9591,8.0354,8.0837,8.1116,8.228,8.304,6.4212,6.7263,7.0224,7.565,7.9154,8.119,8.1241,8.1785,8.1968,8.108,7.8585,7.6487,7.6318,7.5879,7.6487,7.9397,8.0682,8.2103,8.4242,8.3362,8.2475,8.2374,8.1156,8.0615,8.1249,8.1384,8.2002,8.3456,8.4174,8.4614,8.4614,8.4647,8.4647,8.4614,8.4614,8.4614,8.4614,8.4614,8.4614,8.4614,8.4614,8.4614,8.4614,8.4614,8.4614,8.4614,8.4614,8.4614,8.4614,8.4614,8.4614,8.4614,8.4614,8.4614,8.4512,8.3761,8.349,8.3186,8.1021,8.0242,8.0242,8.0209,7.9701,7.9126,7.916,7.8145,7.6961,7.6995,7.6454,7.5811,7.5777,7.5777,7.5811,7.5777,7.5777,7.5811,7.5811,7.5811,7.5811,7.5777,7.5743,7.5473,7.4796,7.4052,7.3591,7.3671,7.3648,7.3567,7.35,7.2868,7.2462,7.2462,7.1853,7.1718,7.2394,7.2462,7.2766,7.3534,7.4221,7.465,7.4788,7.725,7.866,7.8796,8.0563,8.1827,8.2551,8.2613,8.3003,8.3691,8.4868,8.541,6.7627,7.1452,7.549,7.9142,8.0588,8.1287,8.1946,8.0967,7.9092,7.6082,7.3601,7.1041,6.8233,7.0737,7.368,7.4965,7.9092,8.2509,8.3625,8.3903,8.343,8.1765,8.2205,8.2306,8.1384,8.2272,8.3321,8.4242,8.4478,8.4614,8.4614,8.5182,8.5215,8.4614,8.4614,8.4614,8.4614,8.4614,8.4614,8.4614,8.4614,8.4614,8.4614,8.4614,8.4614,8.4614,8.4614,8.4614,8.4614,8.4614,8.4614,8.4614,8.4614,8.4614,8.4512,8.3761,8.349,8.3253,8.1621,8.1021,8.0919,8.0378,7.9701,7.9203,7.9769,7.8889,7.7807,7.8382,7.801,7.7266,7.6724,7.6995,7.7266,7.6724,7.6995,7.7401,7.7401,7.7401,7.7232,7.669,7.6115,7.5642,7.5439,7.483,7.4761,7.6116,7.5173,7.4119,7.3567,7.3364,7.3206,7.3206,7.3037,7.3003,7.3206,7.3206,7.351,7.4289,7.4492,7.5512,7.7501,7.8217,7.9509,8.1493,8.2,8.2586,8.3323,8.415,8.4692,8.4872,8.6046,8.6553,7.1495,7.5349,7.9239,8.1614,8.1942,8.127,7.9795,7.7739,7.4931,7.05,6.7827,6.5425,6.2651,6.644,7.05,7.2259,7.7536,8.2035,8.3761,8.4343,8.4275,8.3355,8.4024,8.4302,8.3795,8.4505,8.5182,8.5561,8.5317,8.5283,8.5594,8.5723,8.5587,8.5148,8.4783,8.4614,8.4614,8.4614,8.4614,8.4614,8.4614,8.4614,8.4614,8.4614,8.4614,8.4614,8.4614,8.4614,8.4614,8.4614,8.4614,8.4614,8.4614,8.4614,8.4546,8.4133,8.3998,8.3828,8.2644,8.2035,8.1596,8.0547,7.9938,7.9667,8.0073,7.9397,7.8585,7.8966,7.8585,7.7874,7.7468,7.804,7.864,7.8229,7.8844,7.9476,7.9476,7.9476,7.9268,7.8485,7.7967,7.7396,7.6554,7.6448,7.6732,7.7223,7.6858,7.6377,7.5984,7.4776,7.3984,7.3984,7.4117,7.433,7.4672,7.5126,7.5881,7.6987,7.7056,7.7884,7.9729,8.0626,8.1753,8.3232,8.4045,8.4691,8.5084,8.5731,8.6046,8.6064,8.708,8.7545,7.5503,7.8859,8.178,8.3031,8.2644,8.0784,7.6284,7.3308,7.0026,6.4783,6.2042,6.008,5.8404,6.253,6.7286,7.0478,7.6014,8.1021,8.414,8.4681,8.5046,8.5723,8.5885,8.6196,8.6839,8.6907,8.6941,8.7042,8.6433,8.6332,8.6873,8.6366,8.602,8.5817,8.5114,8.4715,8.4614,8.4614,8.4614,8.4614,8.4614,8.4614,8.4614,8.4614,8.4614,8.4614,8.4614,8.4614,8.4614,8.4614,8.4614,8.4614,8.4614,8.4614,8.4614,8.4614,8.4614,8.4478,8.3761,8.3084,8.2306,8.0818,8.0276,8.0209,8.0209,7.986,7.9476,7.9476,7.9114,7.8715,7.8613,7.9406,8.0171,8.0089,8.0878,8.1686,8.1686,8.1615,8.1331,8.0617,8.044,7.9814,7.8132,7.8651,7.9023,7.8165,7.8776,7.9382,7.9522,7.6973,7.5184,7.5184,7.5464,7.5894,7.6659,7.7594,7.8775,8.0263,8.0369,8.077,8.1734,8.3324,8.4328,8.4549,8.6262,8.7178,8.7178,8.7178,8.7198,8.7308,8.7912,8.8243,7.9029,8.1192,8.3031,8.2694,8.1122,7.8517,7.4018,6.9789,6.5378,6.0114,5.778,5.6003,5.3856,5.8761,6.4546,6.8808,7.4492,7.9837,8.4005,8.5182,8.5621,8.5784,8.6332,8.6771,8.6907,8.6907,8.7144,8.7753,8.7685,8.7414,8.6941,8.7347,8.7042,8.5851,8.5655,8.5283,8.4614,8.4614,8.4614,8.4614,8.4614,8.4614,8.4614,8.4614,8.4614,8.4614,8.4614,8.4614,8.4614,8.4614,8.4614,8.4614,8.4614,8.4614,8.4614,8.4614,8.4614,8.4478,8.3761,8.3422,8.305,8.1562,8.0682,8.0209,8.0209,8.0775,8.1433,8.1433,8.1999,8.2475,8.1885,8.2332,8.2778,8.215,8.263,8.3217,8.3217,8.2742,8.2267,8.2126,8.1615,8.1057,8.0765,8.0854,8.1221,8.1893,8.1422,8.1302,8.2198,7.9937,7.8221,7.8221,7.8301,7.8634,7.9446,7.9701,8.0212,8.1119,8.119,8.1952,8.3642,8.4013,8.4917,8.6494,8.7495,8.7986,8.7986,8.7986,8.8353,8.8959,8.8463,8.8573,7.981,8.1778,8.3219,8.2103,7.9566,7.5743,6.9722,6.5155,6.052,5.4499,5.301,5.2232,5.0356,5.5852,6.1603,6.4546,7.006,7.5777,8.0995,8.2408,8.3761,8.6095,8.7008,8.7617,8.7989,8.8023,8.8192,8.8531,8.8564,8.8395,8.8057,8.8023,8.7313,8.5851,8.5817,8.5418,8.4614,8.4614,8.4614,8.4614,8.4614,8.4614,8.4614,8.4614,8.4614,8.4614,8.4614,8.4614,8.4614,8.4614,8.4614,8.4614,8.4614,8.4614,8.4614,8.4614,8.4614,8.4546,8.42,8.3828,8.3389,8.2678,8.1934,8.1257,8.0885,8.1572,8.2395,8.2014,8.2728,8.3515,8.3146,8.3762,8.4385,8.4047,8.4679,8.5372,8.5372,8.5102,8.4724,8.429,8.3948,8.34,8.2395,8.2706,8.3062,8.3007,8.3062,8.3247,8.3771,8.2704,8.1479,8.0369,8.0748,8.124,8.1617,8.2149,8.2809,8.3623,8.3695,8.428,8.5591,8.6065,8.6701,8.7601,8.8409,8.8812,8.8812,8.8812,8.9033,8.94,8.9436,8.9674,8.0216,8.2027,8.3118,8.146,7.8111,7.3308,6.6034,6.1211,5.6511,5.0288,4.9323,4.9323,4.8326,5.3298,5.8457,6.1095,6.6,7.1718,7.8213,8.0141,8.2408,8.6433,8.7685,8.8463,8.9066,8.91,8.91,8.91,8.91,8.91,8.91,8.8531,8.7617,8.6298,8.6122,8.5655,8.485,8.4681,8.4614,8.4614,8.4614,8.4614,8.4614,8.4614,8.4614,8.4614,8.4614,8.4614,8.4614,8.4614,8.4614,8.4614,8.4614,8.4614,8.4633,8.489,8.4995,8.5014,8.5266,8.4985,8.4506,8.4532,8.3747,8.2675,8.2088,8.2787,8.3608,8.3059,8.3577,8.433,8.433,8.5006,8.5638,8.5638,8.6338,8.6978,8.6978,8.6978,8.6811,8.6187,8.604,8.5614,8.4119,8.4548,8.481,8.3992,8.4565,8.5123,8.5123,8.5123,8.4477,8.2766,8.3055,8.3411,8.3592,8.4362,8.5196,8.6004,8.6224,8.6591,8.7252,8.8023,8.8463,8.8463,8.9253,8.9657,8.9657,8.9657,8.9767,8.9913,9.0391,9.0702,8.1786,8.281,8.2983,8.0818,7.6961,7.1921,6.5134,5.9656,5.4684,4.9965,4.8529,4.8259,4.8815,5.1166,5.5057,6.1284,6.5019,6.9903,7.7951,8.146,8.4133,8.6602,8.8125,8.9032,8.91,8.91,8.91,8.91,8.91,8.91,8.91,8.9032,8.8632,8.782,8.7144,8.6433,8.5689,8.4979,8.4614,8.4614,8.4614,8.4614,8.4614,8.4614,8.4614,8.4614,8.4614,8.4614,8.4614,8.4614,8.4614,8.4614,8.4614,8.4614,8.4739,8.5836,8.6217,8.639,8.7468,8.7826,8.7778,8.7836,8.6114,8.4042,8.3973,8.4992,8.6157,8.6085,8.6386,8.6696,8.6696,8.6749,8.6856,8.6856,8.6925,8.6978,8.6978,8.6978,8.6978,8.6904,8.6885,8.6813,8.6653,8.6705,8.674,8.6653,8.6723,8.6757,8.6757,8.6757,8.6705,8.6512,8.5282,8.4747,8.548,8.5639,8.604,8.6848,8.7582,8.8023,8.8096,8.8849,8.929,8.929,9.006,9.0482,9.0482,9.0482,9.0886,9.1546,9.0922,9.0996,7.9995,8.1596,8.1629,7.9431,7.5506,7.0432,6.37,5.8152,5.323,4.9172,4.7752,4.7462,4.8191,4.9796,5.2485,5.6986,5.9066,6.2665,6.9992,7.3612,7.7333,8.2272,8.4945,8.711,8.8931,8.91,8.91,8.91,8.91,8.91,8.91,8.91,8.8734,8.8023,8.7719,8.6974,8.5817,8.5486,8.508,8.4614,8.4614,8.4614,8.4614,8.4614,8.4614,8.4614,8.4614,8.4614,8.4614,8.4614,8.5014,8.5684,8.5684,8.6127,8.6852,8.7316,8.7468,8.7538,8.802,8.8201,8.8201,8.8223,8.7976,8.7461,8.629,8.6838,8.7676,8.6758,8.7102,8.7619,8.7124,8.6978,8.6978,8.6978,8.6978,8.6978,8.6978,8.6978,8.6978,8.6978,8.6978,8.6978,8.6978,8.6978,8.6978,8.6978,8.6978,8.6978,8.6978,8.6978,8.7215,8.7655,8.6738,8.6187,8.6518,8.6958,8.7362,8.7692,8.85,8.8923,8.8923,8.9693,9.0097,9.0097,9.0922,9.1326,9.1326,9.1326,9.1473,9.1803,9.1473,9.1473,7.7758,7.9904,8.0175,7.8145,7.4119,6.9011,6.2719,5.7273,5.2418,4.8665,4.7481,4.7293,4.7819,4.912,5.103,5.3822,5.5446,5.8693,6.5412,6.8944,7.3105,7.916,8.2103,8.4742,8.7482,8.8564,8.91,8.91,8.91,8.91,8.91,8.91,8.8863,8.8328,8.8091,8.738,8.6129,8.5892,8.5384,8.4614,8.4614,8.4614,8.4614,8.4614,8.4785,8.5144,8.5144,8.5344,8.5668,8.5668,8.6177,8.6937,8.6937,8.7445,8.8246,8.8601,8.8732,8.8776,8.9121,8.9284,8.9284,8.9284,8.9842,9.0275,8.8932,8.8874,8.9105,8.8019,8.8125,8.8426,8.7858,8.7711,8.7711,8.7711,8.7528,8.7344,8.7344,8.7161,8.6978,8.6978,8.6978,8.6978,8.6978,8.6978,8.6978,8.6978,8.6978,8.6978,8.6978,8.6978,8.7325,8.8096,8.7692,8.7455,8.7675,8.8023,8.8316,8.8536,8.929,8.9767,8.9767,9.0537,9.0959,9.0959,9.151,9.1803,9.1803,9.1803,9.1803,9.1803,9.1803,9.1803,7.5614,7.801,7.8788,7.7299,7.3003,6.776,6.2516,5.7273,5.2418,4.8665,4.7887,4.7887,4.7921,4.912,5.0845,5.3145,5.5953,6.0216,6.6914,7.0466,7.4052,7.8585,8.0412,8.2205,8.4411,8.7347,8.91,8.91,8.91,8.91,8.91,8.91,8.91,8.91,8.8361,8.7651,8.6907,8.6163,8.5384,8.4614,8.4614,8.4614,8.4614,8.4614,8.524,8.639,8.639,8.708,8.8156,8.8156,8.8178,8.8178,8.8178,8.8178,8.8335,8.9537,8.9986,9.0127,9.136,9.1785,9.1785,9.1785,9.1785,9.1785,9.1748,9.1198,9.0574,9.0574,8.9987,8.94,8.9363,8.9363,8.9363,8.9363,8.8776,8.8206,8.8206,8.7582,8.6978,8.6978,8.6978,8.6978,8.6978,8.6978,8.6978,8.6978,8.6978,8.6978,8.6978,8.6978,8.7325,8.8096,8.8206,8.85,8.9326,8.8647,8.8536,8.9326,9.0134,9.0592,9.0592,9.1363,9.1803,9.1803,9.1803,9.1803,9.1803,9.1803,9.1803,9.1803,9.1803,9.1803,6.6689,6.9827,7.1548,6.8504,6.6136,6.3294,5.854,5.4989,5.1928,4.9206,4.8259,4.8056,4.8563,4.9052,5.1082,5.6409,5.8051,6.0655,6.6373,7.0601,7.4255,7.7232,8.2949,8.6934,8.7617,8.8531,8.91,8.91,8.91,8.91,8.91,8.91,8.91,8.91,8.8869,8.8395,8.7651,8.6907,8.6163,8.5418,8.5712,8.5836,8.5861,8.6707,8.7269,8.7631,8.7631,8.7838,8.8201,8.8259,8.8746,8.9432,8.9489,8.9981,9.0696,9.1097,9.123,9.1267,9.1657,9.1803,9.1803,9.1803,9.1803,9.1803,9.1803,9.162,9.1326,9.0739,9.0024,8.94,8.94,8.94,8.94,8.94,8.9216,8.9033,8.9033,8.8372,8.7839,8.7839,8.7399,8.6978,8.6978,8.6978,8.6978,8.6978,8.6978,8.7198,8.7766,8.7839,8.8353,8.9711,8.9326,8.9106,8.9363,8.9657,8.9968,9.0207,9.0996,9.1436,9.1436,9.1657,9.1803,9.1803,9.1803,9.1803,9.1803,9.1803,9.1803,9.1803,9.1803,9.1803,6.0256,6.4187,6.644,6.4086,6.2313,6.0182,5.6511,5.3704,5.1336,4.939,4.8631,4.8462,4.8917,4.9221,5.0879,5.5327,5.7255,6.0013,6.5236,6.9823,7.4119,7.8077,8.3795,8.7617,8.8192,8.8767,8.9235,8.9478,8.9269,8.91,8.91,8.91,8.91,8.91,8.91,8.8734,8.7989,8.755,8.7043,8.6487,8.6717,8.6936,8.7127,8.7861,8.8446,8.8863,8.8863,8.9157,0.0,8.9615,9.0062,9.0676,9.0713,9.119,9.1803,9.1803,9.1803,9.1803,9.1803,9.1803,9.1803,9.1803,9.1803,9.1803,9.1803,9.1803,9.1693,9.1179,9.0702,9.0317,9.0317,9.0317,9.0317,9.0317,9.006,8.984,8.984,8.9216,8.8647,8.8647,8.8225,8.7895,8.7895,8.7895,8.7895,8.7895,8.7895,8.8078,8.861,8.8647,8.916,9.0482,9.0134,8.9987,9.028,9.0482,9.0739,9.1033,9.151,9.1803,9.1803,9.1803,9.1803,9.1803,9.1803,9.1803,9.1803,9.1803,9.1803,9.1803,9.1803,9.1803,0.0,6.013,6.2505,6.2429,6.0332,5.7728,5.5631,5.2993,0.0,4.9154,4.8883,4.8984,4.9187,4.9695,5.0507,5.1776,5.4955,5.9099,6.4275,6.9045,7.4424,8.0945,8.3659,8.5561,8.7008,8.8361,8.9444,9.0154,8.9512,8.91,8.91,8.91,8.91,8.91,8.9184,8.8845,8.8091,8.8023,8.7916,8.7775,8.7805,8.8049,8.8521,8.8531,8.9128,9.0107,9.0107,9.0754,9.1803,9.1803,9.1803,9.1803,9.1803,9.1803,9.1803,9.1803,9.1803,9.1803,9.1803,9.1803,9.1803,9.1803,9.1803,9.1803,9.1803,9.1803,9.1803,9.1803,9.1803,9.1803,9.1803,9.1803,9.1803,9.1803,9.1216,9.0702,9.0702,9.006,8.9473,8.9473,8.9436,8.94,8.94,8.94,8.94,8.94,8.94,8.9436,8.9473,8.9473,8.9803,9.0592,9.0702,9.0996,9.173,9.1106,9.0996,9.173,9.1803,9.1803,9.1803,9.1803,9.1803,9.1803,9.1803,9.1803,9.1803,9.1803,9.1803,9.1803,9.1803,9.1803,4.5829,0.0,5.2845,5.1831,5.1472,5.1082,0.0,4.9172,4.8428,4.7496,4.7767,4.8834,5.1116,5.0744,5.2215,5.8693,6.0994,6.3565,6.8233,7.4695,8.0581,8.508,8.755,8.9038,8.941,8.9748,9.0019,9.0188,8.9512,8.91,8.91,8.91,8.91,8.91,9.007,8.9994,8.8863,8.826,8.8455,8.935,8.9735,9.015,9.0633,9.1538,9.1736,9.1379,9.1379,9.1546,9.1803,9.1803,9.1803,9.1803,9.1803,9.1803,9.1803,9.1803,9.1803,9.1803,9.1803,9.1803,9.1803,9.1803,9.1803,9.1803,9.1803,9.1803,9.1803,9.1803,9.1803,9.1803,9.1803,9.1803,9.1803,9.1803,9.1657,9.151,9.151,9.0886,9.0317,9.0317,8.9803,8.94,8.94,8.94,8.94,8.94,8.94,8.962,9.0244,9.0317,9.0629,9.1436,9.151,9.1583,9.1767,9.162,9.1583,9.1803,9.1803,9.1803,9.1803,9.1803,9.1803,9.1803,9.1803,9.1803,9.1803,9.1803,9.1803,9.1803,9.1803,9.1803,4.1654,4.606,5.0075,5.0382,5.0491,5.0405,5.0067,4.8646,4.7293,4.6887,4.7394,4.8496,5.0439,5.1251,5.345,5.893,6.2178,6.6542,7.3781,7.9735,8.4498,8.755,8.897,8.9816,9.0188,8.9884,8.985,9.0188,8.9512,8.9345,8.9962,8.9989,9.025,9.0841,9.1515,9.127,8.9989,9.0147,9.0723,9.1588,9.1866,9.2036,9.2162,9.2809,9.2611,9.1803,9.1803,9.1803,9.1803,9.1803,9.1803,9.1803,9.1803,9.1803,9.1803,9.1803,9.1803,9.1803,9.1803,9.1803,9.1803,9.1803,9.1803,9.1803,9.1803,9.1803,9.1803,9.1803,9.1803,9.1803,9.1803,9.1803,9.1803,9.1803,9.1803,9.1803,9.1803,9.1473,9.1143,9.1143,9.0812,9.0501,9.0501,9.0501,9.0501,9.0501,9.0501,9.0665,9.1106,9.1143,9.1326,9.173,9.1803,9.1803,9.1803,9.1803,9.1803,9.1803,9.1803,9.1803,9.1803,9.1803,9.1803,9.1803,9.1803,9.1803,9.1803,9.1803,9.1803,9.1803,9.1803,9.2024,4.1208,4.6165,5.0741,5.1999,5.2131,5.1894,5.1606,4.9068,4.6834,4.6921,4.7564,4.8563,5.0236,5.2638,5.531,5.822,6.2854,6.9485,7.9194,8.3456,8.6433,8.8694,8.9106,8.9512,9.0154,8.9613,8.9512,9.0154,8.9512,8.9669,9.0945,9.1022,9.1565,9.2873,9.2978,9.2482,9.1391,9.2372,9.3203,9.3774,9.3774,9.3595,9.3272,9.3272,9.2758,9.1803,9.1803,0.0,9.1803,9.1803,9.1803,9.1803,9.1803,9.1803,9.1803,9.1803,9.1803,9.1803,9.1803,9.1803,9.1803,9.1803,9.1803,9.1803,9.1803,9.1803,9.1803,9.1803,9.1803,9.1803,9.1803,9.1803,9.1803,9.1803,9.1803,9.1803,9.1803,9.1803,9.1803,9.1803,9.1803,9.1803,9.1803,9.1803,9.1803,9.1803,9.1803,9.1803,9.1803,9.1803,9.1803,9.1803,9.1803,9.1803,9.1803,9.1803,9.1803,9.1803,9.1803,9.1803,9.1803,9.1803,9.1803,9.1803,9.1803,9.1803,9.1803,9.1803,9.1803,9.1803,9.195,9.2391,4.4194,4.8829,5.114,4.7769,4.868,4.9947,4.8086,4.7192,4.6989,4.7582,4.8326,5.0608,5.6409,5.7829,6.0129,6.6237,7.05,7.5168,8.1224,8.3633,8.5655,8.7888,8.9275,9.0087,9.0188,9.0121,9.0087,9.0188,8.9512,8.9669,9.0945,9.1022,9.1565,9.2873,9.3301,9.3395,9.3221,9.2997,9.3489,9.4625,9.4625,9.443,9.4116,9.4116,9.3272,9.1803,0.0,9.1803,9.1803,9.1803,9.1803,9.1803,9.1803,9.1803,9.1803,9.1803,9.1803,9.1803,9.1803,9.1803,9.1803,9.1803,9.1803,9.1803,9.1803,9.1803,9.1803,9.1803,9.1803,9.1803,9.1803,9.1803,9.1803,9.1803,9.1803,9.1803,9.1803,9.1803,9.1803,9.1803,9.1803,9.1803,9.1803,9.1803,9.1803,9.1803,9.1803,9.1803,9.1803,9.1803,9.1803,9.1803,9.1803,9.1803,9.1803,9.1803,9.1803,9.1803,9.1803,9.1803,9.1803,9.1803,9.1803,9.1803,9.1803,9.1803,9.1803,9.1803,9.1803,9.1803,9.2574,9.2978,4.3024,4.7327,5.0322,4.9531,5.2739,5.5683,5.3822,5.2469,5.1725,5.2046,5.2689,5.4397,5.8269,6.1313,6.554,7.2732,7.6657,7.9913,8.3126,8.5222,8.6974,8.8395,8.9173,8.9613,8.9613,8.9613,8.9882,9.0583,9.0322,9.0962,9.2979,9.3038,9.3651,9.4912,9.4745,9.4644,9.4644,9.3955,9.4172,9.517,9.4753,9.4463,9.4299,9.3859,9.2978,9.1803,0.0,9.1803,9.1803,9.1803,9.1803,9.1803,9.1803,9.1803,9.1803,9.1803,9.1803,9.1803,9.1803,9.1803,9.1803,9.1803,9.1803,9.1803,9.1803,9.1803,9.1803,9.1803,9.1803,9.1803,9.1803,9.1803,9.1803,9.1803,9.1803,9.1803,9.1803,9.1803,9.1803,9.1803,9.1803,9.1803,9.1803,9.1803,9.1803,9.1803,9.1803,9.1803,9.1803,9.1803,9.1803,9.1803,9.1803,9.1803,9.1803,9.1803,9.1803,9.1803,9.1803,9.1803,9.1803,9.1803,9.1803,9.1803,9.1803,9.1803,9.1803,9.1803,9.2024,9.2501,9.2905,9.3565,4.3062,4.6752,5.0168,5.279,5.6614,5.9708,5.9554,5.7796,5.6443,5.7356,5.8118,5.9133,6.0772,6.5641,7.1481,7.7764,8.1257,8.3659,8.4952,8.6805,8.826,8.9032,8.91,8.91,8.91,8.91,8.9642,9.0919,9.1022,9.2112,9.4677,9.4604,9.5094,9.639,9.5474,9.4941,9.4941,9.4116,9.4226,9.5217,9.4593,9.4189,9.4006,9.3382,9.2611,9.1803,9.1803,9.1803,9.1803,9.1803,9.1803,9.1803,9.1803,9.1803,9.1803,9.1803,9.1803,9.1803,9.1803,9.1803,9.1803,9.1803,9.1803,9.1803,9.1803,9.1803,9.1803,9.1803,9.1803,9.1803,9.1803,9.1803,9.1803,9.1803,9.1803,9.1803,9.1803,9.1803,9.1803,9.1803,9.1803,9.1803,9.1803,9.1803,9.1803,9.1803,9.1803,9.1803,9.1803,9.1803,9.1803,9.1803,9.1803,9.1803,9.1803,9.1803,9.1803,9.1803,9.1803,9.1803,9.1803,9.1803,9.1803,9.1803,9.1803,9.1803,9.1803,9.1803,9.2244,9.3088,9.3308,9.4153,4.774,5.027,5.1911,5.5581,5.5784,5.6122,6.0216,5.937,5.8727,6.2226,6.3531,6.4715,6.6846,7.2699,7.8044,8.064,8.3618,8.5824,8.6636,8.7482,8.826,8.9032,8.91,8.91,8.91,8.91,8.9642,9.0919,9.1022,9.2112,9.4677,9.4099,9.4259,9.5546,9.4079,9.3272,9.3272,9.2391,9.2794,9.4373,9.4336,9.3896,9.3198,9.3125,9.2611,9.1803,9.1803,9.1803,9.1803,9.1803,9.1803,9.1803,9.1803,9.1803,9.1803,9.1803,9.1803,9.1803,9.1803,9.1803,9.1803,9.1803,9.1803,9.1803,9.1803,9.1803,9.1803,9.1803,9.1803,9.1803,9.1803,9.1803,9.1803,9.1803,9.1803,9.1803,9.1803,9.1803,9.1803,9.1803,9.1803,9.1803,9.1803,9.1803,9.1803,9.1803,9.1803,9.1803,9.1803,9.1803,9.1803,9.1803,9.1803,9.1803,9.1803,9.1803,9.1803,9.1803,9.1803,9.1803,9.1803,9.1803,9.1803,9.1803,9.1803,9.1803,9.1803,9.1803,9.2244,9.3125,9.3859,9.4666,4.4691,4.8496,5.1979,5.5293,5.7814,6.0268,6.3328,6.4837,6.6474,6.9755,7.0613,7.121,7.2496,7.6014,7.9261,8.1012,8.42,8.6602,8.6873,8.7922,8.9095,9.0162,9.0304,9.0579,9.1388,9.1464,9.1979,9.3283,9.3376,9.3922,9.5158,9.4966,9.4777,9.4758,9.3675,9.3088,9.3088,9.2244,9.2097,9.2758,9.2758,9.2868,9.3088,9.2537,9.2097,9.1803,9.1803,9.1803,9.1803,9.1803,9.1803,9.1803,9.1803,9.1803,9.1803,9.1803,9.1803,9.1803,9.1803,9.1803,9.1803,9.1803,9.1803,9.1803,9.1803,9.1803,9.1803,9.1803,9.1803,9.1803,9.1803,9.1803,9.1803,9.1803,9.1803,9.1803,9.1803,9.1803,9.1803,9.1803,9.1803,9.1803,9.1803,9.1803,9.1803,9.1803,9.1803,9.1803,9.1803,9.1803,9.1803,9.1803,9.1803,9.1803,9.1803,9.1803,9.1803,9.1803,9.1803,9.1803,9.1803,9.1803,9.1803,9.1803,9.1803,9.206,9.2611,9.2611,9.3308,9.4593,9.4923,9.5474,4.45,4.8293,5.2317,5.5564,5.9235,6.3057,6.6914,6.9383,7.1853,7.5303,7.5473,7.5405,7.686,7.801,7.9397,8.1325,8.4606,8.6907,8.6907,8.8158,8.9559,9.0841,9.0789,9.1116,9.2401,9.2271,9.2675,9.3941,9.4027,9.4363,9.5087,9.4887,9.4502,9.3932,9.3125,9.2684,9.2684,9.2097,9.1803,9.1803,9.1803,9.2097,9.2684,9.206,9.1803,9.1803,9.1803,9.1803,9.1803,9.1803,9.1803,9.1803,9.1803,9.1803,9.1803,9.1803,9.1803,9.1803,9.1803,9.1803,9.1803,9.1803,9.1803,9.1803,9.1803,9.1803,9.1803,9.1803,9.1803,9.1803,9.1803,9.1803,9.1803,9.1803,9.1803,9.1803,9.1803,9.1803,9.1803,9.1803,9.1803,9.1803,9.1803,9.1803,9.1803,9.1803,9.1803,9.1803,9.1803,9.1803,9.1803,9.1803,9.1803,9.1803,9.1803,9.1803,9.1803,9.1803,9.1803,9.1803,9.1803,9.1803,9.1803,9.1803,9.1803,9.2244,9.3088,9.3088,9.3932,9.5492,9.5492,9.5951,4.8718,5.0608,5.3213,5.6986,5.9674,6.3328,7.0737,7.2428,7.3713,7.8213,7.7333,7.6657,7.9634,7.9025,7.8991,8.1934,8.4945,8.6907,8.6907,8.8186,8.9587,9.0832,9.0304,9.0314,9.1588,9.0997,9.1073,9.2319,9.2439,9.2969,9.4206,9.3529,9.3088,9.3088,9.2244,9.1803,9.1803,9.1803,9.1803,9.1803,9.1803,9.1803,9.1803,9.1803,9.1803,9.1803,9.1803,9.1803,9.1803,9.1803,9.1803,9.1803,9.1803,9.1803,9.1803,9.1803,9.1803,9.1803,9.1803,9.1803,9.1803,9.1803,9.1803,9.1803,9.1803,9.1803,9.1803,9.1803,9.1803,9.1803,9.1803,9.1803,9.1803,9.1803,9.1803,9.1803,9.1803,9.1803,9.1803,9.1803,9.1803,9.1803,9.1803,9.1803,9.1803,9.1803,9.1803,9.1803,9.1803,9.1803,9.1803,9.1803,9.1803,9.1803,9.1803,9.1803,9.1803,9.1803,9.1803,9.1803,9.1803,9.1803,9.1803,9.1803,9.1803,9.2244,9.3125,9.3125,9.3969,9.5492,9.5492,9.5932,4.6698,5.0236,5.4668,5.7881,6.3937,7.0094,7.3849,7.5168,7.6826,8.1291,8.1257,8.0378,8.0242,8.0682,8.1224,8.1562,8.4606,8.6738,8.6196,8.8145,8.9889,9.063,9.1275,9.2151,9.3393,9.3296,9.3326,9.3713,9.3732,9.3648,9.3473,9.3235,9.2831,9.2207,9.1913,9.1803,9.1803,9.1803,9.1803,9.1803,9.1803,9.1803,9.1803,9.1803,9.1803,9.1803,9.1803,9.1803,9.1803,9.1803,9.1803,9.1803,9.1803,9.1803,9.1803,9.1803,9.1803,9.1803,9.1803,9.1803,9.1803,9.1803,9.1803,9.1803,9.1803,9.1803,9.1803,9.1803,9.1803,9.1803,9.1803,9.1803,9.1803,9.1803,9.1803,9.1803,9.1803,9.1803,9.1803,9.1803,9.1803,9.1803,9.1803,9.1803,9.1803,9.1803,9.1803,9.1803,9.1803,9.1803,9.1803,9.1803,9.1803,9.1803,9.1803,9.1803,9.1803,9.1803,9.1803,9.1803,9.1803,9.1803,9.1803,9.1803,9.2391,9.3125,9.3932,9.452,9.5327,9.6355,9.6355,9.6465,5.0514,5.4262,5.8693,6.2835,6.8199,7.3443,7.7468,7.8957,8.0378,8.3321,8.2881,8.1968,8.1968,8.1968,8.225,8.3184,8.5079,8.6487,8.6503,8.814,8.9672,9.0492,9.1376,9.2437,9.3692,9.3492,9.3308,9.3308,9.3308,9.3088,9.2611,9.2574,9.2354,9.1803,9.1803,9.1803,9.1803,9.1803,9.1803,9.1803,9.1803,9.1803,9.1803,9.1803,9.1803,9.1803,9.1803,9.1803,9.1803,9.1803,9.1803,9.1803,9.1803,9.1803,9.1803,9.1803,9.1803,9.1803,9.1803,9.1803,9.1803,9.1803,9.1803,9.1803,9.1803,9.1803,9.1803,9.1803,9.1803,9.1803,9.1803,9.1803,9.1803,9.1803,9.1803,9.1803,9.1803,9.1803,9.1803,9.1803,9.1803,9.1803,9.1803,9.1803,9.1803,9.1803,9.1803,9.1803,9.1803,9.1803,9.1803,9.1803,9.1803,9.1803,9.1803,9.1803,9.1803,9.1803,9.1803,9.1803,9.1803,9.1803,9.1803,9.1803,9.2648,9.3492,9.4299,9.5107,9.5895,9.6685,9.6685,9.6685,5.7187,6.0419,6.3802,6.9755,7.2225,7.4864,8.119,8.3118,8.3795,8.4444,8.3016,8.2205,8.4242,8.3053,8.2785,8.5906,8.614,8.6348,8.7508,8.8271,8.9207,9.0406,9.0975,9.1703,9.2885,9.2244,9.1803,9.1803,9.1803,9.1803,9.1803,9.1803,9.1803,9.1803,9.1803,9.1803,9.1803,9.1803,9.1803,9.1803,9.1803,9.1803,9.1803,9.1803,9.1803,9.1803,9.1803,9.1803,9.1803,9.1803,9.1803,9.1803,9.1803,9.1803,9.1803,9.1803,9.1803,9.1803,9.1803,9.1803,9.1803,9.1803,9.1803,9.1803,9.1803,9.1803,9.1803,9.1803,9.1803,9.1803,9.1803,9.1803,9.1803,9.1803,9.1803,9.1803,9.1803,9.1803,9.1803,9.1803,9.1803,9.1803,9.1803,9.1803,9.1803,9.1803,9.1803,9.1803,9.1803,9.1803,9.1803,9.1803,9.1803,9.1803,9.1803,9.1803,9.1803,9.1803,9.1803,9.1803,9.1803,9.1803,9.1803,9.1803,9.2721,9.3565,9.4299,9.518,9.5988,9.6685,9.6685,9.6685,5.4228,5.8457,6.3666,6.9079,7.4931,8.0209,8.3396,8.4242,8.4411,8.458,8.4208,8.4039,8.4512,8.4985,8.5541,8.6296,8.6858,8.7419,8.7983,8.8743,8.9485,9.0049,9.104,9.1784,9.2042,9.1913,9.1803,9.1803,9.1803,9.1803,9.1803,9.1803,9.1803,9.1803,9.1803,9.1803,9.1803,9.1803,9.1803,9.1803,9.1803,9.1803,9.1803,9.1803,9.1803,9.1803,9.1803,9.1803,9.1803,9.1803,9.1803,9.1803,9.1803,9.1803,9.1803,9.1803,9.1803,9.1803,9.1803,9.1803,9.1803,9.1803,9.1803,9.1803,9.1803,9.1803,9.1803,9.1803,9.1803,9.1803,9.1803,9.1803,9.1803,9.1803,9.1803,9.1803,9.1803,9.1803,9.1803,9.1803,9.1803,9.1803,9.1803,9.1803,9.1803,9.1803,9.1803,9.1803,9.1803,9.1803,9.1803,9.1803,9.1803,9.1803,9.1803,9.1803,9.1803,9.1803,9.1803,9.1803,9.1803,9.1803,9.1803,9.1803,9.3272,9.4116,9.4299,9.5731,9.6539,9.6685,9.6685,9.6685,5.548,6.025,6.5683,7.2699,7.8179,8.2205,8.3727,8.4343,8.4614,8.4614,8.5066,8.5464,8.5464,8.6439,8.7445,8.8043,8.7983,8.8147,8.8956,8.9428,8.9771,8.996,9.1078,9.1803,9.1803,9.1803,9.1803,9.1803,9.1803,9.1803,9.1803,9.1803,9.1803,9.1803,9.1803,9.1803,9.1803,9.1803,9.1803,9.1803,9.1803,9.1803,9.1803,9.1803,9.1803,9.1803,9.1803,9.1803,9.1803,9.1803,9.1803,9.1803,9.1803,9.1803,9.1803,9.1803,9.1803,9.1803,9.1803,9.1803,9.1803,9.1803,9.1803,9.1803,9.1803,9.1803,9.1803,9.1803,9.1803,9.1803,9.1803,9.1803,9.1803,9.1803,9.1803,9.1803,9.1803,9.1803,9.1803,9.1803,9.1803,9.1803,9.1803,9.1803,9.1803,9.1803,9.1803,9.1803,9.1803,9.1803,9.1803,9.1803,9.1803,9.1803,9.1803,9.1803,9.1803,9.1803,9.1803,9.1803,9.1803,9.1803,9.1803,9.1803,9.3455,9.4299,9.4299,9.5914,9.6685,9.6685,9.6685,9.6685,5.6427,6.2042,6.803,7.6893,8.0581,8.2272,8.3118,8.3795,8.4208,8.4208,8.5395,8.6414,8.6414,8.7561,8.8819,8.9842,8.9178,8.8928,9.0127,9.0107,9.0067,9.0304,9.1192,9.1803,9.1803,9.1803,9.1803,9.1803,9.1803,9.1803,9.1803,9.1803,9.1803,9.1803,9.1803,9.1803,9.1803,9.1803,9.1803,9.1803,9.1803,9.1803,9.1803,9.1803,9.1803,9.1803,9.1803,9.1803,9.1803,9.1803,9.1803,9.1803,9.1803,9.1803,9.1803,9.1803,9.1803,9.1803,9.1803,9.1803,9.1803,9.1803,9.1803,9.1803,9.1803,9.1803,9.1803,9.1803,9.1803,9.1803,9.1803,9.1803,9.1803,9.1803,9.1803,9.1803,9.1803,9.1803,9.1803,9.1803,9.1803,9.1803,9.1803,9.1803,9.1803,9.1803,9.1803,9.1803,9.1803,9.1803,9.1803,9.1803,9.1803,9.1803,9.1803,9.1803,9.1803,9.1803,9.1803,9.1803,9.1803,9.1803,9.1803,9.1803,9.3455,9.4299,9.4299,9.5914,9.6685,9.6685,9.6685,9.6685,5.0624,5.8896,6.8673,7.7004,7.9803,8.0851,8.2238,8.2644,8.2712,8.2712,8.4666,8.6414,8.6414,8.8246,8.9822,8.9965,8.9883,9.0168,9.1398,9.0657,9.0384,9.1435,9.1694,9.1803,9.1803,9.1803,9.1803,9.1803,9.1803,9.1803,9.1803,9.1803,9.1803,9.1803,9.1803,9.1803,9.1803,9.1803,9.1803,9.1803,9.1803,9.1803,9.1803,9.1803,9.1803,9.1803,9.1803,9.1803,9.1803,9.1803,9.1803,9.1803,9.1803,9.1803,9.1803,9.1803,9.1803,9.1803,9.1803,9.1803,9.1803,9.1803,9.1803,9.1803,9.1803,9.1803,9.1803,9.1803,9.1803,9.1803,9.1803,9.1803,9.1803,9.1803,9.1803,9.1803,9.1803,9.1803,9.1803,9.1803,9.1803,9.1803,9.1803,9.1803,9.1803,9.1803,9.1803,9.1803,9.1803,9.1803,9.1803,9.1803,9.1803,9.1803,9.1803,9.1803,9.1803,9.1803,9.1803,9.1803,9.1803,9.1803,9.1803,9.1803,9.3455,9.4299,9.4299,9.5914,9.6685,9.6685,9.6685,9.6685,5.3619,6.0825,6.7963,7.5337,7.8416,7.987,8.0919,8.2316,8.3329,8.3329,8.5357,8.7033,8.6824,8.9088,9.1003,9.1003,9.1003,9.1192,9.1749,9.136,9.1211,9.1749,9.1803,9.1803,9.1803,9.1803,9.1803,9.1803,9.1363,9.1143,9.1143,9.1143,9.1143,9.1143,9.1546,9.1803,9.1803,9.1363,9.0922,9.0482,9.0482,9.0482,9.0482,9.0482,9.0959,9.1803,9.1803,9.1803,9.1803,9.1803,9.1803,9.1803,9.1803,9.1803,9.1803,9.1803,9.1803,9.1803,9.1803,9.1803,9.1803,9.1803,9.1803,9.1803,9.1803,9.1803,9.1803,9.1803,9.1803,9.1803,9.1803,9.1803,9.1803,9.1803,9.1803,9.1803,9.1803,9.1803,9.1803,9.1803,9.1803,9.1803,9.1803,9.1803,9.1803,9.1803,9.1803,9.1803,9.1803,9.1803,9.1803,9.1803,9.1803,9.1803,9.1803,9.1803,9.1803,9.1803,9.1803,9.1803,9.1803,9.1803,9.1803,9.1803,9.3455,9.4299,9.4299,9.5914,9.6685,9.6685,9.6685,9.6685,5.4634,6.0013,6.4343,7.1616,7.5303,7.7512,7.9025,8.1224,8.303,8.3237,8.5407,8.7257,8.6987,8.9425,9.1546,9.1767,9.162,9.1583,9.1767,9.1436,9.1253,9.1473,9.1326,9.1179,9.1179,9.1179,9.1179,9.1179,9.0629,9.028,9.028,9.028,9.028,9.028,9.0886,9.1179,9.1179,9.0592,8.9987,8.94,8.94,8.94,8.94,8.94,9.006,9.1179,9.1179,9.1179,9.1216,9.14,9.151,9.151,9.173,9.1803,9.1803,9.1803,9.1803,9.1803,9.1803,9.1803,9.1803,9.1803,9.1803,9.1803,9.1803,9.1803,9.1803,9.1803,9.1803,9.1803,9.1803,9.1803,9.1803,9.1803,9.1803,9.1803,9.1803,9.1803,9.1803,9.1803,9.1803,9.1803,9.1803,9.1803,9.1803,9.1803,9.1803,9.1803,9.1803,9.1803,9.1803,9.1803,9.1803,9.1803,9.1803,9.1803,9.1803,9.1803,9.1803,9.1803,9.1803,9.1803,9.1803,9.1803,9.3455,9.4299,9.4299,9.5914,9.6685,9.6685,9.6685,9.6685,4.856,5.2334,5.6258,6.5067,6.9497,7.2665,7.6251,7.8541,8.0131,8.0824,8.3946,8.6541,8.6519,8.8797,9.0922,9.1693,9.1179,9.0922,9.1693,9.0482,8.9803,9.0592,8.9987,8.951,8.951,8.951,8.951,8.951,8.9473,8.9473,8.9473,8.9473,8.9473,8.9473,8.951,8.951,8.951,8.9473,8.9436,8.94,8.94,8.94,8.94,8.94,8.9436,8.951,8.951,8.951,8.9583,9.0354,9.0665,9.0739,9.151,9.1803,9.1803,9.1803,9.1803,9.1803,9.1803,9.1803,9.1803,9.1803,9.1803,9.1803,9.1803,9.1803,9.1803,9.1803,9.1803,9.1803,9.1803,9.1803,9.1803,9.1803,9.1803,9.1803,9.1803,9.1803,9.1803,9.1803,9.1803,9.1803,9.1803,9.1803,9.1803,9.1803,9.1803,9.1803,9.1803,9.1803,9.1803,9.1803,9.1803,9.1803,9.1803,9.1803,9.1803,9.1803,9.1803,9.1803,9.1803,9.1803,9.1803,9.1803,9.3455,9.4299,9.4299,9.5914,9.6685,9.6685,9.6685,9.6685,4.6481,4.9593,5.3112,6.0622,6.596,6.9927,7.2101,7.6975,8.0891,8.0493,8.3412,8.6191,8.6739,8.8489,8.9913,9.0207,9.0024,8.9913,9.0207,8.9767,8.951,8.9803,8.9583,8.94,8.94,8.94,8.94,8.94,8.8923,8.8647,8.8647,8.8647,8.8647,8.8647,8.9143,8.9143,8.8647,8.8647,8.839,8.7858,8.7858,8.7858,8.7858,8.7858,8.7858,8.7858,8.7858,8.8445,8.9473,9.028,9.0592,9.0702,9.1473,9.1803,9.1803,9.1803,9.1803,9.1803,9.1803,9.1803,9.1803,9.1803,9.1803,9.1803,9.1803,9.1803,9.1803,9.1803,9.1803,9.1803,9.1803,9.1803,9.1803,9.1803,9.1803,9.1803,9.1803,9.1803,9.1803,9.1803,9.1803,9.1803,9.1803,9.1803,9.1803,9.1803,9.1803,9.1803,9.1803,9.1803,9.1803,9.1803,9.1803,9.1803,9.1803,9.1803,9.1803,9.1803,9.1803,9.1803,9.1803,9.1803,9.206,9.2611,9.3712,9.4299,9.4299,9.5914,9.6685,9.6685,9.6685,9.6685,4.3606,4.6346,4.9914,5.69,6.1171,6.4927,6.9586,7.4537,7.8508,7.9685,8.2632,8.5233,8.604,8.7051,8.8152,8.9216,8.9179,8.9069,8.9363,8.8923,8.8702,8.8959,8.8739,8.8592,8.8592,8.8592,8.8592,8.8592,8.8096,8.7802,8.7802,8.7802,8.7802,8.7802,8.8299,8.8335,8.7802,8.7802,8.7545,8.6978,8.6978,8.6978,8.6978,8.6978,8.7124,8.7399,8.7124,8.7601,8.8666,8.9436,8.9968,9.028,9.1069,9.1546,9.1803,9.1803,9.1803,9.1803,9.1803,9.1803,9.1803,9.1803,9.1803,9.1803,9.1803,9.1803,9.1803,9.1803,9.1803,9.1803,9.1803,9.1803,9.1803,9.1803,9.1803,9.1803,9.1803,9.1803,9.1803,9.1803,9.1803,9.1803,9.1803,9.1803,9.1803,9.1803,9.1803,9.1803,9.1803,9.1803,9.1803,9.1803,9.1803,9.1803,9.1803,9.1803,9.1803,9.1803,9.1803,9.1803,9.1803,9.1803,9.2207,9.3088,9.3896,9.441,9.4703,9.6061,9.6685,9.6685,9.6685,9.6685,0.0,0.0,0.0,5.3534,5.4888,5.7408,6.8552,7.1045,7.253,7.8009,8.1294,8.3418,8.4352,8.4535,8.56,8.8739,8.861,8.8426,8.9216,8.7968,8.7271,8.8059,8.7472,8.6978,8.6978,8.6978,8.6978,8.6978,8.6978,8.6978,8.6978,8.6978,8.6978,8.6978,8.6978,8.6978,8.6978,8.6978,8.6978,8.6978,8.6978,8.6978,8.6978,8.6978,8.7435,8.8133,8.7362,8.6978,8.7051,8.7876,8.872,8.9473,9.0317,9.1106,9.1803,9.1803,9.1803,9.1803,9.1803,9.1803,9.1803,9.1803,9.1803,9.1803,9.1803,9.1803,9.1803,9.1803,9.1803,9.1803,9.1803,9.1803,9.1803,9.1803,9.1803,9.1803,9.1803,9.1803,9.1803,9.1803,9.1803,9.1803,9.1803,9.1803,9.1803,9.1803,9.1803,9.1803,9.1803,9.1803,9.1803,9.1803,9.1803,9.1803,9.1803,9.1803,9.1803,9.1803,9.1803,9.1803,9.1803,9.1803,9.2244,9.3125,9.3932,9.474,9.5528,9.6318,9.6685,9.6685,9.6685,9.6685,3.9343,0.0,0.0,0.0,0.0,0.0,5.8132,6.2465,6.6937,7.2278,7.5452,7.839,8.215,8.3361,8.4188,8.571,8.6224,8.6738,8.7528,8.7271,8.7088,8.7325,8.7124,8.6978,8.6978,8.6978,8.6978,8.6978,8.6978,8.6978,8.6978,8.6978,8.6978,8.6978,8.6978,8.6978,8.6978,8.6978,8.6978,8.6978,8.6978,8.6978,8.6978,8.6978,8.7124,8.7308,8.7088,8.6978,8.7088,8.8482,8.9216,8.9546,9.0922,9.1583,9.1803,9.1803,9.1803,9.1803,9.1803,9.1803,9.1803,9.1803,9.1803,9.1803,9.1803,9.1803,9.1803,9.1803,9.1803,9.1803,9.1803,9.1803,9.1803,9.1803,9.1803,9.1803,9.1803,9.1803,9.1803,9.1803,9.1803,9.1803,9.1803,9.1803,9.1803,9.1803,9.1803,9.1803,9.1803,9.1803,9.1803,9.1803,9.1803,9.1803,9.1803,9.1803,9.1803,9.1803,9.1803,9.1803,9.1803,9.2391,9.3125,9.3932,9.4777,9.5584,9.6392,9.6575,9.6685,9.6685,9.6685,9.6685,0.0,0.0,4.3822,4.6094,0.0,0.0,5.6104,5.9198,6.2738,6.9737,7.2886,7.5469,7.8993,8.0608,8.1672,8.248,8.3544,8.4682,8.5857,8.6004,8.6004,8.6004,8.6004,8.6004,8.6004,8.6004,8.6004,8.6004,8.6004,8.6151,8.6481,8.6811,8.6978,8.6978,8.6978,8.6978,8.6978,8.6978,8.6978,8.6978,8.6978,8.6978,8.6978,8.6978,8.7161,8.7472,8.7124,8.7215,8.7582,8.8519,8.9106,8.9473,9.0445,9.1216,9.1803,9.1803,9.1803,9.1803,9.1803,9.1803,9.1803,9.1803,9.1803,9.1803,9.1803,9.1803,9.1803,9.1803,9.1803,9.1803,9.1803,9.1803,9.1803,9.1803,9.1803,9.1803,9.1803,9.1803,9.1803,9.1803,9.1803,9.1803,9.1803,9.1803,9.1803,9.1803,9.1803,9.1803,9.1803,9.1803,9.1803,9.1803,9.1803,9.1803,9.1803,9.1803,9.1803,9.1803,9.1803,9.195,9.2317,9.2831,9.3639,9.4777,9.5254,9.5914,9.6685,9.6685,9.6685,9.6685,9.6685,9.6685,0.0,0.0,0.0,0.0,4.8003,0.0,5.7721,5.8219,5.9065,6.7605,7.0637,7.2336,7.4389,7.6209,7.7635,7.8458,8.0257,8.2223,8.4205,8.4535,8.4609,8.4609,8.4609,8.4609,8.4609,8.4609,8.4609,8.4609,8.4609,8.4903,8.5654,8.6334,8.6721,8.6721,8.6721,8.6775,8.6885,8.6885,8.6904,8.6978,8.6978,8.6978,8.6978,8.6978,8.7399,8.8023,8.7325,8.7435,8.8059,8.8059,8.8536,8.929,8.9473,9.0391,9.1693,9.1767,9.1803,9.1803,9.1803,9.1803,9.1803,9.1803,9.1803,9.1803,9.1803,9.1803,9.1803,9.1803,9.1803,9.1803,9.1803,9.1803,9.1803,9.1803,9.1803,9.1803,9.1803,9.1803,9.1803,9.1803,9.1803,9.1803,9.1803,9.1803,9.1803,9.1803,9.1803,9.1803,9.1803,9.1803,9.1803,9.1803,9.1803,9.1803,9.1803,9.1803,9.1803,9.1803,9.1803,9.2134,9.2941,9.3125,9.3932,9.5364,9.5528,9.5988,9.6685,9.6685,9.6685,9.6685,9.6685,9.6685,4.665,0.0,0.0,4.7158,4.8815,0.0,4.911,5.0659,5.3326,5.662,5.8407,6.0851,6.5725,6.8365,7.0073,7.0917,7.4551,7.8772,8.3051,8.4205,8.4609,8.4609,8.4609,8.4609,8.4609,8.4609,8.4609,8.4609,8.4609,8.4682,8.4829,8.4976,8.5086,8.5086,8.5086,8.538,8.604,8.604,8.6371,8.6978,8.6978,8.6978,8.6978,8.6978,8.7088,8.7234,8.7051,8.7088,8.7234,8.7234,8.7729,8.8573,8.9858,9.0537,9.0922,9.1546,9.1803,9.1803,9.1803,9.1803,9.1803,9.1803,9.1803,9.1803,9.1803,9.1803,9.1803,9.1803,9.1803,9.1803,9.1803,9.1803,9.1803,9.1803,9.1803,9.1803,9.1803,9.1803,9.1803,9.1803,9.1803,9.1803,9.1803,9.1803,9.1803,9.1803,9.1803,9.1803,9.1803,9.1803,9.1803,9.1803,9.1803,9.1803,9.1803,9.1803,9.1803,9.1803,9.1803,9.1877,9.206,9.3345,9.4189,9.452,9.5804,9.6539,9.6685,9.6685,9.6685,9.6685,9.6685,9.6685,4.9796,4.9796,5.0574,5.0202,5.0135,0.0,0.0,5.0434,5.1493,5.6255,5.6531,5.7469,6.2612,6.4495,6.5668,6.6903,7.1174,7.4882,7.6533,7.991,8.2186,8.2186,8.2186,8.237,8.2774,8.281,8.2957,8.3361,8.3765,8.4005,8.4005,8.4389,8.4609,8.4609,8.4609,8.4792,8.5196,8.56,8.6004,8.6407,8.6811,8.6978,8.6978,8.6978,8.6978,8.6978,8.6978,8.7234,8.7619,8.7619,8.8096,8.8886,8.9693,9.0244,9.0702,9.151,9.1803,9.1803,9.1803,9.1803,9.1803,9.1803,9.1803,9.1803,9.1803,9.1803,9.1803,9.1803,9.1803,9.1803,9.1803,9.1803,9.1803,9.1803,9.1803,9.1803,9.1803,9.1803,9.1803,9.1803,9.1803,9.1803,9.1803,9.1803,9.1803,9.1803,9.1803,9.1803,9.1803,9.1803,9.1803,9.1803,9.1803,9.1803,9.1803,9.1803,9.1803,9.1803,9.1803,9.1987,9.2427,9.3639,9.4666,9.5474,9.6282,9.6685,9.6685,9.6685,9.6685,9.6685,9.6685,9.6685,5.3839,5.323,5.3737,5.4431,5.2638,5.1274,0.0,0.0,0.0,5.6788,5.6112,5.5763,5.9798,6.0738,6.1398,6.2756,6.7173,6.9889,6.8421,7.3303,7.732,7.8091,7.8715,7.9323,7.9984,7.98,8.0204,8.1636,8.1599,8.195,8.2904,8.3544,8.3985,8.4132,8.4132,8.4205,8.4389,8.5013,8.549,8.58,8.6444,8.6831,8.6978,8.6978,8.6978,8.6978,8.6978,8.7362,8.7986,8.7986,8.8463,8.9216,8.951,9.0024,9.0702,9.151,9.1803,9.1803,9.1803,9.1803,9.1803,9.1803,9.1803,9.1803,9.1803,9.1803,9.1803,9.1803,9.1803,9.1803,9.1803,9.1803,9.1803,9.1803,9.1803,9.1803,9.1803,9.1803,9.1803,9.1803,9.1803,9.1803,9.1803,9.1803,9.1803,9.1803,9.1803,9.1803,9.1803,9.1803,9.1803,9.1803,9.1803,9.1803,9.1803,9.1803,9.1803,9.1803,9.1803,9.2134,9.2831,9.3786,9.507,9.6685,9.6685,9.6685,9.6685,9.6685,9.6685,9.6685,9.6685,9.6685,5.9742,6.0569,6.0907,5.5852,5.7697,5.8493,4.9801,0.0,5.1238,4.8769,0.0,5.0161,5.2014,0.0,0.0,5.4535,5.9208,6.2511,6.163,6.4628,6.8261,7.1857,7.4771,7.657,7.6644,7.5359,7.6071,7.9779,7.679,7.668,8.1048,8.1379,8.1746,8.2443,8.248,8.281,8.3528,8.3638,8.4389,8.58,8.5894,8.6297,8.6978,8.6978,8.6978,8.6978,8.6978,8.7051,8.7124,8.7124,8.7619,8.85,8.9931,9.0519,9.0702,9.151,9.1803,9.1803,9.1803,9.1803,9.1803,9.1803,9.1803,9.1803,9.1803,9.1803,9.1803,9.1803,9.1803,9.1803,9.1803,9.1803,9.1803,9.1803,9.1803,9.1803,9.1803,9.1803,9.1803,9.1803,9.1803,9.1803,9.1803,9.1803,9.1803,9.1803,9.1803,9.1803,9.1803,9.1803,9.1803,9.1803,9.1803,9.1803,9.1803,9.1803,9.1803,9.1803,9.1803,9.184,9.195,9.3455,9.507,9.6685,9.6685,9.6685,9.6685,9.6685,9.6685,9.6685,9.6685,9.6685,6.0858,6.1574,6.2148,5.8147,5.83,5.7878,5.2022,5.0202,4.9807,5.0025,0.0,0.0,0.0,0.0,0.0,0.0,5.6381,5.8217,5.648,5.9013,6.3099,6.8568,6.9596,7.0917,7.3744,7.3413,7.4478,7.8075,7.5469,7.5432,7.9396,8.0498,8.1158,8.1489,8.1966,8.237,8.27,8.3161,8.3968,8.5123,8.5563,8.6224,8.6978,8.6978,8.6978,8.6978,8.6978,8.7234,8.7692,8.7692,8.8463,8.9674,9.0335,9.0592,9.0702,9.151,9.1803,9.1803,9.1803,9.1803,9.1803,9.1803,9.1803,9.1803,9.1803,9.1803,9.1803,9.1803,9.1803,9.1803,9.1803,9.1803,9.1803,9.1803,9.1803,9.1803,9.1803,9.1803,9.1803,9.1803,9.1803,9.1803,9.1803,9.1803,9.1803,9.1803,9.1803,9.1803,9.1803,9.1803,9.1803,9.1803,9.1803,9.1803,9.1803,9.1803,9.1803,9.1803,9.1803,9.2244,9.3198,9.3932,9.507,9.6685,9.6685,9.6685,9.6685,9.6685,9.6685,9.6685,9.6685,9.6685,6.3455,6.378,6.3942,5.9735,5.8184,5.6756,5.3107,5.093,5.0181,5.181,5.1046,0.0,0.0,0.0,0.0,0.0,0.0,5.5049,5.2847,5.4546,5.8107,6.3735,6.4714,6.6512,7.0477,6.9853,7.0977,7.5344,7.2826,7.3156,7.8002,7.9344,8.0314,8.0975,8.1562,8.1966,8.2186,8.2774,8.3581,8.4609,8.5196,8.6004,8.6978,8.6978,8.6978,8.6978,8.6978,8.7325,8.7876,8.7876,8.883,9.028,9.028,9.0555,9.0996,9.1583,9.1803,9.1803,9.1803,9.1803,9.1803,9.1803,9.1803,9.1803,9.1803,9.1803,9.1803,9.1803,9.1803,9.1803,9.1803,9.1803,9.1803,9.1803,9.1803,9.1803,9.1803,9.1803,9.1803,9.1803,9.1803,9.1803,9.1803,9.1803,9.1803,9.1803,9.1803,9.1803,9.1803,9.1803,9.1803,9.1803,9.1803,9.1803,9.1803,9.1803,9.1803,9.1803,9.1803,9.2537,9.4226,9.4299,9.507,9.6685,9.6685,9.6685,9.6685,9.6685,9.6685,9.6685,9.6685,9.6685,0.0,0.0,0.0,6.0025,0.0,0.0,0.0,0.0,5.3803,0.0,0.0,5.5787,0.0,0.0,0.0,0.0,0.0,0.0,0.0,5.0986,5.227,5.5585,6.0798,6.4787,6.6512,6.3099,6.3747,7.094,6.71,6.8201,7.6885,7.7399,7.8537,8.0938,8.1048,8.1415,8.2186,8.2223,8.303,8.4609,8.4646,8.549,8.6978,8.6978,8.6978,8.6978,8.6978,8.7014,8.7014,8.7014,8.7968,8.9436,8.9436,9.0391,9.1767,9.1803,9.1803,9.1803,9.1803,9.1803,9.1803,9.1803,9.1803,9.1803,9.1803,9.1803,9.1803,9.1803,9.1803,9.1803,9.1803,9.1803,9.1803,9.1803,9.1803,9.1803,9.1803,9.1803,9.1803,9.1803,9.1803,9.1803,9.1803,9.1803,9.1803,9.1803,9.1803,9.1803,9.1803,9.1803,9.1803,9.1803,9.1803,9.1803,9.1803,9.1803,9.1803,9.1803,9.1803,9.2537,9.4226,9.4299,9.507,9.6685,9.6685,9.6685,9.6685,9.6685,9.6685,9.6685,9.6685,9.6685,0.0,0.0,7.2387,6.5183,0.0,0.0,0.0,0.0,0.0,0.0,0.0,0.0,0.0,0.0,0.0,0.0,0.0,0.0,0.0,4.837,4.8957,5.0582,5.6737,6.0664,6.0126,6.0272,6.2548,6.7724,6.6109,6.7834,7.4551,7.6445,7.7949,7.936,8.0461,8.1379,8.2186,8.2186,8.2994,8.4609,8.4609,8.5453,8.6978,8.6978,8.6978,8.6978,8.6978,8.6978,8.7014,8.7582,8.8409,8.9436,8.9987,9.0849,9.1803,9.1803,9.1803,9.1803,9.1803,9.1803,9.1803,9.1803,9.1803,9.1803,9.1803,9.1803,9.1803,9.1803,9.1803,9.1803,9.1803,9.1803,9.1803,9.1803,9.1803,9.1803,9.1803,9.1803,9.1803,9.1803,9.1803,9.1803,9.1803,9.1803,9.1803,9.1803,9.1803,9.1803,9.1803,9.1803,9.1803,9.1803,9.1803,9.1803,9.1803,9.1803,9.1803,9.1803,9.1803,9.2537,9.4226,9.4299,9.507,9.6685,9.6685,9.6685,9.6685,9.6685,9.6685,9.6685,9.6685,9.6685,7.4977,7.5493,0.0,6.907,6.6383,0.0,5.6771,0.0,5.7113,0.0,0.0,0.0,0.0,0.0,0.0,0.0,0.0,0.0,0.0,4.6938,4.7296,4.7819,5.3067,5.6554,5.6381,5.6748,5.9281,6.4787,6.415,6.6292,7.2496,7.5124,7.7105,7.8552,7.9874,8.1085,8.2186,8.2186,8.2994,8.4609,8.4609,8.5453,8.6978,8.6978,8.6978,8.6978,8.6978,8.7178,8.7472,8.7986,8.883,8.9877,9.0408,9.1106,9.1803,9.1803,9.1803,9.1803,9.1803,9.1803,9.1803,9.1803,9.1803,9.1803,9.1803,9.1803,9.1803,9.1803,9.1803,9.1803,9.1803,9.1803,9.1803,9.1803,9.1803,9.1803,9.1803,9.1803,9.1803,9.1803,9.1803,9.1803,9.1803,9.1803,9.1803,9.1803,9.1803,9.1803,9.1803,9.1803,9.1803,9.1803,9.1803,9.1803,9.1803,9.1803,9.1803,9.1803,9.2097,9.2868,9.4226,9.4556,9.5364,9.6685,9.6685,9.6685,9.6685,9.6685,9.6685,9.6685,9.6685,9.6685]}]]